[[{"header":{"parameterUnit":"m.s-1","parameterCategory":1,"la1":30.6,"la2":29.2853,"lo1":-89.7004,"lo2":-87.6739,"dy":0.0162,"dx":0.0183,"nx":112,"ny":82,"refTime":"2023-11-08T06:00:00:Z","depth":0,"parameterNumber":2,"parameterNumberName":"U-component_of_WINDS"},"data":[0.0,0.0,0.0,0.0,0.0,0.0,0.0,0.0,0.0,0.0,0.0,0.0,0.0,0.0,0.0,0.0,0.0,0.0,0.0,0.0,0.0,0.0,0.0,0.0,0.0,0.0,0.0,0.0,0.0,0.0,0.0,0.0,0.0,0.0,0.0,0.0,0.0,0.0,0.0,0.0,0.0,0.0,0.0,0.0,0.0,0.0,0.0,0.0,0.0,0.0,0.0,0.0,0.0,0.0,0.0,0.0,0.0,0.0,0.0,0.0,0.0,0.0,0.0,0.0,0.0,0.0,0.0,0.0,0.0,0.0,0.0,0.0,0.0,0.0,0.0,0.0,0.0,0.0,0.0,0.0,0.0,0.0,0.0,0.0,0.0,0.0,0.0,0.0,0.0,0.0,3.4859,3.4775,3.4835,3.4859,3.4775,3.4763,3.4799,3.4883,0.0,0.0,0.0,0.0,0.0,0.0,0.0,0.0,0.0,0.0,0.0,0.0,0.0,0.0,0.0,0.0,0.0,0.0,0.0,0.0,0.0,0.0,0.0,0.0,0.0,0.0,0.0,0.0,0.0,0.0,0.0,0.0,0.0,0.0,0.0,0.0,0.0,0.0,0.0,0.0,0.0,0.0,0.0,0.0,0.0,0.0,0.0,0.0,0.0,0.0,0.0,0.0,0.0,0.0,0.0,0.0,0.0,0.0,0.0,0.0,0.0,0.0,0.0,0.0,0.0,0.0,0.0,0.0,0.0,0.0,0.0,0.0,0.0,0.0,0.0,0.0,0.0,0.0,0.0,0.0,0.0,0.0,0.0,0.0,0.0,0.0,0.0,0.0,0.0,0.0,0.0,0.0,0.0,0.0,0.0,0.0,0.0,0.0,0.0,0.0,0.0,0.0,0.0,0.0,3.4715,3.4275,3.4618,3.4703,3.4263,3.4226,3.4411,3.4859,0.0,0.0,0.0,0.0,0.0,0.0,0.0,0.0,0.0,0.0,0.0,0.0,0.0,0.0,0.0,0.0,0.0,0.0,0.0,0.0,0.0,0.0,0.0,0.0,0.0,0.0,0.0,0.0,0.0,0.0,0.0,0.0,0.0,0.0,0.0,0.0,0.0,0.0,0.0,0.0,0.0,0.0,0.0,0.0,0.0,0.0,0.0,0.0,0.0,0.0,0.0,0.0,0.0,0.0,0.0,0.0,0.0,0.0,0.0,0.0,0.0,0.0,0.0,0.0,0.0,0.0,0.0,0.0,0.0,0.0,0.0,0.0,0.0,0.0,0.0,0.0,0.0,0.0,0.0,0.0,0.0,0.0,0.0,0.0,0.0,0.0,0.0,0.0,0.0,0.0,0.0,0.0,0.0,0.0,0.0,0.0,0.0,0.0,0.0,0.0,0.0,0.0,0.0,3.4106,3.423,3.3656,3.3821,3.3872,3.363,3.3604,3.3707,3.396,3.428,0.0,0.0,0.0,0.0,0.0,0.0,0.0,0.0,0.0,0.0,0.0,0.0,0.0,0.0,0.0,0.0,0.0,0.0,0.0,0.0,0.0,0.0,0.0,0.0,0.0,0.0,0.0,0.0,0.0,0.0,0.0,0.0,0.0,0.0,0.0,0.0,0.0,0.0,0.0,0.0,0.0,0.0,0.0,0.0,0.0,0.0,0.0,0.0,0.0,0.0,0.0,0.0,0.0,0.0,0.0,0.0,0.0,0.0,0.0,0.0,0.0,0.0,0.0,0.0,0.0,0.0,0.0,0.0,0.0,0.0,0.0,0.0,0.0,0.0,0.0,0.0,0.0,0.0,0.0,0.0,0.0,0.0,0.0,0.0,0.0,0.0,0.0,0.0,0.0,0.0,0.0,0.0,0.0,0.0,0.0,0.0,0.0,0.0,0.0,0.0,0.0,0.0,3.3475,3.352,3.3068,3.3116,3.3143,3.3029,3.3029,3.3082,3.3182,3.3501,0.0,0.0,0.0,0.0,0.0,0.0,0.0,0.0,0.0,0.0,0.0,0.0,0.0,0.0,0.0,0.0,0.0,0.0,0.0,0.0,0.0,0.0,0.0,0.0,0.0,0.0,0.0,0.0,0.0,0.0,0.0,0.0,0.0,0.0,0.0,0.0,0.0,0.0,0.0,0.0,0.0,0.0,0.0,0.0,0.0,0.0,0.0,0.0,0.0,0.0,0.0,0.0,0.0,0.0,0.0,0.0,0.0,0.0,0.0,0.0,0.0,0.0,0.0,0.0,0.0,0.0,0.0,0.0,0.0,0.0,0.0,0.0,0.0,0.0,0.0,0.0,0.0,0.0,0.0,0.0,0.0,0.0,0.0,0.0,0.0,0.0,0.0,0.0,0.0,0.0,0.0,0.0,0.0,0.0,0.0,0.0,0.0,0.0,0.0,0.0,0.0,0.0,3.2788,3.2492,3.2451,3.2909,3.3015,3.2506,3.2451,3.2683,3.3156,3.2761,0.0,0.0,0.0,0.0,0.0,0.0,0.0,0.0,0.0,0.0,0.0,0.0,0.0,0.0,0.0,0.0,0.0,0.0,0.0,0.0,0.0,0.0,0.0,0.0,0.0,0.0,0.0,0.0,0.0,0.0,0.0,0.0,0.0,0.0,0.0,0.0,0.0,0.0,0.0,0.0,0.0,0.0,0.0,0.0,0.0,0.0,0.0,0.0,0.0,0.0,0.0,0.0,0.0,0.0,0.0,0.0,0.0,0.0,0.0,0.0,0.0,0.0,0.0,0.0,0.0,0.0,0.0,0.0,0.0,0.0,0.0,0.0,0.0,0.0,0.0,0.0,0.0,0.0,0.0,0.0,0.0,0.0,0.0,0.0,0.0,0.0,0.0,0.0,0.0,0.0,0.0,0.0,0.0,0.0,0.0,0.0,0.0,0.0,0.0,0.0,0.0,0.0,3.2188,3.2118,0.0,3.2006,3.2048,3.1853,3.1839,3.1938,3.2132,0.0,0.0,0.0,0.0,0.0,0.0,0.0,0.0,0.0,0.0,0.0,0.0,0.0,0.0,0.0,0.0,0.0,0.0,0.0,0.0,0.0,0.0,0.0,0.0,0.0,0.0,0.0,0.0,0.0,0.0,0.0,0.0,0.0,0.0,0.0,0.0,0.0,0.0,0.0,0.0,0.0,0.0,0.0,0.0,0.0,0.0,0.0,0.0,0.0,0.0,0.0,0.0,0.0,0.0,0.0,0.0,0.0,0.0,0.0,0.0,0.0,0.0,0.0,0.0,0.0,0.0,0.0,0.0,0.0,0.0,0.0,0.0,0.0,0.0,0.0,0.0,0.0,0.0,0.0,0.0,0.0,0.0,0.0,0.0,0.0,0.0,0.0,0.0,0.0,0.0,0.0,0.0,0.0,0.0,0.0,0.0,0.0,0.0,0.0,0.0,0.0,0.0,3.1452,3.1666,3.1723,0.0,3.1424,3.1453,3.1453,3.1453,3.1467,3.1511,0.0,0.0,0.0,0.0,0.0,0.0,0.0,0.0,0.0,0.0,0.0,0.0,0.0,0.0,0.0,0.0,0.0,0.0,0.0,0.0,0.0,0.0,0.0,0.0,0.0,0.0,0.0,0.0,0.0,0.0,0.0,0.0,0.0,0.0,0.0,0.0,0.0,0.0,0.0,0.0,0.0,0.0,0.0,0.0,0.0,0.0,0.0,0.0,0.0,0.0,0.0,0.0,0.0,0.0,0.0,0.0,0.0,0.0,0.0,0.0,0.0,0.0,0.0,0.0,0.0,0.0,0.0,0.0,0.0,0.0,0.0,0.0,0.0,0.0,0.0,0.0,0.0,0.0,0.0,0.0,0.0,0.0,0.0,0.0,0.0,0.0,0.0,0.0,0.0,0.0,0.0,0.0,0.0,0.0,0.0,0.0,0.0,0.0,0.0,0.0,0.0,0.0,3.1292,3.1292,3.1234,3.1102,3.1234,3.1292,3.1292,3.1292,3.1336,0.0,0.0,0.0,0.0,0.0,0.0,0.0,0.0,0.0,0.0,0.0,0.0,0.0,0.0,0.0,0.0,0.0,0.0,0.0,0.0,0.0,0.0,0.0,0.0,0.0,0.0,0.0,0.0,0.0,0.0,0.0,0.0,0.0,0.0,0.0,0.0,0.0,0.0,0.0,0.0,0.0,0.0,0.0,0.0,0.0,0.0,0.0,0.0,0.0,0.0,0.0,0.0,0.0,0.0,0.0,0.0,0.0,0.0,0.0,0.0,0.0,0.0,0.0,0.0,0.0,0.0,0.0,0.0,0.0,0.0,0.0,0.0,0.0,0.0,0.0,0.0,0.0,0.0,0.0,0.0,0.0,0.0,0.0,0.0,0.0,0.0,0.0,0.0,0.0,0.0,0.0,0.0,0.0,0.0,0.0,0.0,0.0,0.0,0.0,0.0,0.0,0.0,0.0,3.1263,3.1087,3.0999,3.1087,3.1132,3.1161,3.1161,3.1161,3.122,3.1336,0.0,0.0,0.0,0.0,0.0,0.0,0.0,0.0,0.0,0.0,0.0,0.0,0.0,0.0,0.0,0.0,0.0,0.0,0.0,0.0,0.0,0.0,0.0,0.0,0.0,0.0,0.0,0.0,0.0,0.0,0.0,0.0,0.0,0.0,0.0,0.0,0.0,0.0,0.0,0.0,0.0,0.0,0.0,0.0,0.0,0.0,0.0,0.0,0.0,0.0,0.0,0.0,0.0,0.0,0.0,0.0,0.0,0.0,0.0,0.0,0.0,0.0,0.0,0.0,0.0,0.0,0.0,0.0,0.0,0.0,0.0,0.0,0.0,0.0,0.0,0.0,0.0,0.0,0.0,0.0,0.0,0.0,0.0,0.0,0.0,0.0,0.0,0.0,0.0,0.0,0.0,0.0,0.0,0.0,0.0,0.0,0.0,0.0,0.0,0.0,0.0,0.0,3.0687,3.0282,3.0115,3.0477,3.0553,3.0672,3.0955,3.0984,3.1058,3.122,0.0,0.0,0.0,0.0,0.0,0.0,0.0,0.0,0.0,0.0,0.0,0.0,0.0,0.0,0.0,0.0,0.0,0.0,0.0,0.0,0.0,0.0,0.0,0.0,0.0,0.0,0.0,0.0,0.0,0.0,0.0,0.0,0.0,0.0,0.0,0.0,0.0,0.0,0.0,0.0,0.0,0.0,0.0,0.0,0.0,0.0,0.0,0.0,0.0,0.0,0.0,0.0,0.0,0.0,0.0,0.0,0.0,0.0,0.0,0.0,0.0,0.0,0.0,0.0,0.0,0.0,0.0,0.0,0.0,0.0,0.0,0.0,0.0,0.0,0.0,0.0,0.0,0.0,0.0,0.0,0.0,0.0,0.0,0.0,0.0,0.0,0.0,0.0,0.0,0.0,0.0,0.0,0.0,0.0,0.0,0.0,0.0,0.0,0.0,0.0,0.0,0.0,2.9785,2.9263,2.9128,2.9603,2.972,3.0001,3.0609,3.0672,3.0761,3.088,0.0,0.0,0.0,0.0,0.0,0.0,0.0,0.0,0.0,0.0,0.0,0.0,0.0,0.0,0.0,0.0,0.0,0.0,0.0,0.0,0.0,0.0,0.0,0.0,0.0,0.0,0.0,0.0,0.0,0.0,0.0,0.0,0.0,0.0,0.0,0.0,0.0,0.0,0.0,0.0,0.0,0.0,0.0,0.0,0.0,0.0,0.0,0.0,0.0,0.0,0.0,0.0,0.0,0.0,0.0,0.0,0.0,0.0,0.0,0.0,3.7677,0.0,0.0,0.0,0.0,0.0,0.0,0.0,0.0,0.0,0.0,0.0,0.0,0.0,0.0,0.0,0.0,0.0,0.0,0.0,0.0,0.0,0.0,0.0,0.0,0.0,0.0,0.0,0.0,0.0,0.0,0.0,0.0,0.0,0.0,0.0,0.0,0.0,0.0,0.0,0.0,0.0,2.9678,2.9798,2.9947,3.0065,2.9678,2.946,2.9607,2.9766,2.9685,2.931,3.0189,0.0,0.0,0.0,0.0,0.0,0.0,0.0,0.0,0.0,0.0,0.0,0.0,0.0,0.0,0.0,0.0,0.0,0.0,0.0,0.0,0.0,0.0,0.0,0.0,0.0,0.0,0.0,0.0,0.0,0.0,0.0,0.0,0.0,0.0,0.0,0.0,0.0,0.0,0.0,0.0,0.0,0.0,0.0,0.0,0.0,0.0,0.0,0.0,0.0,0.0,0.0,0.0,0.0,0.0,0.0,0.0,0.0,0.0,0.0,0.0,3.7557,0.0,0.0,0.0,0.0,0.0,0.0,0.0,0.0,0.0,0.0,0.0,0.0,0.0,0.0,0.0,0.0,0.0,0.0,0.0,0.0,0.0,0.0,0.0,0.0,0.0,0.0,0.0,0.0,0.0,0.0,0.0,0.0,0.0,0.0,0.0,0.0,0.0,0.0,0.0,0.0,2.939,2.9276,2.9302,2.9653,2.9395,2.9346,2.9686,2.9816,2.9767,2.9487,3.006,0.0,0.0,0.0,0.0,0.0,0.0,0.0,0.0,0.0,0.0,0.0,0.0,0.0,0.0,0.0,0.0,0.0,0.0,0.0,0.0,0.0,0.0,0.0,0.0,0.0,0.0,0.0,0.0,0.0,0.0,0.0,0.0,0.0,0.0,0.0,0.0,0.0,0.0,0.0,0.0,0.0,0.0,0.0,0.0,0.0,0.0,0.0,0.0,0.0,0.0,0.0,0.0,0.0,3.7498,3.7436,3.7398,3.7398,3.731,3.7181,3.7752,3.7645,3.7068,3.7047,0.0,0.0,0.0,0.0,0.0,0.0,0.0,0.0,0.0,0.0,0.0,0.0,0.0,0.0,0.0,0.0,0.0,0.0,0.0,0.0,0.0,0.0,0.0,0.0,3.1914,3.2015,3.2209,0.0,0.0,0.0,0.0,0.0,0.0,0.0,0.0,0.0,0.0,0.0,2.9067,2.8664,2.8619,2.9168,2.9119,2.9317,2.9917,2.9985,2.9966,2.9844,3.0052,3.0138,0.0,0.0,0.0,0.0,0.0,0.0,0.0,0.0,0.0,0.0,0.0,0.0,0.0,0.0,0.0,0.0,0.0,0.0,0.0,0.0,0.0,0.0,0.0,0.0,0.0,0.0,0.0,0.0,0.0,0.0,0.0,0.0,3.7589,3.7618,0.0,0.0,0.0,0.0,0.0,0.0,0.0,0.0,0.0,0.0,0.0,0.0,0.0,3.7509,3.7425,3.7323,3.7513,3.8008,3.7831,3.8055,3.8568,3.8568,3.8568,3.8502,3.7925,0.0,3.6842,3.684,0.0,0.0,0.0,0.0,0.0,0.0,0.0,0.0,0.0,0.0,0.0,0.0,0.0,0.0,0.0,0.0,0.0,0.0,0.0,0.0,0.0,0.0,3.0818,3.0798,3.1153,3.1376,0.0,3.1435,3.1983,3.2001,3.1929,0.0,0.0,0.0,0.0,0.0,0.0,0.0,2.8988,2.9309,2.9617,2.9687,2.9233,2.8968,2.9061,2.9161,2.8983,2.8424,2.9513,2.9914,2.9284,2.9782,0.0,0.0,0.0,0.0,0.0,0.0,0.0,0.0,0.0,0.0,0.0,0.0,0.0,0.0,0.0,0.0,0.0,0.0,0.0,0.0,0.0,0.0,0.0,0.0,0.0,0.0,0.0,0.0,0.0,3.6845,3.6738,3.6461,3.6368,3.6506,0.0,0.0,0.0,0.0,0.0,0.0,0.0,0.0,0.0,3.7215,3.7486,3.7611,3.7611,3.8292,3.8502,3.8252,3.8524,3.8466,3.8153,3.8153,3.8073,3.7954,3.7582,3.7125,3.6587,3.6119,3.5672,3.527,0.0,0.0,0.0,0.0,3.5319,3.4973,3.4864,3.4641,3.4325,3.389,0.0,0.0,0.0,0.0,0.0,0.0,0.0,0.0,0.0,0.0,3.106,3.106,3.1235,3.1336,3.111,3.1411,3.1532,0.0,3.0816,3.0816,3.0816,0.0,0.0,0.0,0.0,2.9704,2.9453,2.9628,2.9804,2.9804,2.9578,2.9428,2.9428,2.946,2.9364,2.907,2.9625,2.9848,2.9513,2.9475,2.9458,0.0,0.0,0.0,0.0,0.0,0.0,0.0,0.0,0.0,0.0,0.0,0.0,0.0,0.0,0.0,0.0,0.0,0.0,0.0,0.0,0.0,0.0,0.0,0.0,0.0,0.0,0.0,0.0,3.6317,3.6264,3.5824,3.5908,3.6161,0.0,0.0,0.0,0.0,0.0,0.0,3.7558,3.7527,3.76,3.7778,3.8273,3.8433,3.8182,3.9138,3.9111,3.8194,3.8605,3.8331,3.7519,3.7519,3.744,3.7319,3.7319,3.6943,3.6327,3.5809,3.5128,3.4434,3.4627,3.4684,3.4646,3.4684,3.4583,3.4369,3.4216,3.405,3.3856,3.3538,3.3286,3.3111,3.3111,0.0,0.0,0.0,0.0,3.2289,3.2289,3.1955,3.1612,3.1612,3.1712,3.1808,3.1637,3.1612,3.1311,0.0,3.0105,3.0005,3.0005,0.0,0.0,0.0,0.0,2.9804,2.9804,2.9804,2.9804,2.9804,2.9804,2.9804,2.9804,2.9804,2.9804,2.9804,2.9804,2.9804,2.9804,2.9377,2.9132,2.9132,0.0,0.0,0.0,0.0,0.0,0.0,0.0,0.0,0.0,0.0,0.0,0.0,0.0,0.0,0.0,0.0,0.0,0.0,0.0,0.0,0.0,0.0,0.0,0.0,0.0,0.0,0.0,0.0,0.0,3.6464,3.6956,0.0,0.0,0.0,0.0,3.7124,3.6921,3.7187,3.8032,3.8475,3.9014,3.9622,4.0233,4.012,3.9224,3.909,3.857,3.7632,3.7476,3.7356,3.7319,3.7319,3.7319,3.7319,3.7319,3.6823,3.6053,3.6333,3.6083,3.554,3.574,3.57,3.556,3.574,3.5333,3.4674,3.4654,3.4256,3.3615,3.2902,3.2129,3.1529,3.1529,3.1529,0.0,0.0,3.1488,3.1468,3.1468,3.1829,3.2144,3.2144,3.2591,3.2864,3.229,3.2144,3.1989,0.0,3.0909,3.0563,3.0563,0.0,2.9804,2.9804,2.9804,2.9804,2.9804,2.9804,2.9804,2.9804,2.9804,2.9804,2.9804,2.9804,2.9804,2.9804,2.9804,2.9804,2.9804,2.9754,2.9754,2.9754,2.9729,0.0,0.0,0.0,0.0,0.0,0.0,0.0,0.0,0.0,0.0,0.0,0.0,0.0,0.0,0.0,0.0,0.0,0.0,0.0,0.0,0.0,0.0,0.0,0.0,0.0,0.0,0.0,0.0,3.6901,3.6959,0.0,3.7718,3.7641,3.7895,3.8782,3.8786,3.9033,3.9738,3.9814,3.9924,4.0177,3.9697,3.9264,3.8912,3.8665,3.8053,3.71,3.7453,3.7307,3.6719,3.6719,3.6719,3.6719,3.6719,3.6308,3.5681,3.5814,3.5532,3.5037,3.5102,3.5081,3.5037,3.5102,3.4951,3.4689,3.4689,3.4538,3.4294,3.404,3.3759,3.3498,3.3498,3.3498,3.3498,3.3498,3.3498,3.3498,3.3498,3.3649,3.3724,3.3395,3.3445,3.3445,3.2893,3.2788,3.2738,3.2537,3.1738,3.111,3.111,3.0959,3.0829,3.0829,3.0829,3.0708,3.0357,3.0306,3.0181,2.9829,2.9804,2.9804,2.9804,2.9804,2.9804,2.9804,2.9804,2.9804,2.9804,2.9804,2.9804,2.9804,2.9804,2.9804,0.0,0.0,0.0,0.0,0.0,0.0,0.0,0.0,0.0,0.0,0.0,0.0,0.0,0.0,0.0,0.0,0.0,0.0,0.0,0.0,0.0,0.0,0.0,0.0,0.0,0.0,3.7345,3.7345,3.7624,3.8012,3.8516,3.8642,3.905,3.995,3.9952,3.9974,4.0128,4.0134,4.0029,3.9698,3.9158,3.8697,3.838,3.8227,3.7647,3.6653,3.7134,3.6989,3.6405,3.6405,3.6405,3.6405,3.6405,3.618,3.5782,3.5782,3.5581,3.5253,3.4853,3.4703,3.4703,3.4703,3.4703,3.4703,3.4703,3.4703,3.4703,3.4703,3.4703,3.4703,3.4703,3.4703,3.4703,3.4703,3.4703,3.4703,3.4703,3.4703,3.4603,3.4248,3.4173,3.4073,3.3721,3.3517,3.3366,3.3366,3.2462,3.1662,3.1662,3.1512,3.1406,3.1406,3.1406,3.126,3.0934,3.0884,3.0733,3.0382,3.0331,3.0331,3.0331,3.0156,3.0156,3.0331,3.0156,3.0156,3.0331,3.0156,3.008,3.008,3.008,3.0156,3.0331,0.0,0.0,0.0,0.0,0.0,0.0,0.0,0.0,0.0,0.0,0.0,0.0,0.0,0.0,0.0,0.0,0.0,0.0,0.0,0.0,0.0,0.0,0.0,3.6899,3.7435,3.7847,3.7847,3.9014,3.9734,3.9496,3.9993,4.0334,4.0344,4.0138,3.9742,3.9057,3.9444,3.9269,3.8363,3.8868,3.872,3.7821,3.7776,3.7315,3.6405,3.6405,3.6405,3.6405,3.6405,3.6405,3.6405,3.6405,3.6405,3.6405,3.643,3.643,3.6306,3.5203,3.4753,3.4753,3.4753,3.4753,3.4753,3.4753,3.4753,3.4753,3.4753,3.4753,3.4753,3.4753,3.4753,3.4753,3.4753,3.4753,3.4753,3.4753,3.4753,3.4753,3.4728,3.4728,3.4728,3.4703,3.4276,3.3922,3.3922,3.3043,3.2269,3.2219,3.1788,3.1436,3.1436,3.1436,0.0,3.1432,3.1411,3.1432,3.1406,3.1406,3.1406,3.1406,3.0934,3.0859,3.1381,3.0909,3.0859,3.1361,3.0909,3.0613,3.0613,3.0613,3.0884,3.1406,0.0,0.0,0.0,0.0,0.0,0.0,0.0,0.0,0.0,0.0,0.0,0.0,0.0,0.0,0.0,0.0,0.0,0.0,0.0,0.0,0.0,0.0,3.7335,3.7306,3.8293,3.9034,3.9034,3.9633,3.9789,3.9187,3.9178,3.9089,3.8894,3.8837,3.8904,3.9129,3.9278,3.9229,3.8966,3.8438,3.8069,3.7821,3.7129,3.6664,3.6405,3.6405,3.6405,3.6405,3.6405,3.6405,3.6405,3.6405,3.6405,3.643,3.6808,3.6984,3.6909,3.6205,3.5929,3.5929,3.5929,3.5929,3.5929,3.5929,3.5929,3.5929,3.5929,3.5929,3.5929,3.5929,3.5929,3.5929,3.5929,3.5929,3.5929,3.5929,3.5929,3.5805,3.538,3.5282,3.5157,3.4778,3.4577,3.4477,3.4477,3.4226,3.3749,3.2989,3.2738,3.2638,3.2638,3.2638,0.0,3.2039,3.1989,3.1838,3.1436,3.1406,3.1406,3.1406,3.126,3.1235,3.1386,3.126,3.1235,3.1386,3.126,3.1185,3.1185,3.1185,3.1235,0.0,0.0,0.0,0.0,0.0,0.0,0.0,0.0,0.0,0.0,0.0,0.0,0.0,0.0,0.0,0.0,0.0,0.0,0.0,0.0,0.0,0.0,3.7281,3.7088,3.708,3.8092,3.9073,3.9692,3.9861,3.9743,3.9335,3.9062,3.8852,3.8689,3.8673,3.8654,3.863,3.8608,3.8428,3.802,3.7707,3.7559,3.7559,3.7221,3.7085,3.7085,3.7085,3.7085,3.7085,3.7085,3.7085,3.7085,3.7085,3.7085,3.711,3.7387,3.7538,0.0,0.0,0.0,0.0,0.0,3.6405,3.6405,3.6405,3.6405,3.6405,3.6405,3.6405,3.6405,3.6405,3.6405,3.6405,3.6405,3.6405,3.6405,3.6405,3.6405,3.6306,3.5956,3.5881,3.5805,3.5479,3.5205,3.5054,3.5054,3.4853,0.0,3.3872,3.3571,3.3366,3.314,3.309,3.2964,3.2616,3.2566,3.2441,3.216,3.211,3.211,3.211,3.1863,0.0,0.0,0.0,3.1738,3.1738,3.1738,0.0,0.0,0.0,3.1863,3.211,0.0,0.0,0.0,3.2059,3.2101,0.0,0.0,0.0,0.0,0.0,0.0,0.0,0.0,0.0,0.0,0.0,0.0,0.0,0.0,0.0,0.0,3.6342,3.6678,3.6619,3.731,3.8331,3.9722,3.9762,3.9585,3.9479,3.9218,3.9015,3.898,3.8957,3.8651,3.7866,0.0,0.0,0.0,0.0,3.7311,3.7311,3.7764,3.8015,3.8015,3.8015,3.8015,3.8015,3.8015,3.8015,3.8015,3.8015,3.8015,3.8015,3.8065,3.814,3.8191,3.8065,3.7713,3.7235,3.6758,3.6582,3.6582,3.6582,0.0,0.0,3.6582,3.6582,3.6581,3.6507,3.6505,3.648,3.643,3.6405,3.6405,3.6405,3.6405,3.6405,3.6405,3.6405,3.6405,3.6405,3.5981,3.5583,3.5583,3.523,3.4853,3.4803,3.4327,3.3822,3.3366,3.3291,3.3266,3.319,3.319,3.3165,3.3115,0.0,0.0,3.309,3.2591,3.2541,3.3065,3.2591,3.2315,3.2315,3.2315,3.2315,3.2315,3.2315,3.2545,3.3047,3.3025,3.2874,3.2615,3.2487,3.2378,0.0,0.0,0.0,0.0,0.0,0.0,0.0,0.0,0.0,0.0,0.0,0.0,0.0,0.0,0.0,3.6061,3.5688,3.5932,3.707,3.7198,3.7546,3.8532,3.9015,3.9003,3.825,3.813,3.7958,3.7605,3.7583,3.7691,3.7956,3.7956,3.7884,3.7688,3.7789,3.7839,3.7839,3.7965,3.8015,3.8015,0.0,0.0,3.8015,3.8015,3.8015,3.8015,3.8015,3.8015,3.804,3.8542,3.8969,3.927,3.8366,3.7939,3.7839,3.7739,3.7688,3.7688,3.7688,3.7688,3.7688,3.7688,3.7688,3.7613,3.7185,3.706,0.0,3.6531,3.6405,3.6405,3.6405,3.6405,3.6405,3.6405,3.6405,3.6405,3.6405,3.6306,3.623,3.623,3.613,3.5929,3.5431,3.4904,3.4502,3.4424,3.4377,3.4226,3.3796,3.3746,3.3571,3.314,3.309,3.309,3.309,3.2989,3.2989,3.309,3.2989,3.2939,3.2939,3.2939,3.2939,3.2939,3.2939,3.2882,3.2788,3.2615,3.24,3.2135,3.2335,3.2291,0.0,0.0,0.0,0.0,0.0,0.0,0.0,0.0,0.0,0.0,0.0,3.772,0.0,0.0,3.6191,3.5088,3.5088,3.5474,3.6318,3.6328,3.6858,3.8546,3.8599,3.8319,3.7841,3.7619,3.7408,3.7209,3.7437,3.7713,3.799,3.8015,3.8015,3.8015,3.8291,3.8442,3.8442,3.8718,3.8843,3.8843,3.8843,3.8843,3.8843,3.8843,3.8843,3.8843,3.8843,3.8843,3.8868,3.9195,3.9472,3.9647,3.9069,3.8693,3.8391,3.8115,3.8015,3.8015,3.8015,3.8015,3.8015,3.8015,3.8015,3.7965,3.7688,3.7588,3.7538,3.7286,3.721,3.721,3.721,3.721,3.721,3.721,3.721,3.7135,3.6859,3.6808,3.6708,3.6431,3.6405,3.6306,3.6006,3.573,3.5353,3.4778,3.4703,3.4603,3.4327,3.4276,3.4198,3.3922,3.3897,3.3796,3.352,3.3266,3.309,3.309,3.309,3.309,3.309,3.309,3.3241,3.3517,3.3517,3.3555,3.3698,3.3476,3.3231,3.2985,3.2985,3.2729,0.0,0.0,0.0,0.0,0.0,0.0,0.0,0.0,3.8435,3.7357,3.7146,3.6649,3.5098,3.5323,3.5393,3.4233,3.4714,3.5318,3.5472,3.5583,3.646,3.8557,3.8031,3.7572,3.7678,3.7388,3.7311,3.7512,3.7914,3.8216,3.8316,3.8341,3.8341,3.8341,3.8818,3.9044,3.9044,3.9471,3.9697,3.9697,3.9697,3.9697,3.9697,3.9697,3.9697,3.9697,3.9697,3.9697,3.9697,3.9697,3.9697,3.9697,3.9697,3.9446,3.8994,3.8517,3.8341,3.8341,3.8341,3.8341,3.8341,3.8341,3.8341,3.8316,3.8216,3.8165,3.814,3.804,3.8015,3.8015,3.8015,3.8015,3.8015,3.8015,3.8015,3.7889,3.7437,3.7361,3.7235,3.6783,3.6708,3.6683,3.6557,3.6556,3.6205,3.5177,3.5052,3.4979,3.4879,3.4853,3.4828,3.4703,3.4703,3.4527,3.4098,3.3646,3.3416,3.3416,3.3416,3.3416,3.3416,3.3416,3.3596,3.4048,3.4048,3.4251,3.4635,3.4386,3.4135,3.3906,3.3751,3.3302,3.9391,3.9247,3.9053,3.8889,3.8833,3.8583,0.0,0.0,3.7107,3.6021,3.5802,3.569,3.5231,3.5231,3.5141,3.4681,3.5072,3.5472,3.5506,3.5956,3.6576,3.7322,3.6895,3.6723,3.7228,3.7208,3.7612,3.8642,3.8768,3.9019,3.9471,3.9496,3.9496,3.9496,3.9572,3.9597,3.9597,3.9672,3.9697,3.9697,3.9697,3.9697,3.9697,3.9697,3.9697,3.9697,3.9697,3.9697,3.9697,3.9697,3.9697,3.9697,3.9697,3.9647,3.9597,3.9521,3.9496,3.9496,3.9496,3.9496,3.9496,3.9496,3.9496,3.9421,3.8944,3.8793,3.8693,3.814,3.8015,3.8015,3.8015,3.8015,3.8015,3.8015,3.8015,3.799,3.7914,3.7914,3.7889,3.7839,3.7814,3.7663,3.721,3.711,3.6909,3.6306,3.6205,3.6029,3.5483,3.5408,3.5232,3.4753,3.4703,3.4678,3.4603,3.4552,3.4527,3.4527,3.4527,3.4527,3.4527,3.4527,3.4552,3.4603,3.4603,3.4562,3.4433,3.4158,3.3906,3.3655,3.3859,3.3693,3.909,3.898,0.0,0.0,3.7881,3.7606,3.6652,3.6436,3.623,3.5535,3.536,3.5252,3.4974,3.4926,3.4971,0.0,3.5357,3.5631,3.5981,3.6507,3.6959,3.7185,3.7286,3.7436,3.7638,3.7989,3.8391,3.8869,3.9195,3.9472,3.9697,3.9697,3.9697,3.9697,3.9697,3.9697,3.9697,3.9697,3.9697,3.9697,3.9697,3.9697,3.9697,3.9697,3.9697,3.9697,3.9697,3.9697,3.9697,3.9697,3.9697,3.9697,3.9697,3.9697,3.9697,3.9697,3.9697,3.9697,3.9697,3.9697,3.9697,3.9697,3.9697,3.9647,3.9421,3.9371,3.9321,3.9044,3.8994,3.8994,3.8994,3.8994,3.8994,3.8994,3.8994,3.8894,3.8592,3.8542,3.8417,3.8065,3.8015,3.7939,3.7688,3.7663,3.7588,3.7362,3.6808,3.6306,3.6056,3.6006,3.5931,3.5705,3.538,3.518,3.518,3.4879,3.4703,3.4703,3.4703,3.4703,3.4703,3.4703,3.4853,3.518,3.518,3.5284,3.5564,3.5284,3.5027,3.4744,3.4702,3.451,3.8527,0.0,0.0,3.703,3.687,3.6793,3.5913,3.5818,3.5752,3.5193,3.5055,3.5043,3.4942,3.4929,3.5104,3.5656,3.5757,3.5932,3.6532,3.6959,3.7336,3.7637,3.799,3.8316,3.8442,3.8743,3.8969,3.912,3.9471,3.9697,3.9697,3.9697,3.9697,3.9697,3.9697,3.9697,3.9697,3.9697,3.9697,3.9697,3.9697,3.9697,3.9697,3.9697,3.9697,3.9697,3.9697,3.9697,3.9697,3.9697,3.9697,3.9697,3.9697,3.9697,3.9697,3.9697,3.9697,3.9697,3.9697,3.9697,3.9697,3.9697,3.9697,3.9697,3.9697,3.9697,3.9697,3.9697,3.9697,3.9697,3.9697,3.9697,3.9697,3.9697,3.9697,3.9597,3.9195,3.912,3.8994,3.8542,3.8467,3.8417,3.8266,3.8241,3.8191,3.804,3.7361,3.6833,3.6833,3.6708,3.6557,3.643,3.6006,3.5757,3.5757,3.538,3.5177,3.5177,3.5177,3.5177,3.5177,3.5177,3.5353,3.5732,3.5757,3.5934,3.6287,3.6176,3.5962,3.5697,3.56,3.5428,3.7587,0.0,3.6991,3.5902,3.6083,3.6296,3.5437,3.5621,3.5755,3.4878,3.4723,3.4851,3.5382,3.5483,3.5682,3.6256,3.638,3.6557,3.711,3.721,3.7612,3.8718,3.8869,3.9095,0.0,3.9195,3.912,3.9622,3.9697,3.9697,3.9697,3.9697,3.9697,3.9697,3.9697,3.9697,3.9697,3.9697,3.9697,3.9697,3.9697,3.9697,3.9697,3.9697,3.9697,3.9697,3.9697,3.9697,3.9697,3.9697,3.9697,3.9697,3.9697,3.9697,3.9697,3.9697,3.9697,3.9697,3.9697,3.9697,3.9697,3.9697,3.9697,3.9697,3.9697,3.9697,3.9697,3.9697,3.9697,3.9697,3.9697,3.9697,3.9697,3.9697,3.9697,3.9697,3.9672,3.9672,3.9672,3.9647,3.9647,3.9471,3.8969,3.8869,3.8668,3.809,3.799,3.7965,3.7965,3.7487,3.6984,3.6455,3.638,3.638,3.638,3.6355,3.6355,3.6355,3.6355,3.6355,3.6355,3.6355,3.6355,3.638,3.638,3.6263,3.6003,3.6258,3.6235,3.5989,3.6248,3.6362,3.6766,0.0,3.6171,3.55,3.5494,3.5504,3.4988,3.4997,3.5161,3.52,3.5232,3.5406,3.5981,3.6081,3.6155,3.638,3.6683,3.6984,3.7185,3.7864,3.8467,3.8843,3.922,0.0,0.0,0.0,0.0,3.9672,3.9697,3.9697,3.9697,3.9697,3.9697,3.9697,3.9697,3.9697,3.9697,3.9697,3.9697,3.9697,3.9697,3.9697,3.9697,3.9697,3.9697,3.9697,3.9697,3.9697,3.9697,3.9697,3.9697,3.9697,3.9697,3.9697,3.9697,3.9697,3.9697,3.9697,3.9697,3.9697,3.9697,3.9697,3.9697,3.9697,3.9697,3.9697,3.9697,3.9697,3.9697,3.9697,3.9697,3.9697,3.9697,3.9697,3.9697,3.9697,3.9697,3.9697,3.9697,3.9697,3.9697,3.9647,3.9472,3.9446,3.9346,3.9145,3.8492,3.8015,3.8015,3.7839,3.7663,3.7462,3.7462,3.7462,3.7462,3.7462,3.7462,3.7462,3.7462,3.7462,3.7462,3.7462,3.7462,3.7462,3.7292,3.717,3.7072,3.6973,3.6773,3.6523,3.6618,3.6563,3.5981,3.5791,3.5556,3.5133,3.5156,3.5237,3.504,3.513,3.5403,3.5732,3.5807,3.5956,3.6331,3.6405,3.6457,3.6658,3.6984,3.7361,3.7763,3.8441,3.8969,3.917,3.9471,3.9697,0.0,0.0,0.0,3.9697,3.9697,3.9697,3.9697,3.9697,3.9697,3.9697,3.9697,3.9697,3.9697,3.9697,3.9697,3.9697,3.9697,3.9697,3.9697,3.9697,3.9697,3.9697,3.9697,3.9697,3.9697,3.9697,3.9697,3.9697,3.9697,3.9697,3.9697,3.9697,3.9697,3.9697,3.9697,3.9697,3.9697,3.9697,3.9697,3.9697,3.9697,3.9697,3.9697,3.9697,3.9697,3.9697,3.9697,3.9697,3.9697,3.9697,3.9697,3.9697,3.9697,3.9697,3.9697,3.9697,3.9697,3.9697,3.9697,3.9697,3.9697,3.9697,3.9069,3.8542,3.8341,3.8316,3.8241,3.804,3.8015,3.8015,3.8015,3.8015,3.8015,3.8015,3.8015,3.8015,3.8015,3.8015,3.8015,3.8015,3.7742,3.7543,3.7468,3.7365,3.7209,3.6955,3.7148,3.7144,3.5284,3.517,3.509,3.4802,3.5107,3.5508,3.5533,3.5981,3.6405,3.6405,3.6405,3.6405,0.0,0.0,3.6581,3.711,3.7235,3.7637,3.8743,3.8919,3.9145,0.0,0.0,0.0,0.0,0.0,0.0,3.9697,0.0,3.9697,3.9697,3.9697,3.9697,3.9697,3.9697,3.9697,3.9697,3.9697,3.9697,3.9697,3.9697,3.9697,3.9697,3.9697,3.9697,3.9697,3.9697,3.9697,3.9697,3.9697,3.9697,3.9697,3.9697,3.9697,3.9697,3.9697,3.9697,3.9697,3.9697,3.9697,3.9697,3.9697,3.9697,3.9697,3.9697,3.9697,3.9697,3.9697,3.9697,3.9697,3.9697,3.9697,3.9697,3.9697,3.9697,3.9697,3.9697,3.9697,3.9697,3.9697,3.9697,3.9697,3.9697,3.9697,3.9697,3.9697,3.9697,3.9522,3.8994,3.8944,3.8718,3.814,3.809,3.809,3.809,3.809,3.809,3.809,3.809,3.809,3.809,3.809,3.8065,3.8065,3.7792,3.7517,3.7266,3.7476,3.7488,3.7252,3.776,3.8,3.4498,3.4637,3.4894,3.5225,3.5382,3.5631,3.6056,3.6281,3.6405,3.6405,3.6405,3.6405,0.0,0.0,0.0,3.711,3.7538,0.0,3.8793,3.9245,0.0,3.9672,0.0,3.9697,3.9697,3.9697,0.0,0.0,3.9697,3.9697,3.9697,3.9697,3.9697,3.9697,3.9697,3.9697,3.9697,3.9697,3.9697,3.9697,3.9697,3.9697,3.9697,3.9697,3.9697,3.9697,3.9697,3.9697,3.9697,3.9697,3.9697,3.9697,3.9697,3.9697,3.9697,3.9697,3.9697,3.9697,3.9697,3.9697,3.9697,3.9697,3.9697,3.9697,3.9697,3.9697,3.9697,3.9697,3.9697,3.9697,3.9697,3.9697,3.9697,3.9697,3.9697,3.9697,3.9697,3.9697,3.9697,3.9697,3.9697,3.9697,3.9697,3.9697,3.9697,3.9697,3.9697,3.9647,3.9496,3.9496,3.9421,3.927,3.927,3.927,3.927,3.927,3.927,3.927,3.927,3.927,3.927,3.927,3.9194,3.8964,3.8655,3.8345,3.8085,3.7946,3.786,3.7808,3.7952,3.8,3.4631,3.4919,3.5205,3.5732,3.5906,3.5981,3.6306,3.6405,3.6405,3.6405,3.6405,0.0,3.6405,3.6582,0.0,0.0,0.0,0.0,3.917,3.9522,3.9697,0.0,3.9697,0.0,3.9697,3.9697,3.9697,0.0,3.9697,3.9697,3.9697,3.9697,3.9697,3.9697,3.9697,3.9697,3.9697,3.9697,3.9697,3.9697,3.9697,3.9697,3.9697,3.9697,3.9697,3.9697,0.0,3.9697,3.9697,3.9697,3.9697,3.9697,3.9697,3.9697,3.9697,3.9697,3.9697,3.9697,3.9697,3.9697,3.9697,3.9697,3.9697,3.9697,3.9697,3.9697,3.9697,3.9697,3.9697,3.9697,3.9697,3.9697,3.9697,3.9697,3.9697,3.9697,3.9697,3.9697,3.9697,3.9697,3.9697,3.9697,3.9697,3.9697,3.9697,3.9697,3.9697,3.9697,3.9697,3.9697,3.9697,3.9697,3.9697,3.9697,3.9697,3.9697,3.9697,3.9697,3.9594,3.9517,3.9517,3.9362,3.9232,3.9076,3.8788,3.8552,3.8421,3.8133,3.8,3.8,3.8,3.8,3.5232,3.5558,3.5757,3.6256,3.6405,3.6405,3.6405,3.6405,3.6405,3.6405,0.0,3.6405,3.6405,3.6833,3.7386,3.7914,0.0,3.9095,3.9622,3.9697,3.9697,3.9697,3.9697,3.9697,3.9697,3.9697,3.9697,3.9697,3.9697,3.9697,3.9697,3.9697,3.9697,3.9697,3.9697,3.9697,3.9697,3.9697,3.9697,3.9697,3.9697,3.9697,3.9697,3.9697,3.9697,3.9697,3.9697,3.9697,3.9697,3.9697,3.9697,3.9697,3.9697,3.9697,3.9697,3.9697,3.9697,3.9697,3.9697,3.9697,3.9697,3.9697,3.9697,3.9697,3.9697,3.9697,3.9697,3.9697,3.9697,3.9697,3.9697,3.9697,3.9697,3.9697,3.9697,3.9697,3.9697,3.9697,3.9697,3.9697,3.9697,3.9697,3.9697,3.9697,3.9697,3.9697,3.9697,3.9697,3.9697,3.9697,3.9697,3.9697,3.9697,3.9697,3.9697,3.9697,3.9697,3.9697,3.9465,3.9336,3.9284,3.9024,3.8815,3.8736,3.8526,3.8394,3.8368,3.8106,3.8,3.8,3.8,3.8,3.5458,3.5857,3.6256,3.638,3.6405,3.6405,3.6405,3.6405,0.0,0.0,3.6405,3.6405,3.6405,3.6833,3.7386,3.7914,3.8517,3.9095,3.9622,3.9697,3.9697,0.0,3.9697,3.9697,3.9697,3.9697,0.0,0.0,3.9697,3.9697,3.9697,3.9697,3.9697,3.9697,3.9697,3.9697,3.9697,3.9697,3.9697,3.9697,3.9697,3.9697,3.9697,3.9697,3.9697,3.9697,3.9697,0.0,3.9697,3.9697,3.9697,3.9697,3.9697,3.9697,3.9697,3.9697,3.9697,3.9697,3.9697,3.9697,3.9697,3.9697,3.9697,3.9697,3.9697,3.9697,3.9697,3.9697,3.9697,3.9697,3.9697,3.9697,3.9697,3.9697,3.9697,3.9697,3.9697,3.9697,3.9697,3.9697,3.9697,3.9697,3.9697,3.9697,3.9697,3.9697,3.9697,3.9697,3.9697,3.9697,3.9697,3.9697,3.9697,3.9697,3.9697,3.9697,3.9697,3.9697,3.9671,3.9542,3.931,3.9232,3.8971,3.85,3.8421,3.8291,3.8053,3.8027,3.8,3.8,3.8,3.8,3.5881,3.618,3.6405,3.6405,3.6405,3.6405,3.6405,0.0,0.0,0.0,3.6405,3.6505,3.6758,3.7236,0.0,3.8391,3.8944,3.9421,3.9647,3.9697,0.0,3.9697,3.9697,3.9697,0.0,3.9697,3.9697,3.9697,3.9697,3.9697,3.9697,3.9697,3.9697,3.9697,3.9697,3.9697,3.9697,3.9973,4.0124,4.0124,4.04,4.0524,4.0524,4.0524,4.0524,4.0524,4.0524,4.0524,4.0524,4.0524,4.0524,4.0524,4.0524,4.0524,4.0524,4.0524,4.0524,4.0524,4.0524,4.0524,4.0524,4.0524,4.0149,3.9697,3.9697,3.9697,3.9697,3.9697,3.9697,3.9697,3.9697,3.9697,3.9697,3.9697,3.9697,3.9697,3.9697,3.9697,3.9697,3.9697,3.9697,3.9697,3.9697,3.9697,3.9697,3.9697,3.9697,3.9697,3.9697,3.9697,3.9697,3.9697,3.9697,3.9697,3.9697,3.9697,3.9645,3.9516,3.9335,3.9102,3.8841,3.871,3.85,3.8185,3.821,3.8133,3.8,3.8,3.8,3.8,3.8,3.8,3.6256,3.6405,3.6405,3.6405,3.6405,3.6405,3.6405,3.6405,0.0,0.0,3.6505,3.6708,3.7135,0.0,3.8341,0.0,3.9346,3.9697,3.9697,3.9697,3.9697,0.0,3.9697,0.0,3.9697,3.9697,0.0,3.9848,3.9973,3.9948,3.9697,3.9798,3.9873,3.9873,3.9973,4.0049,4.0049,4.0449,4.0675,4.0675,4.1102,4.1302,4.1302,4.1302,4.1302,4.1302,4.1302,4.1302,4.1302,4.1302,4.1302,4.1302,4.1302,4.1302,4.1302,4.1302,4.1302,4.1302,4.1302,4.1302,4.1302,4.1302,4.0725,4.0049,4.0049,3.9973,3.9873,3.9873,3.9798,3.9697,3.9697,3.9697,3.9697,3.9697,3.9798,3.9848,3.9722,3.9798,3.9848,3.9722,3.9697,3.9697,3.9697,3.9697,3.9697,3.9697,3.9697,3.9697,3.9697,3.9697,3.9671,3.962,3.9671,3.9697,3.9697,3.9697,3.9594,3.931,3.905,3.8762,3.8421,3.8185,3.8053,3.8,3.8,3.8,3.8,3.8,3.8,3.8,3.8,3.8,3.638,3.6405,3.6405,3.6405,3.6405,3.6405,3.6405,0.0,0.0,3.6405,3.6783,3.716,3.721,3.809,3.8843,0.0,0.0,3.9697,3.9697,3.9697,3.9697,3.9697,0.0,0.0,3.9697,3.9697,3.9898,4.04,4.0876,4.0725,3.9747,4.0174,4.0424,4.0424,4.0901,4.1152,4.1152,4.1202,4.1227,4.1227,4.1277,4.1302,4.1302,4.1302,4.1302,4.1302,4.1302,4.1302,0.0,4.1302,4.1302,4.1302,4.1302,4.1302,4.1302,4.1302,4.1302,4.1302,4.1302,4.1302,4.1302,4.1302,4.1225,4.1152,4.1152,4.08,4.0424,4.0424,4.0074,3.9697,3.9697,3.9697,3.9697,3.9697,4.0074,4.03,3.9798,4.0099,4.03,3.9798,3.9697,3.9697,3.9697,3.9697,3.9697,3.9697,3.9697,3.9697,3.9697,3.9697,3.962,3.9362,3.9568,3.9697,3.9697,3.9697,3.9594,3.931,3.9258,3.8998,3.8421,3.8394,3.8238,3.8,3.8,3.8,3.8,3.8,3.8,3.8,3.8,3.8,3.6405,3.6405,3.6405,3.6405,3.6405,3.6405,3.6405,0.0,3.6505,3.6808,3.706,3.7411,3.809,3.8592,3.8994,3.9346,3.9546,0.0,3.9697,3.9697,3.9823,4.0149,3.9898,0.0,0.0,0.0,4.0399,4.0951,4.1202,4.1127,4.0675,4.0876,4.0976,4.0976,4.1202,4.1302,4.1302,4.1656,4.1831,4.1831,4.2158,4.2333,4.2333,4.2333,4.2333,4.2333,4.2333,4.2333,0.0,4.2333,4.2333,4.2333,4.2333,4.2333,4.2333,4.2333,4.2333,4.2333,4.2333,4.2333,4.2333,4.2333,4.2333,4.2208,4.1503,4.1152,4.0976,4.0976,4.0826,4.065,4.065,4.065,4.065,4.065,4.0826,4.0926,4.07,4.0826,4.0926,4.07,4.065,4.065,4.065,4.065,4.065,4.065,4.065,4.065,4.065,4.0374,4.007,3.9807,3.9587,3.9387,3.918,3.9154,3.9024,3.8788,3.8762,3.8579,3.8183,3.8159,3.8106,3.8,3.8,3.8,3.8,3.8,3.8,3.8,3.8,3.8,3.6405,3.6405,3.6405,3.6405,3.6405,3.6455,0.0,0.0,3.6783,3.7336,3.7587,3.7939,3.8743,3.9019,3.9271,3.9622,3.9697,3.9697,3.9697,3.9697,3.9898,0.0,0.0,4.03,0.0,4.1128,4.1153,4.1555,4.1704,4.1804,4.1804,4.1804,4.1729,4.1553,4.1704,4.1804,4.1804,4.2235,4.2436,4.2436,4.2813,4.3014,4.3014,4.3014,4.3014,4.3014,4.3014,4.3014,0.0,4.3014,4.3014,4.3014,4.3014,4.3014,4.3014,4.3014,4.3014,4.3014,4.3014,4.3014,4.3014,4.3014,4.3014,4.2864,4.2057,4.1679,4.1553,4.1553,4.1428,4.1302,4.1302,4.1302,4.1302,4.1302,4.1428,4.1503,4.1352,4.1428,4.1503,4.1327,4.1302,4.1302,4.1302,4.1302,4.1302,4.1302,4.1302,4.1302,4.1302,4.0976,4.0592,4.0246,3.9873,3.942,3.8839,3.8936,3.8928,3.864,3.8785,3.8749,3.8482,3.8455,3.8455,3.8455,3.8455,3.8455,3.8455,3.8455,3.8455,3.8455,3.8455,3.8455,3.6405,3.6405,3.6405,3.6405,3.6405,3.6556,0.0,3.721,3.7337,3.7889,3.8492,3.8894,3.8894,3.9346,3.9697,3.9697,3.9697,3.9697,3.9697,3.9697,0.0,0.0,0.0,4.07,4.1252,4.1858,4.2187,4.2213,4.2688,0.0,4.2989,4.2989,4.2738,4.2213,4.2713,4.2989,4.2989,4.2989,4.2989,4.2989,4.3014,4.3014,4.3014,4.3014,4.3014,4.3014,4.3014,4.3014,0.0,4.3014,4.3014,4.3014,4.3014,4.3014,4.3014,4.3014,4.3014,4.3014,4.3014,4.3014,4.3014,4.3014,4.3014,4.3014,4.2989,4.2612,4.2213,4.2213,4.1756,4.1302,4.1302,4.1302,4.1302,4.1302,4.1756,4.2034,4.1428,4.1756,4.2009,4.1428,4.1302,4.1302,4.1302,4.1302,4.1302,4.1302,4.1302,4.1302,4.1302,4.1302,4.1087,4.0542,4.0488,4.0045,3.8913,3.9279,3.9467,3.9199,3.9685,3.9864,3.9585,3.9585,3.9585,3.9585,3.9585,3.9585,3.9585,3.9585,3.9585,3.9585,3.9585,3.9585,3.6405,3.6405,3.6405,3.6405,3.6681,3.6984,3.716,3.7462,3.7914,3.8517,3.8768,3.9019,3.9396,3.9572,3.9697,3.9697,3.9697,3.9697,0.0,0.0,0.0,4.0976,4.1731,4.2133,0.0,0.0,4.2738,4.2738,4.2914,4.3014,4.3014,4.3014,4.2914,4.2738,4.2914,4.3014,4.3014,4.3014,4.3014,4.3014,4.3014,4.3014,4.3014,4.3014,4.3014,4.3014,4.3014,4.3014,4.3014,4.3014,4.3014,4.3014,4.3014,4.3014,4.3014,4.3014,4.3014,4.3014,4.3014,4.3014,4.3014,4.3014,4.3014,4.3014,4.3014,4.2889,4.2738,4.2738,4.2612,4.2459,4.2459,4.2459,4.2459,4.2459,4.2612,4.2688,4.2484,4.2612,4.2688,4.2484,4.2459,4.2459,4.2459,4.2459,4.2459,4.2459,4.2459,4.2459,4.2459,4.1941,4.1442,4.1081,4.0492,3.9934,3.9401,3.9494,3.9564,3.9482,3.9651,3.9692,3.9609,3.9609,3.9609,3.9609,3.9609,3.9609,3.9609,3.9609,3.9609,3.9609,3.9609,3.9609,0.0,3.6405,3.6455,3.6632,3.6959,0.0,3.7738,3.8115,3.8492,3.9095,3.9195,3.9296,3.9622,3.9697,3.9697,3.9697,3.9697,0.0,0.0,0.0,0.0,4.1555,0.0,0.0,0.0,4.2788,4.3014,4.3014,4.3014,4.3014,4.3014,4.3014,4.3014,4.3014,4.3014,4.3014,4.3014,4.3014,4.3014,4.3014,4.3014,4.3014,4.3014,4.3014,4.3014,4.3014,4.3014,4.3014,0.0,4.3014,4.3014,4.3014,4.3014,4.3014,4.3014,4.3014,4.3014,4.3014,4.3014,4.3014,4.3014,4.3014,4.3014,4.3014,4.3014,4.3014,4.3014,4.3014,4.3014,4.3014,4.3014,4.3014,4.3014,4.3014,4.3014,4.3014,4.3014,4.3014,4.3014,4.3014,4.3014,4.3014,4.3014,4.3014,4.3014,4.3014,4.3014,4.3014,4.3014,4.2435,4.1905,4.1622,4.0996,4.0498,4.0238,4.0018,3.9898,3.9898,4.009,4.0186,4.0186,4.0186,4.0186,4.0186,4.0186,4.0186,4.0186,4.0186,4.0186,4.0186,4.0186,4.0186,0.0,3.6455,0.0,0.0,0.0,0.0,3.8668,3.8919,0.0,3.9597,3.9697,3.9697,3.9697,3.9697,3.9697,3.9697,3.9697,0.0,0.0,4.0275,0.0,0.0,4.2688,0.0,4.3014,4.3014,4.3014,4.3014,4.3014,4.3014,4.3014,4.3014,4.3014,4.3014,4.3014,4.3014,4.3014,4.3014,4.3014,4.3014,4.3014,4.3014,4.3014,4.3014,4.3014,0.0,4.3014,4.3014,4.3014,4.3014,4.3014,4.3014,4.3014,4.3014,4.3014,4.3014,4.3014,4.3014,4.3014,4.3014,4.3014,4.3014,4.3014,4.3014,4.3014,4.3014,4.3014,4.3014,4.3014,4.3014,4.3014,4.3014,4.3014,4.3014,4.3014,4.3014,4.3014,4.3014,4.3014,4.3014,4.3014,4.3014,4.3014,4.3014,4.3014,4.3014,4.3014,4.2986,4.2986,4.2678,4.2369,4.2086,4.1773,4.1463,4.1201,4.0739,4.0451,4.0451,4.0908,4.1201,4.1201,4.1201,4.1201,4.1201,4.1201,4.1201,4.1201,4.1201,4.1201,4.1201,4.1201,4.1201,3.6908,0.0,3.7034,3.7185,3.7864,3.8567,0.0,3.922,3.9546,3.9672,0.0,3.9697,3.9697,3.9697,3.9697,3.9697,0.0,0.0,4.0249,0.0,0.0,4.2738,4.2914,4.3014,4.3014,4.3014,4.3014,4.3014,4.3014,4.3014,4.3014,4.3014,4.3014,4.3014,4.3014,4.3014,4.3014,4.3014,4.3014,4.3014,4.3014,4.3014,4.3014,4.3014,4.3014,4.3014,4.3014,4.3014,4.3014,4.3014,4.3014,4.3014,4.3014,4.3014,4.3014,4.3014,4.3014,4.3014,4.3014,4.3014,4.3014,4.3014,4.3014,4.3014,4.3014,4.3014,4.3014,4.3014,4.3014,4.3014,4.3014,4.3014,4.3014,4.3014,4.3014,4.3014,4.3014,4.3014,4.3014,4.3014,4.3014,4.3014,4.3014,4.3014,4.3014,4.3014,4.3014,4.293,4.2653,4.2369,4.2057,4.1749,4.1459,4.1258,4.1201,4.1076,4.1033,4.1033,4.1153,4.1201,4.1201,4.1201,4.1201,4.1201,4.1201,4.1201,4.1201,4.1201,4.1201,4.1201,4.1201,4.1201,3.7084,3.721,3.7336,3.7838,3.8441,0.0,0.0,0.0,0.0,0.0,0.0,3.9697,3.9697,3.9697,0.0,0.0,3.9697,0.0,0.0,0.0,4.2386,4.2939,4.3014,4.3014,0.0,4.3014,4.3014,4.3014,4.3014,4.3014,4.3014,4.3014,4.3014,4.3014,4.3014,4.3014,4.3014,4.3014,4.3014,4.3014,4.3014,4.3014,4.3014,4.3014,4.3014,4.3014,4.3014,4.314,4.3363,4.3363,4.3514,4.374,4.374,4.374,4.374,4.374,4.374,4.374,4.374,4.374,4.374,4.374,4.374,4.374,4.374,4.374,4.3639,4.314,4.3014,4.3014,4.3014,4.3014,4.3014,4.3014,4.3014,4.3014,4.3014,4.3014,4.2958,4.2818,4.2765,4.2734,4.2594,4.2594,4.2594,4.2594,4.2594,4.2509,4.234,4.2057,4.1802,4.1635,4.1373,4.1201,4.1201,4.1201,4.1201,4.1201,4.1201,4.1201,4.1201,4.1201,4.1201,4.1201,4.1201,4.1201,4.1201,4.1201,4.1201,4.1201,4.1201,4.1201,3.7233,3.7411,3.7688,3.8668,3.8969,0.0,0.0,0.0,0.0,0.0,0.0,0.0,0.0,3.9697,0.0,0.0,0.0,0.0,4.1302,4.1932,4.2487,4.2939,4.3014,0.0,4.3014,4.3014,4.3014,4.3014,4.3014,4.3014,4.3014,4.3014,4.3039,4.314,4.314,4.3165,4.324,4.309,4.3014,4.3014,4.309,4.314,4.3112,4.3215,4.3237,4.3237,0.0,0.0,4.3915,4.3915,4.4192,4.4589,4.4589,4.4589,4.4589,4.4589,4.4589,4.4589,4.4589,4.4589,4.4589,4.4589,4.4589,4.4589,4.4589,4.4589,4.4389,4.3489,4.3237,4.3237,4.3237,4.3237,4.3237,4.3237,4.3237,4.3237,4.3237,4.3237,4.3153,4.2818,4.2758,4.2648,4.229,4.2233,4.2209,4.211,4.211,4.2082,4.2029,4.1777,4.1578,4.1549,4.1344,4.1201,4.1201,4.1201,4.1201,4.1201,4.1201,4.1201,4.1201,4.1201,4.1201,4.1201,4.1201,4.1201,4.1201,4.1201,4.1201,4.1201,4.1201,4.1201,3.7739,3.8241,3.8668,3.8843,3.9245,0.0,0.0,0.0,0.0,0.0,0.0,0.0,0.0,3.9697,3.9697,0.0,0.0,4.1277,0.0,0.0,4.2914,4.2989,0.0,4.3014,4.3014,4.3014,4.3014,4.3014,4.3014,4.3014,4.3014,4.3014,4.3215,4.3664,4.3689,4.389,4.4338,4.3438,4.3014,4.3014,4.3463,4.3689,4.3689,4.4166,4.4338,4.4338,0.0,4.4389,4.4464,4.4464,4.4514,4.4589,4.4589,4.4589,4.4589,4.4589,4.4589,4.4589,4.4589,4.4589,4.4589,4.4589,4.4589,4.4589,4.4589,4.4589,4.4564,4.4389,4.4338,4.4338,4.4338,4.4338,4.4338,4.4338,4.4338,4.4338,4.4338,4.4338,4.4252,4.3987,4.3929,4.3693,4.293,4.2799,4.2627,4.2184,4.211,4.2001,4.172,4.1635,4.1521,4.1287,4.1201,4.1201,4.1201,4.1201,4.1201,4.1201,4.1201,4.1201,4.1201,4.1201,4.1201,4.1201,4.1201,4.1201,4.1201,4.1201,4.1201,4.1201,4.1201,4.1201,3.8241,3.8693,3.8969,3.9271,0.0,0.0,0.0,0.0,0.0,0.0,0.0,0.0,0.0,0.0,3.9798,4.0099,0.0,4.1503,4.211,4.2663,4.3014,0.0,0.0,4.3014,4.3014,4.3014,4.3014,4.3014,4.3014,4.314,4.3413,4.3413,4.3689,4.4242,4.4242,4.4338,4.4589,4.4116,4.3865,4.3865,4.4116,4.4242,4.4242,4.4489,4.4589,4.4589,0.0,4.4765,4.5095,4.5095,4.5271,4.5518,4.5518,4.5518,4.5518,4.5518,4.5518,4.5518,4.5518,4.5518,4.5518,4.5518,4.5518,4.5518,4.5518,4.5518,4.5518,4.5518,4.5066,4.4589,4.4589,4.4589,4.4589,4.4589,4.4589,4.456,4.4411,4.4382,4.4236,4.3738,4.3649,4.3487,4.2949,4.2841,4.2768,4.2525,4.2477,4.2418,4.2277,4.2248,4.219,4.2067,4.1803,4.1634,4.1634,4.1369,4.1201,4.1201,4.1201,4.1201,4.1201,4.1201,4.1201,4.1201,4.1201,4.1201,4.1201,4.1201,4.1201,4.1201,4.1201,4.1201,3.8668,3.8994,3.9195,3.9597,0.0,0.0,0.0,0.0,0.0,0.0,0.0,0.0,0.0,3.9798,0.0,4.0777,4.1227,4.1731,4.2286,4.2738,4.3014,4.3014,4.3014,4.3014,4.3014,4.3014,4.3014,4.3014,4.314,4.3363,4.379,4.3915,4.4242,4.4765,4.4819,4.4865,4.4991,4.4991,4.4865,4.4589,4.474,4.4819,4.4844,4.4941,4.4991,4.4991,4.4991,4.5271,4.5673,4.5673,4.5924,4.6301,4.6301,4.6301,4.6301,4.6301,4.6301,4.6301,4.6301,4.6301,4.6301,4.6301,4.6301,4.6301,4.6301,4.6301,4.6301,4.6301,4.5668,4.4991,4.4991,4.4991,4.4991,4.4991,4.4932,4.4815,4.4634,4.4516,4.4279,4.3684,4.3565,4.3456,4.3012,4.2958,4.2934,4.2813,4.2789,4.2789,4.2789,4.2789,4.2789,4.2789,4.2428,4.2188,4.2188,4.1803,4.1586,4.1586,4.1345,4.1201,4.1201,4.1201,4.1201,4.1201,4.1201,4.1201,4.1201,4.1201,4.1201,4.1201,4.1201,4.1201,3.8869,3.9271,3.9647,3.9697,3.9697,0.0,3.9697,3.9697,0.0,3.9697,0.0,0.0,0.0,4.0124,4.0802,4.1884,4.2112,4.2311,4.2864,0.0,4.3014,4.3014,4.3014,4.3014,4.3014,4.3014,4.3014,4.3014,4.3463,4.3765,4.379,4.4263,4.4844,4.5422,4.5422,4.5673,4.6175,4.62,4.5673,4.4614,4.5171,4.5422,4.5447,4.5949,4.62,4.62,4.62,4.62,4.625,4.625,4.6276,4.6301,4.6301,4.6301,4.6301,4.6301,4.6301,4.6301,4.6301,4.6301,4.6301,4.6301,4.6301,4.6301,4.6301,4.6301,4.6301,4.6301,4.625,4.62,4.62,4.62,4.62,4.62,4.5935,4.5693,4.5693,4.5421,4.5116,4.4749,4.4688,4.4426,4.3584,4.3457,4.3289,4.2862,4.2789,4.2789,4.2789,4.2789,4.2789,4.2789,4.2765,4.2741,4.2741,4.2693,4.2669,4.2669,4.1755,4.1201,4.1201,4.1201,4.1201,4.1201,4.1201,4.1201,4.1201,4.1201,4.1201,4.1201,4.1201,4.1201,3.9321,3.9546,3.9697,3.9697,3.9697,0.0,0.0,3.9697,3.9697,3.9697,3.9973,0.0,0.0,0.0,4.1252,4.206,4.2213,4.2414,4.2939,4.3014,4.3014,4.3014,4.3014,4.3014,4.3014,4.3014,4.314,4.3463,4.3689,4.4116,4.4819,4.5045,4.5422,4.5974,4.5999,4.61,4.6301,4.6301,4.607,4.5643,4.5899,4.5999,4.5999,4.6225,4.6301,4.6301,4.6301,4.6301,4.6301,4.6301,4.6301,4.6301,4.6301,4.6301,4.6301,4.6301,4.6301,4.6301,4.6301,4.6301,4.6301,4.6301,4.6301,4.6301,4.6301,4.6301,4.6301,4.6301,4.6301,4.6301,4.6301,4.6301,4.624,4.6029,4.5878,4.5696,4.527,4.5086,4.4902,4.4563,4.4501,4.4367,4.4058,4.4003,4.3931,4.377,4.3715,4.3715,4.3715,4.3715,4.3715,4.3715,4.3433,4.3126,4.2813,4.2789,4.2789,4.2789,4.2404,4.2188,4.2188,4.2188,4.2188,4.2188,4.2188,4.2043,4.1706,4.1706,4.1538,4.1201,4.1201,4.1201,3.9597,3.9697,3.9697,0.0,0.0,0.0,3.9923,3.9948,3.9948,3.9948,4.0374,0.0,0.0,0.0,0.0,0.0,4.2436,4.2587,4.2964,4.3014,4.3014,4.3014,4.3014,4.3014,4.3014,4.3165,4.3388,4.3765,4.4141,4.4669,4.5447,4.5648,4.5924,4.6301,4.6301,4.6301,4.6301,4.6301,4.6301,4.6301,4.6301,4.6301,4.6301,4.6301,4.6301,4.6301,4.6301,4.6301,4.6301,4.6301,4.6301,4.6301,4.6301,4.6301,4.6301,4.6301,4.6301,4.6301,4.6301,4.6301,4.6301,4.6301,4.6301,4.6301,4.6301,4.6301,4.6271,4.615,4.612,4.612,4.5999,4.6059,4.6059,4.5726,4.5574,4.5361,4.4902,4.4717,4.4563,4.4347,4.4285,4.4285,4.4285,4.4285,4.4285,4.4285,4.4285,4.4285,4.4285,4.4285,4.4285,4.4285,4.3979,4.3625,4.3289,4.3265,4.3265,4.3265,4.3265,4.315,4.2813,4.2789,4.2789,4.2789,4.2789,4.2621,4.226,4.226,4.2067,4.1706,4.1706,4.1706,3.9697,3.9697,3.9697,0.0,0.0,0.0,4.0374,4.0499,4.0499,4.0499,0.0,4.1478,4.2085,0.0,0.0,4.2914,4.3014,4.3014,4.3014,4.3014,4.3014,4.3014,4.3014,4.3014,4.3014,4.3489,4.3815,4.3815,4.4844,4.5497,4.5497,4.6024,4.6301,4.6301,4.6301,4.6301,4.6301,4.6301,4.6301,4.6301,4.6301,4.6301,4.6301,4.6301,4.6301,4.6301,4.6301,4.6301,4.6301,4.6301,4.6301,4.6301,4.6301,4.6301,4.6301,4.6301,4.6301,4.6301,4.6301,4.6301,4.6301,4.6301,4.6301,4.6301,4.6301,4.6301,4.621,4.5878,4.5787,4.5726,4.5392,4.5544,4.5696,4.5361,4.5055,4.481,4.481,4.4532,4.4285,4.4285,4.4285,4.4285,4.4285,4.4285,4.4285,4.4285,4.4285,4.4285,4.4285,4.4285,4.4285,4.4285,4.4285,4.4285,4.4285,4.4285,4.4285,4.4285,4.4285,4.3835,4.2862,4.2813,4.2813,4.2813,4.2813,4.2813,4.2789,4.2789,4.2789,4.2789,4.2789,4.2789,3.9697,3.9697,0.0,3.9697,0.0,0.0,0.0,4.0499,0.0,0.0,4.1833,4.211,4.2663,0.0,0.0,4.2989,4.3014,4.3014,4.3014,4.3014,4.3014,4.3014,4.3014,4.3165,4.3514,4.3714,4.4141,4.492,4.5296,4.5648,4.605,4.6225,4.6301,4.6301,4.6301,4.6301,4.6301,4.6301,4.6301,4.6301,4.6301,4.6301,4.6301,4.6301,4.6301,4.6301,4.6301,4.6301,4.6301,4.6301,4.6301,4.6301,4.6301,4.6301,4.6301,4.6301,4.6301,4.6301,4.6301,4.6301,4.6301,4.6301,4.6301,4.6266,4.6029,4.5939,4.5878,4.5544,4.5453,4.5361,4.5055,4.5025,4.5086,4.4963,4.4871,4.4748,4.4501,4.4378,4.4285,4.4285,4.4285,4.4285,4.4285,4.4285,4.4285,4.4285,4.4285,4.4285,4.4285,4.4285,4.4285,4.4285,4.4285,4.4285,4.4285,4.4285,4.4285,4.4285,4.4285,4.4172,4.3859,4.3859,4.3859,4.3859,4.3859,4.3673,4.3289,4.3289,4.3126,4.2789,4.2789,4.2287,3.9697,3.9697,0.0,3.9973,4.0275,4.0626,4.1078,0.0,0.0,0.0,0.0,4.2612,4.2939,4.3014,0.0,4.3014,4.3014,4.3014,4.3014,4.3014,4.3014,4.3014,4.319,4.3438,4.3765,4.4217,4.4744,4.5447,4.5698,4.5949,4.6301,4.6301,4.6301,4.6301,4.6301,4.6301,4.6301,4.6301,4.6301,4.6301,4.6301,4.6301,4.6301,4.6301,4.6301,4.6301,4.6301,4.6301,4.6301,4.6301,4.6301,4.6301,4.6301,4.6301,4.6301,4.6301,4.6301,4.6301,4.6301,4.6301,4.6301,4.6301,4.6421,4.6561,4.6201,4.6259,4.634,4.5877,4.5753,4.5611,4.505,4.4908,4.486,4.4642,4.4594,4.4563,4.4347,4.4285,4.4285,4.4285,4.4285,4.4285,4.4285,4.4285,4.4285,4.4285,4.4285,4.4285,4.4285,4.4285,4.4285,4.4285,4.4285,4.4285,4.4285,4.4285,4.4068,4.3545,4.3514,4.324,4.2705,4.3732,4.4068,4.3514,4.3514,4.3044,4.2186,4.2186,4.2055,4.1777,4.1777,4.1227,3.9697,3.9697,0.0,4.0375,4.0575,0.0,4.2009,4.2288,4.2386,4.2889,0.0,4.3014,4.3014,4.3014,4.3014,4.3014,4.3014,4.3014,4.3065,4.309,4.309,4.314,4.3564,4.389,4.394,4.4869,4.5522,4.5573,4.6024,4.6301,4.6301,4.6301,4.6301,4.6301,4.6301,4.6301,4.6301,4.6301,4.6301,4.6301,4.6301,4.6301,4.6301,4.6301,4.6301,4.6301,4.6301,4.6301,4.6301,4.6301,4.6351,4.6376,4.6376,4.6401,4.6451,4.6451,4.6451,4.6451,4.6451,4.6451,4.6421,4.6391,4.6742,4.7051,4.6681,4.6935,4.7174,4.6516,4.6325,4.6165,4.5364,4.5181,4.5061,4.458,4.4357,4.4285,4.4285,4.4285,4.4285,4.4285,4.4285,4.4285,4.4285,4.4285,4.4285,4.4285,4.4285,4.4285,4.4285,4.4285,4.4285,4.4285,4.4285,4.4254,4.413,4.413,4.3545,4.2198,4.2102,4.1537,4.0257,4.2587,4.3357,4.2134,4.2102,4.1473,4.0192,4.0159,4.0127,4.0127,4.0094,3.9866,3.9697,3.9697,0.0,0.0,4.1153,4.2009,4.2688,4.2838,4.2864,4.2989,4.3014,4.3014,4.3014,4.3014,4.3014,4.3014,4.3014,4.3165,4.3564,4.3614,4.379,4.4217,4.4338,4.4618,4.507,4.5347,4.5673,4.61,4.625,4.6301,4.6301,4.6301,4.6301,4.6301,4.6301,4.6301,4.6301,4.6301,4.6301,4.6301,4.6301,4.6301,4.6301,4.6301,4.6301,4.6301,4.6301,4.6301,4.6301,4.6301,4.6547,4.6923,4.6923,4.7205,4.7556,4.7556,4.7556,4.7556,4.7556,4.7556,4.7494,4.724,4.7246,4.7221,4.6599,4.6538,4.6541,4.6102,4.603,4.595,4.579,4.571,4.5686,4.5565,4.4917,4.4285,4.4285,4.4285,4.4285,4.4285,4.4285,4.4285,4.4285,4.4285,4.4285,4.4285,4.4285,4.4285,4.4285,4.4285,4.4285,4.4285,4.4285,4.3857,4.2799,4.2736,4.2166,4.0765,4.0668,4.0538,4.0192,4.0775,4.0936,4.0646,4.0668,4.0484,4.0192,3.9877,3.9747,3.9714,3.9464,3.8708,3.9697,0.0,0.0,4.1103,0.0,4.2663,4.2939,4.3215,4.3363,4.3363,4.3363,4.3363,4.3363,4.3589,4.3765,4.3765,4.3765,4.3865,4.4141,4.4192,4.4292,4.4564,4.4869,4.5146,4.5472,4.5723,4.5999,4.6276,4.6301,4.6301,4.6301,4.6301,4.6301,4.6301,4.6301,4.6301,4.6301,4.6301,4.6301,4.6301,4.6301,4.6421,4.6672,4.6426,4.6301,4.6301,4.6301,4.6451,4.6672,4.6672,4.6998,4.7475,4.7475,4.7626,4.7908,4.7908,4.7908,4.7877,4.7746,4.7652,4.762,4.7275,4.7347,4.7449,4.6938,4.6948,4.7102,4.6777,4.668,4.6559,4.6022,4.5902,4.5758,4.5253,4.4917,4.47,4.47,4.4477,4.4285,4.4285,4.4285,4.4285,4.4285,4.4285,4.4285,4.4285,4.4285,4.4285,4.4285,4.4285,4.4285,4.4285,4.3732,4.3051,4.2356,4.1665,4.0678,3.9277,3.9179,3.8838,3.7975,3.7942,3.8341,3.9179,3.9014,3.8585,3.7942,3.7554,3.7333,3.7354,3.7166,3.6614,3.9697,0.0,4.0902,4.1934,4.2587,0.0,4.3014,4.3413,4.379,4.379,4.3865,4.394,4.394,4.4288,4.4589,4.4589,4.4589,4.464,4.474,4.4769,4.479,4.4865,4.5321,4.5623,4.5623,4.605,4.6301,4.6301,4.6301,4.6301,4.6301,4.6301,4.6301,4.6301,4.6301,4.6301,4.6301,4.6301,4.6301,4.6301,4.6371,4.6722,4.7224,4.6803,4.6577,4.6577,4.6577,4.6853,4.7249,4.7249,4.755,4.8058,4.8058,4.8109,4.8209,4.8146,4.809,4.8084,4.7731,4.7604,4.7541,4.7192,4.739,4.7669,4.7248,4.7409,4.7716,4.7323,4.7233,4.7016,4.6118,4.5902,4.5662,4.4796,4.4845,4.5085,4.4989,4.4556,4.4172,4.4172,4.4172,4.4196,4.4261,4.4285,4.4285,4.4285,4.4285,4.4285,4.4285,4.4285,4.4223,4.3982,4.2957,4.2102,4.1537,4.0387,3.9113,3.7642,3.7541,3.689,3.547,3.5344,3.598,3.7439,3.7199,3.6519,3.5401,3.4914,3.4705,3.4705,3.4561,3.4352,3.9697,0.0,4.1352,0.0,4.2587,4.3014,0.0,0.0,4.379,0.0,4.4192,4.4489,4.4489,4.4539,4.4589,4.4589,4.4589,4.4765,4.5296,4.5372,4.5547,4.6024,4.615,4.62,4.62,4.6276,4.6301,4.6301,4.6301,4.6301,4.6301,4.6301,4.6301,4.6301,4.6301,4.6301,4.6301,4.6301,4.6301,4.6326,4.6772,4.7274,4.7807,4.7732,4.7707,4.7707,4.7707,4.7732,4.7807,4.7807,4.8134,4.8693,4.8693,4.8937,4.9332,4.9042,4.8946,4.8881,4.8549,4.8444,4.8354,4.7995,4.7889,4.7799,4.7011,4.6817,4.676,4.6271,4.6094,4.607,4.5926,4.5902,4.5854,4.571,4.5397,4.4989,4.4532,4.3979,4.3595,4.3595,4.3595,4.3739,4.4244,4.4285,4.4285,4.4285,4.4285,4.4285,4.4285,4.4285,4.3857,4.2673,4.242,4.1161,3.8366,3.7967,3.7119,3.5451,3.5314,3.5211,3.499,3.4664,3.4556,3.4806,3.5088,3.5143,3.499,3.4289,3.3969,3.3916,3.324,3.2887,4.0424,4.0951,4.1528,0.0,4.2838,4.3014,4.3014,4.3639,4.4267,4.4267,4.4916,4.5443,4.5171,4.5372,4.5543,4.5543,4.5543,4.5648,4.5924,4.5949,4.605,4.6276,4.6301,4.6301,4.6301,4.6301,4.6301,4.6301,4.6301,4.6301,4.6301,4.6301,4.6301,4.6301,4.6301,4.6301,4.6301,4.6597,4.6898,4.7205,4.7456,4.7857,4.8385,4.8385,4.8209,4.7908,4.7908,4.8083,4.8385,4.8385,4.8736,4.9238,4.9046,4.9107,4.9267,4.8935,4.8837,4.8772,4.8412,4.8085,4.7751,4.7392,4.7044,4.6746,4.6375,4.6238,4.619,4.595,4.5902,4.583,4.5517,4.5445,4.5373,4.5085,4.482,4.4604,4.4364,4.4124,4.3859,4.3577,4.3289,4.3168,4.3409,4.3457,4.3553,4.3811,4.322,4.2849,4.3153,4.2492,4.1793,4.1184,4.0224,3.9026,3.7601,3.66,3.5622,3.463,3.4562,3.438,3.3951,3.3763,3.3602,3.3349,3.3756,3.3951,3.3951,3.3393,3.3117,3.3099,3.2747,3.2588,0.0,0.0,4.1578,4.2738,4.3014,4.3014,0.0,0.0,4.4589,4.4589,4.5493,4.6175,4.5773,4.6024,4.6301,4.6301,4.6301,4.6301,4.6301,4.6301,4.6301,4.6301,4.6301,4.6301,4.6301,4.6301,4.6301,4.6301,4.6301,4.6301,4.6301,4.6301,4.6301,4.6301,4.6301,4.6376,4.6496,4.7023,4.7575,4.8134,4.8134,4.8435,4.9019,4.9019,4.8736,4.8335,4.8335,4.8586,4.9019,4.8924,4.9117,4.9429,4.9105,4.89,4.8744,4.8354,4.815,4.7963,4.7604,4.7207,4.6835,4.6576,4.6214,4.5878,4.5734,4.5686,4.5662,4.5517,4.5493,4.5397,4.5013,4.4917,4.4796,4.4412,4.4285,4.4237,4.4148,4.4003,4.3787,4.3409,4.2934,4.2621,4.2765,4.2526,4.2406,4.2756,4.1708,4.0984,4.1393,4.043,3.9638,3.9379,3.7996,3.6916,3.6589,3.5283,3.4297,3.3891,3.3872,3.3606,3.3073,3.2947,3.274,3.2441,3.2648,3.285,3.304,3.2629,3.2441,3.2441,3.2331,3.2294,0.0,4.1302,0.0,4.2738,4.3014,4.3014,0.0,0.0,4.4589,4.4589,4.5493,4.6301,4.6276,4.6301,4.6301,4.6301,4.6301,4.6301,4.6301,4.6301,4.6301,4.6301,4.6301,4.6301,4.6301,4.6301,4.6301,4.6301,4.6301,4.6301,4.6301,4.6301,4.6301,4.6301,4.6301,4.6522,4.7048,4.7575,4.8159,4.8768,4.8768,4.9044,4.9565,4.9565,4.954,4.9515,4.9515,4.9515,4.9508,4.9217,4.9112,4.9105,4.8772,4.8321,4.7821,4.7434,4.6956,4.6454,4.6135,4.5982,4.5958,4.5926,4.5926,4.5806,4.5301,4.5133,4.5037,4.4532,4.4357,4.4357,4.4364,4.4333,4.4309,4.4285,4.4285,4.4172,4.3643,4.3168,4.2862,4.2837,4.2404,4.2188,4.2693,4.1751,4.0915,4.0938,3.9862,3.9054,3.9076,3.8731,3.8114,3.7176,3.6371,3.5376,3.4094,3.3573,3.3129,3.2691,3.2691,3.2673,3.264,3.2272,3.2038,3.2038,3.1685,3.1883,3.2621,3.2221,3.2038,3.2019,3.1616,3.1465,0.0,0.0,0.0,4.2738,4.3014,4.3014,4.3014,4.384,4.4589,4.4589,4.5493,4.6301,4.6301,4.6301,4.6301,4.6301,4.6301,4.6301,4.6301,4.6301,4.6301,4.6301,4.6301,4.6301,4.6301,4.6301,4.6301,4.6301,4.6301,4.6301,4.6301,4.6301,4.6301,4.6301,4.6622,4.728,4.8184,4.836,4.8736,4.9289,4.9289,4.9213,4.9095,4.9095,4.8766,4.8251,4.8251,4.865,4.9242,4.8571,4.8293,4.8179,4.7473,4.7076,4.6873,4.6488,4.6239,4.6062,4.5934,4.5662,4.5397,4.5397,4.5157,4.4845,4.4652,4.4604,4.4556,4.4333,4.4285,4.4285,4.4285,4.4285,4.422,4.3859,4.3787,4.3673,4.3174,4.291,4.2693,4.2356,4.1851,4.1277,4.0598,3.9916,3.9379,3.9118,3.7534,3.6592,3.717,3.6155,3.525,3.4902,3.4423,3.3941,3.3446,3.3048,3.2663,3.2239,3.2221,3.2093,3.1818,3.1671,3.1598,3.1598,3.1451,3.1557,3.185,3.1703,3.1598,3.1598,3.1483,3.141,4.1026,0.0,0.0,0.0,4.3014,4.3014,4.3014,4.384,4.4589,4.4589,4.5493,4.6301,4.6301,4.6606,4.6785,4.6361,4.6301,4.6451,4.6845,4.6571,4.6451,4.6874,4.6571,4.6301,4.6301,4.6301,4.6301,4.6301,4.6301,4.6301,4.6301,4.6301,4.6301,4.6301,4.6823,4.745,4.8209,4.8416,4.8661,4.9038,4.9038,4.8837,4.8485,4.8391,4.8033,4.7495,4.7244,4.7601,4.834,4.7617,4.7341,4.7285,4.6503,4.6133,4.5956,4.5733,4.5517,4.5373,4.5373,4.5133,4.4845,4.4845,4.4604,4.4285,4.4285,4.4285,4.4285,4.4285,4.4285,4.4268,4.41,4.3907,4.3721,4.3337,4.3265,4.303,4.206,4.2204,4.2286,4.1484,4.0898,4.0083,3.8655,3.7858,3.7305,3.6927,3.5309,3.4322,3.492,3.3869,3.3129,3.328,3.287,3.2654,3.2784,3.2442,3.2074,3.1818,3.1799,3.1671,3.1428,3.141,3.141,3.141,3.141,3.141,3.141,3.141,3.141,3.141,3.141,3.141,0.0,0.0,0.0,0.0,4.3014,4.3014,4.3014,4.3815,4.4564,4.4589,4.5468,4.6301,4.6301,4.7294,4.774,4.6541,4.6391,4.6815,4.7977,4.7146,4.6845,4.8006,4.7087,4.6331,4.6331,4.6301,4.6301,4.6301,4.6301,4.6301,4.6301,4.6301,4.6326,4.6326,4.6823,4.7124,4.7124,4.7626,4.7908,4.7908,4.7877,4.7877,4.7851,4.7596,4.7439,4.7383,4.6658,4.6563,4.6879,4.6524,4.6365,4.6325,4.5982,4.5517,4.5085,4.5085,4.4748,4.4285,4.4285,4.4285,4.4285,4.4285,4.4285,4.4285,4.4285,4.4292,4.4292,4.4292,4.4292,4.4148,4.3595,4.312,4.2789,4.2765,4.2765,4.2239,4.0396,4.0981,4.1477,4.0161,3.9471,3.8625,3.7015,3.5694,3.4757,3.4383,3.3209,3.2358,3.239,3.2102,3.2027,3.2436,3.1843,3.1543,3.1946,3.1616,3.141,3.141,3.141,3.141,3.141,3.141,3.141,3.141,3.1391,3.1391,3.1391,3.141,3.141,3.1391,3.1373,3.1373,4.1731,0.0,0.0,0.0,0.0,0.0,4.3014,4.3514,4.4141,4.4514,4.5196,4.5824,4.6225,4.7294,4.7977,4.7681,4.8326,4.9019,4.9362,4.9133,4.9047,4.9363,4.8326,4.7593,4.7593,4.6815,4.6301,0.0,4.6301,4.6301,4.6301,4.6301,4.6502,4.6873,4.7023,4.7274,4.7651,4.7832,4.7908,4.7908,4.7714,4.739,4.6954,4.665,4.6148,4.5526,4.534,4.5154,4.5053,4.5346,4.5452,4.5404,4.4924,4.4652,4.4501,4.4501,4.4436,4.4285,4.4285,4.4285,4.4285,4.4285,4.4285,4.4285,4.4285,4.4027,4.3715,4.3715,4.3481,4.3198,4.303,4.2886,4.2693,4.2308,4.1858,4.1247,4.0323,3.9505,3.8732,3.7846,3.7374,3.6682,3.5294,3.4518,3.3831,3.307,3.2211,3.1782,3.2006,3.175,3.1594,3.1704,3.1515,3.1465,3.1575,3.1451,3.141,3.141,3.141,3.141,3.141,3.141,3.141,3.141,3.1102,3.0987,3.0956,3.1263,3.1263,3.0937,3.0662,3.0534,0.0,0.0,0.0,0.0,0.0,0.0,4.3014,4.3413,4.389,4.4217,4.492,4.5598,4.5899,4.7555,4.8848,4.8848,5.0294,5.1237,5.0712,5.021,5.007,5.0573,4.9135,4.8094,4.8094,4.6998,4.6301,4.6301,4.6301,4.6301,4.6301,4.6301,4.6421,4.6747,4.6772,4.6898,4.723,4.7076,4.7014,4.7014,4.6731,4.6402,4.6044,4.5711,4.5262,4.4779,4.4656,4.447,4.4309,4.4652,4.4772,4.4748,4.4436,4.4285,4.4285,4.4285,4.4285,4.4285,4.4285,4.4285,4.4285,4.4285,4.4285,4.4285,4.4285,4.3931,4.3505,4.3505,4.3,4.2452,4.2452,4.2308,4.1897,4.1034,4.044,3.9643,3.8276,3.7015,3.6194,3.6399,3.5919,3.5046,3.3599,3.3158,3.2765,3.2083,3.1635,3.1474,3.1685,3.1506,3.141,3.141,3.141,3.141,3.141,3.141,3.141,3.141,3.141,3.1336,3.1171,3.1171,3.1047,3.0882,3.0662,3.0552,3.0552,3.0772,3.0772,3.0534,3.0314,3.0204,0.0,0.0,0.0,0.0,0.0,0.0,4.3156,4.3563,4.3941,4.4133,4.4972,4.5733,4.5859,4.8138,5.0044,5.0098,5.2029,5.3129,5.2055,5.0962,5.0629,5.1593,4.9704,4.8268,4.8123,4.6998,4.6301,4.6301,4.6301,4.6301,4.6301,4.6301,4.6301,4.6301,4.6301,4.6271,4.624,4.5939,4.5787,4.5726,4.5392,4.5239,4.5239,4.4902,4.4748,4.4717,4.444,4.4285,4.4285,4.4285,4.4285,4.4285,4.4285,4.4285,4.4285,4.4285,4.4285,4.4285,4.4285,4.4285,4.4285,4.4285,4.4285,4.4285,4.4285,4.3931,4.3505,4.3433,4.2735,4.1995,4.1995,4.1441,4.0658,3.9562,3.8892,3.7858,3.5602,3.4456,3.4207,3.5345,3.4757,3.3599,3.2102,3.1846,3.175,3.1442,3.141,3.141,3.141,3.141,3.141,3.141,3.141,3.141,3.141,3.141,3.1391,3.1355,3.1336,3.1139,3.0736,3.0717,3.0552,3.0204,3.0149,3.0112,3.0057,3.0112,3.013,3.013,3.0094,3.0057,0.0,0.0,0.0,0.0,0.0,0.0,4.4152,4.4448,4.4901,4.6247,4.6704,4.7158,4.8148,4.9584,5.0789,5.1291,5.2541,5.3422,5.3184,5.2943,5.2514,5.1811,5.0434,4.9164,4.821,4.6998,4.6301,4.6301,4.6301,4.6301,4.6301,4.6301,4.6301,4.6301,4.6301,4.615,4.5908,4.5817,4.5666,4.5392,4.5055,4.4902,4.4902,4.4563,4.4409,4.4409,4.4316,4.4285,4.4285,4.4285,4.4285,4.4285,4.4285,4.4285,4.4285,4.4285,4.4285,4.4285,4.4285,4.4285,4.4285,4.4285,4.4285,4.4285,4.4285,4.3931,4.3433,4.3054,4.2477,4.1995,4.1995,4.0605,3.9334,3.9878,3.8559,3.7006,3.6542,3.5294,3.4133,3.3599,3.267,3.1873,3.1538,3.1506,3.1474,3.141,3.141,3.141,3.141,3.141,3.141,3.141,3.141,3.141,3.141,3.141,3.1281,3.0951,3.0932,3.0717,3.0332,3.0314,3.0277,3.0204,2.9874,2.9574,2.9214,2.9574,2.9721,2.9721,2.936,2.9214,0.0,0.0,0.0,4.3014,0.0,0.0,0.0,4.5128,4.5742,4.6568,4.6999,4.7378,4.7975,4.933,5.0411,5.0692,5.1759,5.2546,5.2546,5.2567,5.238,5.1756,5.0098,4.8762,4.8181,4.6998,4.6301,4.6301,4.6301,4.6301,4.6301,4.6301,4.6301,4.6301,4.6301,4.612,4.5787,4.5635,4.5392,4.5055,4.4717,4.4563,4.4532,4.4378,4.4285,4.4285,4.4285,4.4285,4.4285,4.4285,4.4285,4.4285,4.4285,4.4285,4.4285,4.4285,4.4285,4.4285,4.4285,4.4285,4.4285,4.4285,4.4285,4.4285,4.4285,4.3931,4.3409,4.2934,4.2359,4.1846,4.1846,4.0775,3.9477,3.8603,3.7384,3.6204,3.5314,3.3945,3.2905,3.2905,3.2097,3.141,3.141,3.141,3.141,3.141,3.141,3.141,3.141,3.1212,3.1116,3.1116,3.0901,3.0791,3.0791,3.0791,3.0717,3.0497,3.0497,3.0314,2.9941,2.9892,2.98,2.9599,2.9379,2.9207,2.9005,2.9207,2.9299,2.9299,2.9097,2.9005,0.0,0.0,0.0,0.0,0.0,4.4751,0.0,0.0,0.0,4.6892,4.733,4.7742,4.7852,4.9003,4.9966,4.9966,5.0886,5.1559,5.1439,5.1351,5.1337,5.1337,4.9408,4.8014,4.7783,4.6666,4.5974,4.5974,4.5974,4.5974,4.5974,4.61,4.612,4.606,4.616,4.5999,4.5605,4.5331,4.5055,4.4687,4.444,4.4285,4.4285,4.4285,4.4285,4.4285,4.4285,4.4285,4.4285,4.4285,4.4285,4.4285,4.4285,4.4285,4.4285,4.4285,4.4285,4.4285,4.4285,4.4285,4.4285,4.4285,4.4285,4.4285,4.4285,4.3911,4.3333,4.2752,4.2091,4.1441,4.1053,4.0311,3.9173,3.7121,3.605,3.5152,3.3855,3.2575,3.1854,3.2397,3.1856,3.1318,3.1391,3.1355,3.13,3.13,3.1226,3.1189,3.1189,3.0882,3.0681,3.0681,3.0387,3.0204,3.0204,3.0204,3.0167,3.0094,3.0075,2.9892,2.9501,2.9482,2.9335,2.9023,2.9005,2.9005,2.9005,2.9005,2.9005,2.9005,2.9005,2.9005,0.0,0.0,0.0,0.0,4.385,0.0,0.0,0.0,4.8097,4.91,0.0,4.9585,5.0191,0.0,0.0,5.0597,5.1161,5.141,5.0884,5.0355,5.002,5.002,4.887,4.7669,4.6606,4.5489,4.479,4.479,4.479,4.479,4.479,4.5296,4.5454,4.5156,4.5599,4.5544,4.4933,4.4871,4.4687,4.4347,4.4316,4.4285,4.4285,4.4285,4.4285,4.4285,4.4285,4.4285,4.4285,4.4285,4.4285,4.4285,4.4285,4.4285,4.4285,4.4285,4.4285,4.4285,4.4285,4.4285,4.4285,4.4285,4.4285,4.4285,4.4285,4.3841,4.3114,4.2118,4.1373,4.0494,3.8644,3.702,3.6056,3.6627,3.4973,3.3469,3.4133,3.3473,3.2397,3.1267,3.0959,3.0974,3.1355,3.1084,3.0846,3.0846,3.0552,3.0332,3.0332,3.0296,3.0259,3.0259,3.0222,3.0204,3.0204,3.0204,3.0039,2.9702,2.9684,2.9501,2.9067,2.9078,2.906,2.9005,2.9005,2.9005,2.9005,2.9005,2.9005,2.9005,2.9005,2.9005,0.0,0.0,0.0,0.0,0.0,0.0,4.7023,0.0,4.9124,0.0,0.0,0.0,0.0,0.0,0.0,0.0,5.0332,5.0394,5.0158,4.9881,4.9753,4.979,4.8759,4.7591,4.6423,4.5256,4.4589,4.4589,4.4589,4.4589,4.4589,4.4694,4.4822,4.4997,4.5041,4.4956,4.481,4.481,4.4625,4.4285,4.4285,4.4285,4.4285,4.4285,4.4285,4.4285,4.4285,4.4285,4.4285,4.4285,4.4285,4.4261,4.3955,4.4027,4.4285,4.4285,4.4285,4.4285,4.4285,4.4285,4.4268,4.3931,4.3774,4.3654,4.3346,4.242,4.1487,4.1582,4.015,3.8468,3.8163,3.7286,3.6195,3.5204,3.4544,3.3994,3.3344,3.2401,3.1596,3.137,3.0847,3.0497,3.0662,3.0552,3.0442,3.0442,3.0314,3.0204,3.0204,2.9984,2.9868,2.9868,2.9635,2.9489,2.9489,2.9489,2.9415,2.9262,2.9262,2.9188,2.9023,2.9005,2.9005,2.9005,2.9005,2.9005,2.9005,2.9005,2.9005,2.9005,2.9005,2.9005,4.4963,0.0,0.0,0.0,0.0,0.0,0.0,0.0,0.0,0.0,0.0,0.0,0.0,0.0,0.0,0.0,0.0,4.9112,4.8914,4.9054,4.9342,4.9745,4.8714,4.7433,4.6008,4.5109,4.451,4.4166,4.4166,4.4109,4.4023,4.3995,4.4065,4.4289,4.4175,4.4249,4.4444,4.4444,4.4418,4.4285,4.4285,4.4285,4.4285,4.4285,4.4285,4.4285,4.4148,4.41,4.4075,4.3931,4.3883,4.3835,4.3457,4.3553,4.3883,4.3883,4.3883,4.3883,4.3883,4.376,4.3566,4.3159,4.285,4.2584,4.2179,4.1142,4.0056,4.0213,3.861,3.679,3.6695,3.6357,3.5631,3.3693,3.3576,3.3603,3.2394,3.1358,3.0716,3.1058,3.0543,3.0002,2.9892,2.9965,3.002,3.002,2.9929,2.9874,2.9874,2.9629,2.9445,2.9445,2.9188,2.9005,2.9005,2.9005,2.9005,2.9005,2.9005,2.9005,2.9005,2.9005,2.9005,2.9005,2.9005,2.9005,2.9005,2.9005,2.9005,2.9005,2.9005,2.9005,0.0,0.0,0.0,4.4881,0.0,0.0,0.0,0.0,4.9693,0.0,0.0,0.0,0.0,0.0,0.0,0.0,0.0,0.0,0.0,4.7462,4.8304,4.9557,4.871,4.7129,4.4965,4.4721,4.4231,4.3148,4.3065,4.2925,4.2562,4.3109,4.3124,4.2516,4.2973,4.3329,4.3529,4.3529,4.3818,4.4285,4.4285,4.4285,4.4285,4.4285,4.4285,4.4261,4.3739,4.3553,4.3505,4.303,4.2837,4.2837,4.2813,4.2837,4.2837,4.2837,4.2837,4.2837,4.2837,4.2424,4.1882,4.1858,4.1464,4.0969,4.0969,4.0455,3.9472,3.7424,3.6728,3.5922,3.2981,3.2615,3.291,3.2455,3.1628,3.1076,3.1604,3.0945,3.0125,2.9733,2.9659,2.9501,2.9115,2.9372,2.9629,2.9629,2.9299,2.9042,2.9042,2.9042,2.9042,2.9042,2.9023,2.9005,2.9005,2.9005,2.9005,2.9005,2.9005,2.9005,2.9005,2.9005,2.9005,2.9005,2.9005,2.9005,2.9005,2.9005,2.9005,2.9005,2.9005,2.9005,0.0,0.0,4.5304,4.6999,0.0,0.0,0.0,0.0,0.0,0.0,0.0,0.0,0.0,0.0,0.0,0.0,0.0,0.0,0.0,4.7637,4.795,4.8386,4.782,4.6825,4.5308,4.489,4.4234,4.3098,4.3014,4.2874,4.2513,4.2513,4.25,4.2384,4.2404,4.2589,4.303,4.3054,4.315,4.3289,4.3289,4.3289,4.3289,4.3289,4.3289,4.3289,4.3126,4.3054,4.303,4.2862,4.2789,4.2765,4.2404,4.1994,4.1692,4.2496,4.252,4.2076,4.1684,4.138,4.1151,4.0773,4.0464,4.0148,3.9832,3.8313,3.6855,3.7473,3.5484,3.3231,3.3518,3.3243,3.2619,3.1558,3.1559,3.1526,3.0522,3.0057,2.9702,2.9299,2.9207,2.917,2.9042,2.9115,2.9207,2.9207,2.9097,2.9005,2.9005,2.9005,2.9005,2.9005,2.9005,2.9005,2.9005,2.9005,2.9005,2.9005,2.9005,2.9005,2.9005,2.9005,2.9005,2.9005,2.9005,2.9005,2.9005,2.9005,2.9005,2.9005,2.9005,2.9005,4.6484,4.5892,0.0,4.7217,4.6965,0.0,4.8649,0.0,0.0,0.0,0.0,0.0,0.0,0.0,0.0,0.0,0.0,0.0,0.0,4.7137,4.6969,4.6591,4.7028,4.6845,4.5527,4.5127,4.4434,4.3101,4.2902,4.2706,4.2369,4.2086,4.192,4.1972,4.1794,4.1971,4.2501,4.2501,4.2597,4.2789,4.2789,4.2789,4.2789,4.2789,4.2789,4.2789,4.2597,4.2501,4.2501,4.2308,4.2088,4.1834,4.1476,4.0975,4.0527,4.1502,4.1472,4.0875,4.0484,4.0182,3.9924,3.9552,3.9243,3.8956,3.8614,3.729,3.6113,3.6981,3.4909,3.2664,3.3546,3.2976,3.1904,3.0819,3.0972,3.0981,2.9658,2.939,2.9317,2.906,2.9005,2.9005,2.9005,2.9005,2.9005,2.9005,2.9005,2.9005,2.9005,2.9005,2.9005,2.9005,2.9005,2.9005,2.9005,2.9005,2.9005,2.9005,2.9005,2.9005,2.9005,2.9005,2.9078,2.9225,2.9078,2.9078,2.9225,2.9078,2.9005,2.9005,2.9005,2.9005]},{"header":{"parameterUnit":"m.s-1","parameterCategory":1,"la1":30.6,"la2":29.2853,"lo1":-89.7004,"lo2":-87.6739,"dy":0.0162,"dx":0.0183,"nx":112,"ny":82,"refTime":"2023-11-08T06:00:00:Z","depth":0,"parameterNumber":3,"parameterNumberName":"V-component_of_WINDS"},"data":[0.0,0.0,0.0,0.0,0.0,0.0,0.0,0.0,0.0,0.0,0.0,0.0,0.0,0.0,0.0,0.0,0.0,0.0,0.0,0.0,0.0,0.0,0.0,0.0,0.0,0.0,0.0,0.0,0.0,0.0,0.0,0.0,0.0,0.0,0.0,0.0,0.0,0.0,0.0,0.0,0.0,0.0,0.0,0.0,0.0,0.0,0.0,0.0,0.0,0.0,0.0,0.0,0.0,0.0,0.0,0.0,0.0,0.0,0.0,0.0,0.0,0.0,0.0,0.0,0.0,0.0,0.0,0.0,0.0,0.0,0.0,0.0,0.0,0.0,0.0,0.0,0.0,0.0,0.0,0.0,0.0,0.0,0.0,0.0,0.0,0.0,0.0,0.0,0.0,0.0,2.1835,2.1968,2.1873,2.1835,2.1968,2.1987,2.193,2.1797,0.0,0.0,0.0,0.0,0.0,0.0,0.0,0.0,0.0,0.0,0.0,0.0,0.0,0.0,0.0,0.0,0.0,0.0,0.0,0.0,0.0,0.0,0.0,0.0,0.0,0.0,0.0,0.0,0.0,0.0,0.0,0.0,0.0,0.0,0.0,0.0,0.0,0.0,0.0,0.0,0.0,0.0,0.0,0.0,0.0,0.0,0.0,0.0,0.0,0.0,0.0,0.0,0.0,0.0,0.0,0.0,0.0,0.0,0.0,0.0,0.0,0.0,0.0,0.0,0.0,0.0,0.0,0.0,0.0,0.0,0.0,0.0,0.0,0.0,0.0,0.0,0.0,0.0,0.0,0.0,0.0,0.0,0.0,0.0,0.0,0.0,0.0,0.0,0.0,0.0,0.0,0.0,0.0,0.0,0.0,0.0,0.0,0.0,0.0,0.0,0.0,0.0,0.0,0.0,2.2063,2.274,2.2214,2.2082,2.2759,2.2815,2.2534,2.1835,0.0,0.0,0.0,0.0,0.0,0.0,0.0,0.0,0.0,0.0,0.0,0.0,0.0,0.0,0.0,0.0,0.0,0.0,0.0,0.0,0.0,0.0,0.0,0.0,0.0,0.0,0.0,0.0,0.0,0.0,0.0,0.0,0.0,0.0,0.0,0.0,0.0,0.0,0.0,0.0,0.0,0.0,0.0,0.0,0.0,0.0,0.0,0.0,0.0,0.0,0.0,0.0,0.0,0.0,0.0,0.0,0.0,0.0,0.0,0.0,0.0,0.0,0.0,0.0,0.0,0.0,0.0,0.0,0.0,0.0,0.0,0.0,0.0,0.0,0.0,0.0,0.0,0.0,0.0,0.0,0.0,0.0,0.0,0.0,0.0,0.0,0.0,0.0,0.0,0.0,0.0,0.0,0.0,0.0,0.0,0.0,0.0,0.0,0.0,0.0,0.0,0.0,0.0,2.2924,2.2737,2.3511,2.3272,2.3198,2.3548,2.3585,2.3438,2.3069,2.2662,0.0,0.0,0.0,0.0,0.0,0.0,0.0,0.0,0.0,0.0,0.0,0.0,0.0,0.0,0.0,0.0,0.0,0.0,0.0,0.0,0.0,0.0,0.0,0.0,0.0,0.0,0.0,0.0,0.0,0.0,0.0,0.0,0.0,0.0,0.0,0.0,0.0,0.0,0.0,0.0,0.0,0.0,0.0,0.0,0.0,0.0,0.0,0.0,0.0,0.0,0.0,0.0,0.0,0.0,0.0,0.0,0.0,0.0,0.0,0.0,0.0,0.0,0.0,0.0,0.0,0.0,0.0,0.0,0.0,0.0,0.0,0.0,0.0,0.0,0.0,0.0,0.0,0.0,0.0,0.0,0.0,0.0,0.0,0.0,0.0,0.0,0.0,0.0,0.0,0.0,0.0,0.0,0.0,0.0,0.0,0.0,0.0,0.0,0.0,0.0,0.0,0.0,2.3768,2.3772,2.433,2.4199,2.4163,2.4384,2.4384,2.4312,2.4108,2.3731,0.0,0.0,0.0,0.0,0.0,0.0,0.0,0.0,0.0,0.0,0.0,0.0,0.0,0.0,0.0,0.0,0.0,0.0,0.0,0.0,0.0,0.0,0.0,0.0,0.0,0.0,0.0,0.0,0.0,0.0,0.0,0.0,0.0,0.0,0.0,0.0,0.0,0.0,0.0,0.0,0.0,0.0,0.0,0.0,0.0,0.0,0.0,0.0,0.0,0.0,0.0,0.0,0.0,0.0,0.0,0.0,0.0,0.0,0.0,0.0,0.0,0.0,0.0,0.0,0.0,0.0,0.0,0.0,0.0,0.0,0.0,0.0,0.0,0.0,0.0,0.0,0.0,0.0,0.0,0.0,0.0,0.0,0.0,0.0,0.0,0.0,0.0,0.0,0.0,0.0,0.0,0.0,0.0,0.0,0.0,0.0,0.0,0.0,0.0,0.0,0.0,0.0,2.4707,2.5158,2.5211,2.4546,2.4402,2.5141,2.5211,2.4909,2.4145,2.4743,0.0,0.0,0.0,0.0,0.0,0.0,0.0,0.0,0.0,0.0,0.0,0.0,0.0,0.0,0.0,0.0,0.0,0.0,0.0,0.0,0.0,0.0,0.0,0.0,0.0,0.0,0.0,0.0,0.0,0.0,0.0,0.0,0.0,0.0,0.0,0.0,0.0,0.0,0.0,0.0,0.0,0.0,0.0,0.0,0.0,0.0,0.0,0.0,0.0,0.0,0.0,0.0,0.0,0.0,0.0,0.0,0.0,0.0,0.0,0.0,0.0,0.0,0.0,0.0,0.0,0.0,0.0,0.0,0.0,0.0,0.0,0.0,0.0,0.0,0.0,0.0,0.0,0.0,0.0,0.0,0.0,0.0,0.0,0.0,0.0,0.0,0.0,0.0,0.0,0.0,0.0,0.0,0.0,0.0,0.0,0.0,0.0,0.0,0.0,0.0,0.0,0.0,2.5546,2.5634,0.0,2.5774,2.5721,2.6025,2.6042,2.5921,2.5616,0.0,0.0,0.0,0.0,0.0,0.0,0.0,0.0,0.0,0.0,0.0,0.0,0.0,0.0,0.0,0.0,0.0,0.0,0.0,0.0,0.0,0.0,0.0,0.0,0.0,0.0,0.0,0.0,0.0,0.0,0.0,0.0,0.0,0.0,0.0,0.0,0.0,0.0,0.0,0.0,0.0,0.0,0.0,0.0,0.0,0.0,0.0,0.0,0.0,0.0,0.0,0.0,0.0,0.0,0.0,0.0,0.0,0.0,0.0,0.0,0.0,0.0,0.0,0.0,0.0,0.0,0.0,0.0,0.0,0.0,0.0,0.0,0.0,0.0,0.0,0.0,0.0,0.0,0.0,0.0,0.0,0.0,0.0,0.0,0.0,0.0,0.0,0.0,0.0,0.0,0.0,0.0,0.0,0.0,0.0,0.0,0.0,0.0,0.0,0.0,0.0,0.0,2.6508,2.6191,2.6121,0.0,2.6602,2.6568,2.6568,2.6568,2.6551,2.6499,0.0,0.0,0.0,0.0,0.0,0.0,0.0,0.0,0.0,0.0,0.0,0.0,0.0,0.0,0.0,0.0,0.0,0.0,0.0,0.0,0.0,0.0,0.0,0.0,0.0,0.0,0.0,0.0,0.0,0.0,0.0,0.0,0.0,0.0,0.0,0.0,0.0,0.0,0.0,0.0,0.0,0.0,0.0,0.0,0.0,0.0,0.0,0.0,0.0,0.0,0.0,0.0,0.0,0.0,0.0,0.0,0.0,0.0,0.0,0.0,0.0,0.0,0.0,0.0,0.0,0.0,0.0,0.0,0.0,0.0,0.0,0.0,0.0,0.0,0.0,0.0,0.0,0.0,0.0,0.0,0.0,0.0,0.0,0.0,0.0,0.0,0.0,0.0,0.0,0.0,0.0,0.0,0.0,0.0,0.0,0.0,0.0,0.0,0.0,0.0,0.0,0.0,2.6696,2.6696,2.6765,2.6977,2.6824,2.6696,2.6696,2.6696,2.6645,0.0,0.0,0.0,0.0,0.0,0.0,0.0,0.0,0.0,0.0,0.0,0.0,0.0,0.0,0.0,0.0,0.0,0.0,0.0,0.0,0.0,0.0,0.0,0.0,0.0,0.0,0.0,0.0,0.0,0.0,0.0,0.0,0.0,0.0,0.0,0.0,0.0,0.0,0.0,0.0,0.0,0.0,0.0,0.0,0.0,0.0,0.0,0.0,0.0,0.0,0.0,0.0,0.0,0.0,0.0,0.0,0.0,0.0,0.0,0.0,0.0,0.0,0.0,0.0,0.0,0.0,0.0,0.0,0.0,0.0,0.0,0.0,0.0,0.0,0.0,0.0,0.0,0.0,0.0,0.0,0.0,0.0,0.0,0.0,0.0,0.0,0.0,0.0,0.0,0.0,0.0,0.0,0.0,0.0,0.0,0.0,0.0,0.0,0.0,0.0,0.0,0.0,0.0,2.6731,2.6935,2.7096,2.6994,2.6943,2.6909,2.6909,2.6909,2.6841,2.6645,0.0,0.0,0.0,0.0,0.0,0.0,0.0,0.0,0.0,0.0,0.0,0.0,0.0,0.0,0.0,0.0,0.0,0.0,0.0,0.0,0.0,0.0,0.0,0.0,0.0,0.0,0.0,0.0,0.0,0.0,0.0,0.0,0.0,0.0,0.0,0.0,0.0,0.0,0.0,0.0,0.0,0.0,0.0,0.0,0.0,0.0,0.0,0.0,0.0,0.0,0.0,0.0,0.0,0.0,0.0,0.0,0.0,0.0,0.0,0.0,0.0,0.0,0.0,0.0,0.0,0.0,0.0,0.0,0.0,0.0,0.0,0.0,0.0,0.0,0.0,0.0,0.0,0.0,0.0,0.0,0.0,0.0,0.0,0.0,0.0,0.0,0.0,0.0,0.0,0.0,0.0,0.0,0.0,0.0,0.0,0.0,0.0,0.0,0.0,0.0,0.0,0.0,2.739,2.7779,2.796,2.7623,2.754,2.7406,2.7146,2.7113,2.7028,2.6841,0.0,0.0,0.0,0.0,0.0,0.0,0.0,0.0,0.0,0.0,0.0,0.0,0.0,0.0,0.0,0.0,0.0,0.0,0.0,0.0,0.0,0.0,0.0,0.0,0.0,0.0,0.0,0.0,0.0,0.0,0.0,0.0,0.0,0.0,0.0,0.0,0.0,0.0,0.0,0.0,0.0,0.0,0.0,0.0,0.0,0.0,0.0,0.0,0.0,0.0,0.0,0.0,0.0,0.0,0.0,0.0,0.0,0.0,0.0,0.0,0.0,0.0,0.0,0.0,0.0,0.0,0.0,0.0,0.0,0.0,0.0,0.0,0.0,0.0,0.0,0.0,0.0,0.0,0.0,0.0,0.0,0.0,0.0,0.0,0.0,0.0,0.0,0.0,0.0,0.0,0.0,0.0,0.0,0.0,0.0,0.0,0.0,0.0,0.0,0.0,0.0,0.0,2.8482,2.9072,2.9319,2.8838,2.8606,2.8253,2.7652,2.7466,2.7365,2.7231,0.0,0.0,0.0,0.0,0.0,0.0,0.0,0.0,0.0,0.0,0.0,0.0,0.0,0.0,0.0,0.0,0.0,0.0,0.0,0.0,0.0,0.0,0.0,0.0,0.0,0.0,0.0,0.0,0.0,0.0,0.0,0.0,0.0,0.0,0.0,0.0,0.0,0.0,0.0,0.0,0.0,0.0,0.0,0.0,0.0,0.0,0.0,0.0,0.0,0.0,0.0,0.0,0.0,0.0,0.0,0.0,0.0,0.0,0.0,0.0,2.7689,0.0,0.0,0.0,0.0,0.0,0.0,0.0,0.0,0.0,0.0,0.0,0.0,0.0,0.0,0.0,0.0,0.0,0.0,0.0,0.0,0.0,0.0,0.0,0.0,0.0,0.0,0.0,0.0,0.0,0.0,0.0,0.0,0.0,0.0,0.0,0.0,0.0,0.0,0.0,0.0,0.0,2.9873,3.0522,3.0977,3.0862,3.0366,2.9979,2.9834,2.8839,2.8417,2.8803,2.7937,0.0,0.0,0.0,0.0,0.0,0.0,0.0,0.0,0.0,0.0,0.0,0.0,0.0,0.0,0.0,0.0,0.0,0.0,0.0,0.0,0.0,0.0,0.0,0.0,0.0,0.0,0.0,0.0,0.0,0.0,0.0,0.0,0.0,0.0,0.0,0.0,0.0,0.0,0.0,0.0,0.0,0.0,0.0,0.0,0.0,0.0,0.0,0.0,0.0,0.0,0.0,0.0,0.0,0.0,0.0,0.0,0.0,0.0,0.0,0.0,2.7918,0.0,0.0,0.0,0.0,0.0,0.0,0.0,0.0,0.0,0.0,0.0,0.0,0.0,0.0,0.0,0.0,0.0,0.0,0.0,0.0,0.0,0.0,0.0,0.0,0.0,0.0,0.0,0.0,0.0,0.0,0.0,0.0,0.0,0.0,0.0,0.0,0.0,0.0,0.0,0.0,3.1345,3.1984,3.233,3.2008,3.1661,3.1333,3.1011,3.0341,3.006,3.0335,2.9767,0.0,0.0,0.0,0.0,0.0,0.0,0.0,0.0,0.0,0.0,0.0,0.0,0.0,0.0,0.0,0.0,0.0,0.0,0.0,0.0,0.0,0.0,0.0,0.0,0.0,0.0,0.0,0.0,0.0,0.0,0.0,0.0,0.0,0.0,0.0,0.0,0.0,0.0,0.0,0.0,0.0,0.0,0.0,0.0,0.0,0.0,0.0,0.0,0.0,0.0,0.0,0.0,0.0,3.1639,3.1833,3.2118,3.2118,3.222,3.225,3.0097,2.9477,2.9951,2.8782,0.0,0.0,0.0,0.0,0.0,0.0,0.0,0.0,0.0,0.0,0.0,0.0,0.0,0.0,0.0,0.0,0.0,0.0,0.0,0.0,0.0,0.0,0.0,0.0,3.3851,3.381,3.3354,0.0,0.0,0.0,0.0,0.0,0.0,0.0,0.0,0.0,0.0,0.0,3.2855,3.3413,3.3657,3.3078,3.2913,3.2632,3.2082,3.1805,3.1716,3.183,3.1634,3.1552,0.0,0.0,0.0,0.0,0.0,0.0,0.0,0.0,0.0,0.0,0.0,0.0,0.0,0.0,0.0,0.0,0.0,0.0,0.0,0.0,0.0,0.0,0.0,0.0,0.0,0.0,0.0,0.0,0.0,0.0,0.0,0.0,2.6812,2.6771,0.0,0.0,0.0,0.0,0.0,0.0,0.0,0.0,0.0,0.0,0.0,0.0,0.0,3.0955,3.1057,3.1422,3.1863,3.2426,3.2633,3.2971,3.3453,3.3453,3.3453,3.3469,3.2823,0.0,3.1745,3.1569,0.0,0.0,0.0,0.0,0.0,0.0,0.0,0.0,0.0,0.0,0.0,0.0,0.0,0.0,0.0,0.0,0.0,0.0,0.0,0.0,0.0,0.0,3.6043,3.606,3.6476,3.6696,0.0,3.4456,3.3083,3.3066,3.3027,0.0,0.0,0.0,0.0,0.0,0.0,0.0,3.4317,3.4813,3.5218,3.5107,3.457,3.4181,3.4101,3.3033,3.2616,3.3207,3.2137,3.1764,3.2346,3.1728,0.0,0.0,0.0,0.0,0.0,0.0,0.0,0.0,0.0,0.0,0.0,0.0,0.0,0.0,0.0,0.0,0.0,0.0,0.0,0.0,0.0,0.0,0.0,0.0,0.0,0.0,0.0,0.0,0.0,2.7891,2.8031,2.8454,2.8574,2.8714,0.0,0.0,0.0,0.0,0.0,0.0,0.0,0.0,0.0,3.161,3.2016,3.2229,3.2229,3.2995,3.3766,3.4518,3.4916,3.5557,3.6404,3.6404,3.6487,3.6612,3.6491,3.6008,3.5216,3.3608,3.3228,3.3654,0.0,0.0,0.0,0.0,3.3261,3.3116,3.323,3.3125,3.3003,3.3449,0.0,0.0,0.0,0.0,0.0,0.0,0.0,0.0,0.0,0.0,3.7015,3.7015,3.7225,3.7345,3.7075,3.6254,3.5367,0.0,3.4488,3.4488,3.4488,0.0,0.0,0.0,0.0,3.54,3.51,3.531,3.5519,3.5519,3.525,3.507,3.507,3.4531,3.4305,3.4606,3.408,3.3885,3.4177,3.3536,3.3187,0.0,0.0,0.0,0.0,0.0,0.0,0.0,0.0,0.0,0.0,0.0,0.0,0.0,0.0,0.0,0.0,0.0,0.0,0.0,0.0,0.0,0.0,0.0,0.0,0.0,0.0,0.0,0.0,2.8952,2.9268,2.9927,3.0131,3.0376,0.0,0.0,0.0,0.0,0.0,0.0,3.1689,3.2087,3.2362,3.2515,3.3197,3.3667,3.3892,3.4817,3.5721,3.6643,3.7118,3.7791,3.8598,3.8598,3.8728,3.8899,3.8899,3.8718,3.828,3.5731,3.4975,3.5386,3.5198,3.5141,3.5179,3.5141,3.5077,3.5013,3.5162,3.5106,3.5021,3.538,3.5617,3.578,3.578,0.0,0.0,0.0,0.0,3.6576,3.6576,3.7126,3.7674,3.7674,3.7793,3.7866,3.7704,3.7674,3.7315,0.0,3.5878,3.5759,3.5759,0.0,0.0,0.0,0.0,3.5519,3.5519,3.5519,3.5519,3.5519,3.5519,3.5519,3.5519,3.5519,3.5519,3.5519,3.5519,3.5519,3.5519,3.5011,3.4757,3.4757,0.0,0.0,0.0,0.0,0.0,0.0,0.0,0.0,0.0,0.0,0.0,0.0,0.0,0.0,0.0,0.0,0.0,0.0,0.0,0.0,0.0,0.0,0.0,0.0,0.0,0.0,0.0,0.0,0.0,3.0563,3.1009,0.0,0.0,0.0,0.0,3.1777,3.1954,3.2184,3.2518,3.3262,3.3952,3.4443,3.5051,3.5769,3.6577,3.6893,3.7491,3.8378,3.8639,3.881,3.8899,3.8899,3.8899,3.8899,3.8899,3.9316,3.9865,3.8329,3.7324,3.6762,3.6568,3.6607,3.6743,3.6568,3.631,3.6024,3.6043,3.5667,3.5307,3.6025,3.6717,3.7284,3.7284,3.7284,0.0,0.0,3.7319,3.7336,3.7336,3.7849,3.835,3.835,3.8841,3.9122,3.8482,3.835,3.8123,0.0,3.6836,3.6464,3.6464,0.0,3.5519,3.5519,3.5519,3.5519,3.5519,3.5519,3.5519,3.5519,3.5519,3.5519,3.5519,3.5519,3.5519,3.5519,3.5519,3.5519,3.5519,3.5459,3.5459,3.5459,3.5429,0.0,0.0,0.0,0.0,0.0,0.0,0.0,0.0,0.0,0.0,0.0,0.0,0.0,0.0,0.0,0.0,0.0,0.0,0.0,0.0,0.0,0.0,0.0,0.0,0.0,0.0,0.0,0.0,3.1377,3.167,0.0,3.2285,3.2434,3.2797,3.3564,3.3679,3.393,3.4429,3.4877,3.5166,3.5351,3.6296,3.6936,3.725,3.8287,3.9277,4.0178,4.065,4.1207,4.1732,4.1732,4.1732,4.1732,4.1732,4.1676,4.1547,4.1018,4.0383,3.9777,3.972,3.9739,3.9777,3.972,3.9592,3.9511,3.9511,3.9383,3.9234,3.9506,3.9746,3.9966,3.9966,3.9966,3.9966,3.9966,3.9966,3.9966,3.9966,4.0146,4.0236,3.9798,3.9858,3.9858,3.92,3.9032,3.8973,3.8733,3.7823,3.7075,3.7075,3.6896,3.6699,3.6699,3.6699,3.6596,3.6178,3.6118,3.5968,3.5549,3.5519,3.5519,3.5519,3.5519,3.5519,3.5519,3.5519,3.5519,3.5519,3.5519,3.5519,3.5519,3.5519,3.5519,0.0,0.0,0.0,0.0,0.0,0.0,0.0,0.0,0.0,0.0,0.0,0.0,0.0,0.0,0.0,0.0,0.0,0.0,0.0,0.0,0.0,0.0,0.0,0.0,0.0,0.0,3.2179,3.2179,3.2634,3.308,3.3334,3.3665,3.4208,3.4958,3.5075,3.5405,3.6053,3.6455,3.6801,3.71,3.8063,3.8697,3.9013,3.9977,4.0949,4.1841,4.225,4.2739,4.329,4.329,4.329,4.329,4.329,4.307,4.269,4.269,4.2451,4.2013,4.1583,4.1403,4.1403,4.1403,4.1403,4.1403,4.1403,4.1403,4.1403,4.1403,4.1403,4.1403,4.1403,4.1403,4.1403,4.1403,4.1403,4.1403,4.1403,4.1403,4.1283,4.0816,4.0726,4.0606,4.0187,3.99,3.972,3.972,3.8644,3.7734,3.7734,3.7554,3.7387,3.7387,3.7387,3.7255,3.6866,3.6806,3.6626,3.6207,3.6148,3.6148,3.6148,3.5938,3.5938,3.6148,3.5938,3.5938,3.6148,3.5938,3.5848,3.5848,3.5848,3.5938,3.6148,0.0,0.0,0.0,0.0,0.0,0.0,0.0,0.0,0.0,0.0,0.0,0.0,0.0,0.0,0.0,0.0,0.0,0.0,0.0,0.0,0.0,0.0,0.0,3.2217,3.2613,3.2972,3.2972,3.3952,3.4731,3.4943,3.55,3.5881,3.5929,3.6101,3.6536,3.7267,3.8049,3.8843,3.9683,4.0337,4.1071,4.2005,4.2046,4.2456,4.329,4.329,4.329,4.329,4.329,4.329,4.329,4.329,4.329,4.329,4.3319,4.3319,4.322,4.1953,4.1463,4.1463,4.1463,4.1463,4.1463,4.1463,4.1463,4.1463,4.1463,4.1463,4.1463,4.1463,4.1463,4.1463,4.1463,4.1463,4.1463,4.1463,4.1463,4.1463,4.1433,4.1433,4.1433,4.1403,4.0894,4.0427,4.0427,3.9379,3.8499,3.8439,3.7883,3.7464,3.7464,3.7464,0.0,3.7417,3.7434,3.7417,3.7387,3.7387,3.7387,3.7387,3.6866,3.6776,3.7357,3.6836,3.6776,3.7375,3.6836,3.6523,3.6523,3.6523,3.6806,3.7387,0.0,0.0,0.0,0.0,0.0,0.0,0.0,0.0,0.0,0.0,0.0,0.0,0.0,0.0,0.0,0.0,0.0,0.0,0.0,0.0,0.0,0.0,3.4248,3.3114,3.3767,3.4345,3.4345,3.5141,3.5905,3.6503,3.6855,3.746,3.8556,3.8668,3.8988,3.9645,3.9882,4.0094,4.035,4.1175,4.1728,4.2005,4.2618,4.307,4.329,4.329,4.329,4.329,4.329,4.329,4.329,4.329,4.329,4.3319,4.3818,4.4027,4.3938,4.31,4.2771,4.2771,4.2771,4.2771,4.2771,4.2771,4.2771,4.2771,4.2771,4.2771,4.2771,4.2771,4.2771,4.2771,4.2771,4.2771,4.2771,4.2771,4.2771,4.2671,4.2211,4.2141,4.1991,4.1493,4.1254,4.1134,4.1134,4.0834,4.0266,3.9272,3.8973,3.8853,3.8853,3.8853,0.0,3.8182,3.8123,3.7943,3.7464,3.7387,3.7387,3.7387,3.7255,3.7225,3.7404,3.7255,3.7225,3.7404,3.7255,3.7165,3.7165,3.7165,3.7225,0.0,0.0,0.0,0.0,0.0,0.0,0.0,0.0,0.0,0.0,0.0,0.0,0.0,0.0,0.0,0.0,0.0,0.0,0.0,0.0,0.0,0.0,3.5224,3.5427,3.5265,3.5444,3.5531,3.5427,3.6406,3.7224,3.7655,3.8386,3.915,4.002,4.009,4.0379,4.1155,4.1176,4.1344,4.172,4.2526,4.2969,4.2969,4.3725,4.4147,4.4147,4.4147,4.4147,4.4147,4.4147,4.4147,4.4147,4.4147,4.4147,4.4177,4.4556,4.4736,0.0,0.0,0.0,0.0,0.0,4.329,4.329,4.329,4.329,4.329,4.329,4.329,4.329,4.329,4.329,4.329,4.329,4.329,4.329,4.329,4.329,4.322,4.2851,4.2761,4.2671,4.2282,4.2002,4.1822,4.1822,4.1583,0.0,4.0367,4.0008,3.972,3.9451,3.9391,3.9242,3.8871,3.8811,3.8661,3.8285,3.8225,3.8225,3.8225,3.7973,0.0,0.0,0.0,3.7823,3.7823,3.7823,0.0,0.0,0.0,3.7973,3.8225,0.0,0.0,0.0,3.8978,3.9247,0.0,0.0,0.0,0.0,0.0,0.0,0.0,0.0,0.0,0.0,0.0,0.0,0.0,0.0,0.0,0.0,3.6302,3.6518,3.7838,3.7433,3.6895,3.6558,3.7774,3.8689,3.8796,3.9996,4.0845,4.0986,4.1008,4.1403,4.2332,0.0,0.0,0.0,0.0,4.4416,4.4416,4.5005,4.5304,4.5304,4.5304,4.5304,4.5304,4.5304,4.5304,4.5304,4.5304,4.5304,4.5304,4.5364,4.5454,4.5514,4.5364,4.4945,4.4326,4.3758,4.3549,4.3549,4.3549,0.0,0.0,4.3549,4.3549,4.3499,4.3459,4.3409,4.3379,4.3319,4.329,4.329,4.329,4.329,4.329,4.329,4.329,4.329,4.329,4.288,4.25,4.25,4.2032,4.1583,4.1523,4.0954,4.0307,3.972,3.9631,3.9601,3.9511,3.9511,3.9481,3.9421,0.0,0.0,3.9391,3.8841,3.8781,3.9361,3.8841,3.8512,3.8512,3.8512,3.8512,3.8512,3.8512,3.8829,3.9427,3.9445,3.9571,3.9785,3.994,4.0028,0.0,0.0,0.0,0.0,0.0,0.0,0.0,0.0,0.0,0.0,0.0,0.0,0.0,0.0,0.0,3.6417,3.7648,3.8491,3.8597,3.9499,3.9869,3.9082,3.9702,4.0477,4.1243,4.1566,4.225,4.3498,4.3569,4.3888,4.4638,4.4638,4.475,4.4915,4.5035,4.5095,4.5095,4.5244,4.5304,4.5304,0.0,0.0,4.5304,4.5304,4.5304,4.5304,4.5304,4.5304,4.5334,4.5882,4.6441,4.68,4.5723,4.5214,4.5095,4.4975,4.4915,4.4915,4.4915,4.4915,4.4915,4.4915,4.4915,4.4825,4.4267,4.4117,0.0,4.3439,4.329,4.329,4.329,4.329,4.329,4.329,4.329,4.329,4.329,4.322,4.313,4.313,4.301,4.2771,4.2271,4.1643,4.1164,4.1025,4.1014,4.0834,4.0277,4.0217,4.0008,3.9451,3.9391,3.9391,3.9391,3.9272,3.9272,3.9391,3.9272,3.9212,3.9212,3.9212,3.9212,3.9212,3.9212,3.9361,3.9643,3.9785,4.0011,4.0174,4.0064,4.0099,0.0,0.0,0.0,0.0,0.0,0.0,0.0,0.0,0.0,0.0,0.0,3.4753,0.0,0.0,3.6508,3.8208,3.8842,3.9441,4.0468,4.1243,4.1295,4.0266,4.0809,4.1499,4.1935,4.2708,4.3462,4.4246,4.4616,4.4945,4.5274,4.5304,4.5304,4.5304,4.5633,4.5813,4.5813,4.6142,4.6292,4.6292,4.6292,4.6292,4.6292,4.6292,4.6292,4.6292,4.6292,4.6292,4.6322,4.6659,4.6988,4.7249,4.6561,4.6112,4.5753,4.5424,4.5304,4.5304,4.5304,4.5304,4.5304,4.5304,4.5304,4.5244,4.4915,4.4796,4.4736,4.4386,4.4296,4.4296,4.4296,4.4296,4.4296,4.4296,4.4296,4.4207,4.3878,4.3818,4.3698,4.3369,4.329,4.322,4.291,4.2581,4.2132,4.1493,4.1403,4.1283,4.0954,4.0894,4.0756,4.0427,4.0397,4.0277,3.9948,3.9601,3.9391,3.9391,3.9391,3.9391,3.9391,3.9391,3.9571,3.99,3.99,4.0123,4.0563,4.0746,4.0946,4.1145,4.1145,4.11,0.0,0.0,0.0,0.0,0.0,0.0,0.0,0.0,3.4079,3.5142,3.5366,3.5936,3.772,3.7509,3.7872,4.0215,4.0111,4.0362,4.2134,4.25,4.2268,4.1438,4.1868,4.2281,4.2447,4.3582,4.4416,4.4655,4.5185,4.5544,4.5663,4.5693,4.5693,4.5693,4.6211,4.648,4.648,4.704,4.7309,4.7309,4.7309,4.7309,4.7309,4.7309,4.7309,4.7309,4.7309,4.7309,4.7309,4.7309,4.7309,4.7309,4.7309,4.6958,4.642,4.5903,4.5693,4.5693,4.5693,4.5693,4.5693,4.5693,4.5693,4.5663,4.5544,4.5484,4.5454,4.5334,4.5304,4.5304,4.5304,4.5304,4.5304,4.5304,4.5304,4.5155,4.4616,4.4476,4.4326,4.3788,4.3698,4.3668,4.3519,4.3469,4.31,4.1923,4.1773,4.1733,4.1613,4.1583,4.1553,4.1403,4.1403,4.1194,4.0636,4.0098,3.978,3.978,3.978,3.978,3.978,3.978,4.0038,4.0576,4.0576,4.0864,4.146,4.1667,4.1873,4.2058,4.2383,4.229,3.309,3.3261,3.3428,3.362,3.3683,3.3911,0.0,0.0,3.5406,3.6456,3.6671,3.716,3.8659,3.8871,3.9372,4.1013,4.1705,4.2134,4.2361,4.2851,4.3349,4.3844,4.3438,4.3379,4.3975,4.4196,4.4775,4.6001,4.6151,4.645,4.704,4.707,4.707,4.707,4.716,4.7189,4.7189,4.7279,4.7309,4.7309,4.7309,4.7309,4.7309,4.7309,4.7309,4.7309,4.7309,4.7309,4.7309,4.7309,4.7309,4.7309,4.7309,4.7249,4.7189,4.71,4.707,4.707,4.707,4.707,4.707,4.707,4.707,4.698,4.636,4.6181,4.6061,4.5454,4.5304,4.5304,4.5304,4.5304,4.5304,4.5304,4.5304,4.5274,4.5185,4.5185,4.5155,4.5095,4.5065,4.4885,4.4296,4.4177,4.3938,4.322,4.31,4.2891,4.2381,4.2291,4.2081,4.1463,4.1403,4.1373,4.1283,4.1224,4.1194,4.1194,4.1194,4.1194,4.1194,4.1194,4.1224,4.1283,4.1283,4.1419,4.1678,4.1854,4.2058,4.231,4.3094,4.3125,3.3386,3.3513,0.0,0.0,3.4635,3.4877,3.5822,3.6041,3.6468,3.7899,3.8169,3.864,4.0144,4.0444,4.0766,0.0,4.2231,4.2511,4.288,4.3459,4.3997,4.4267,4.4386,4.4566,4.4855,4.5224,4.5702,4.6271,4.6659,4.6988,4.7309,4.7309,4.7309,4.7309,4.7309,4.7309,4.7309,4.7309,4.7309,4.7309,4.7309,4.7309,4.7309,4.7309,4.7309,4.7309,4.7309,4.7309,4.7309,4.7309,4.7309,4.7309,4.7309,4.7309,4.7309,4.7309,4.7309,4.7309,4.7309,4.7309,4.7309,4.7309,4.7309,4.7249,4.698,4.6869,4.6809,4.6531,4.6471,4.6471,4.6471,4.6471,4.6471,4.6471,4.6471,4.6352,4.5992,4.5882,4.5783,4.5364,4.5304,4.5214,4.4915,4.4885,4.4796,4.4526,4.3818,4.322,4.297,4.291,4.2821,4.2551,4.2211,4.1972,4.1972,4.1613,4.1403,4.1403,4.1403,4.1403,4.1403,4.1403,4.1583,4.1972,4.1972,4.219,4.2618,4.285,4.3111,4.329,4.3773,4.3924,3.3974,0.0,0.0,3.5487,3.5878,3.6235,3.7108,3.7416,3.7964,3.943,3.9709,4.0135,4.1458,4.1673,4.1882,4.2541,4.2661,4.287,4.3489,4.3997,4.4446,4.4805,4.5274,4.5663,4.5813,4.6121,4.639,4.657,4.704,4.7309,4.7309,4.7309,4.7309,4.7309,4.7309,4.7309,4.7309,4.7309,4.7309,4.7309,4.7309,4.7309,4.7309,4.7309,4.7309,4.7309,4.7309,4.7309,4.7309,4.7309,4.7309,4.7309,4.7309,4.7309,4.7309,4.7309,4.7309,4.7309,4.7309,4.7309,4.7309,4.7309,4.7309,4.7309,4.7309,4.7309,4.7309,4.7309,4.7309,4.7309,4.7309,4.7309,4.7309,4.7309,4.7309,4.7189,4.6659,4.657,4.642,4.5933,4.5843,4.5783,4.5603,4.5574,4.5514,4.5334,4.4476,4.3848,4.3848,4.3698,4.3519,4.3319,4.291,4.2661,4.2661,4.2211,4.1923,4.1923,4.1923,4.1923,4.1923,4.1923,4.2132,4.2631,4.2661,4.292,4.3389,4.3836,4.4163,4.4378,4.4755,4.4991,3.4897,0.0,3.5528,3.6574,3.7324,3.804,3.8842,3.9518,4.0237,4.1154,4.1335,4.1534,4.2261,4.2381,4.2571,4.316,4.326,4.3519,4.4177,4.4296,4.4775,4.6091,4.6271,4.654,0.0,4.6659,4.657,4.7219,4.7309,4.7309,4.7309,4.7309,4.7309,4.7309,4.7309,4.7309,4.7309,4.7309,4.7309,4.7309,4.7309,4.7309,4.7309,4.7309,4.7309,4.7309,4.7309,4.7309,4.7309,4.7309,4.7309,4.7309,4.7309,4.7309,4.7309,4.7309,4.7309,4.7309,4.7309,4.7309,4.7309,4.7309,4.7309,4.7309,4.7309,4.7309,4.7309,4.7309,4.7309,4.7309,4.7309,4.7309,4.7309,4.7309,4.7309,4.7309,4.7279,4.7279,4.7279,4.7249,4.7249,4.704,4.639,4.6271,4.6031,4.5394,4.5274,4.5244,4.5244,4.4676,4.4027,4.3349,4.326,4.326,4.326,4.323,4.323,4.323,4.323,4.323,4.323,4.323,4.323,4.326,4.326,4.3409,4.3675,4.4526,4.5047,4.5295,4.6135,4.6542,3.5816,0.0,3.6528,3.7986,3.8524,3.9044,4.0338,4.0795,4.1169,4.1904,4.2081,4.2241,4.288,4.3,4.304,4.326,4.3668,4.4027,4.4267,4.5074,4.5792,4.6241,4.6689,0.0,0.0,0.0,0.0,4.7279,4.7309,4.7309,4.7309,4.7309,4.7309,4.7309,4.7309,4.7309,4.7309,4.7309,4.7309,4.7309,4.7309,4.7309,4.7309,4.7309,4.7309,4.7309,4.7309,4.7309,4.7309,4.7309,4.7309,4.7309,4.7309,4.7309,4.7309,4.7309,4.7309,4.7309,4.7309,4.7309,4.7309,4.7309,4.7309,4.7309,4.7309,4.7309,4.7309,4.7309,4.7309,4.7309,4.7309,4.7309,4.7309,4.7309,4.7309,4.7309,4.7309,4.7309,4.7309,4.7309,4.7309,4.7249,4.6988,4.6958,4.689,4.6651,4.5873,4.5304,4.5304,4.5095,4.4885,4.4646,4.4646,4.4646,4.4646,4.4646,4.4646,4.4646,4.4646,4.4646,4.4646,4.4646,4.4646,4.4646,4.4789,4.4941,4.5022,4.5455,4.5768,4.5967,4.6242,4.6484,3.7097,3.7388,3.788,3.9536,4.0088,4.0536,4.1528,4.1912,4.2192,4.2631,4.272,4.2851,4.325,4.329,4.3399,4.3638,4.4027,4.4476,4.4954,4.5762,4.639,4.6629,4.704,4.7309,0.0,0.0,0.0,4.7309,4.7309,4.7309,4.7309,4.7309,4.7309,4.7309,4.7309,4.7309,4.7309,4.7309,4.7309,4.7309,4.7309,4.7309,4.7309,4.7309,4.7309,4.7309,4.7309,4.7309,4.7309,4.7309,4.7309,4.7309,4.7309,4.7309,4.7309,4.7309,4.7309,4.7309,4.7309,4.7309,4.7309,4.7309,4.7309,4.7309,4.7309,4.7309,4.7309,4.7309,4.7309,4.7309,4.7309,4.7309,4.7309,4.7309,4.7309,4.7309,4.7309,4.7309,4.7309,4.7309,4.7309,4.7309,4.7309,4.7309,4.7309,4.7309,4.6561,4.5933,4.5693,4.5663,4.5574,4.5334,4.5304,4.5304,4.5304,4.5304,4.5304,4.5304,4.5304,4.5304,4.5304,4.5304,4.5304,4.5304,4.5582,4.5746,4.5808,4.6244,4.657,4.6772,4.7017,4.717,3.8717,3.9189,3.9574,4.1064,4.1931,4.241,4.244,4.288,4.329,4.329,4.329,4.329,0.0,0.0,4.3499,4.4177,4.4326,4.4805,4.6121,4.633,4.66,0.0,0.0,0.0,0.0,0.0,0.0,4.7309,0.0,4.7309,4.7309,4.7309,4.7309,4.7309,4.7309,4.7309,4.7309,4.7309,4.7309,4.7309,4.7309,4.7309,4.7309,4.7309,4.7309,4.7309,4.7309,4.7309,4.7309,4.7309,4.7309,4.7309,4.7309,4.7309,4.7309,4.7309,4.7309,4.7309,4.7309,4.7309,4.7309,4.7309,4.7309,4.7309,4.7309,4.7309,4.7309,4.7309,4.7309,4.7309,4.7309,4.7309,4.7309,4.7309,4.7309,4.7309,4.7309,4.7309,4.7309,4.7309,4.7309,4.7309,4.7309,4.7309,4.7309,4.7309,4.7309,4.7048,4.642,4.636,4.6091,4.5454,4.5394,4.5394,4.5394,4.5394,4.5394,4.5394,4.5394,4.5394,4.5394,4.5394,4.5415,4.5415,4.5693,4.5919,4.6123,4.6956,4.7446,4.7681,4.8276,4.8583,3.9729,4.0332,4.1037,4.1934,4.2261,4.2511,4.297,4.319,4.329,4.329,4.329,4.329,0.0,0.0,0.0,4.4177,4.4736,0.0,4.6181,4.6719,0.0,4.7279,0.0,4.7309,4.7309,4.7309,0.0,0.0,4.7309,4.7309,4.7309,4.7309,4.7309,4.7309,4.7309,4.7309,4.7309,4.7309,4.7309,4.7309,4.7309,4.7309,4.7309,4.7309,4.7309,4.7309,4.7309,4.7309,4.7309,4.7309,4.7309,4.7309,4.7309,4.7309,4.7309,4.7309,4.7309,4.7309,4.7309,4.7309,4.7309,4.7309,4.7309,4.7309,4.7309,4.7309,4.7309,4.7309,4.7309,4.7309,4.7309,4.7309,4.7309,4.7309,4.7309,4.7309,4.7309,4.7309,4.7309,4.7309,4.7309,4.7309,4.7309,4.7309,4.7309,4.7309,4.7309,4.7249,4.707,4.707,4.698,4.68,4.68,4.68,4.68,4.68,4.68,4.68,4.68,4.68,4.68,4.68,4.6865,4.7005,4.7259,4.7511,4.772,4.808,4.8296,4.8337,4.8522,4.8583,4.0953,4.1477,4.2002,4.2631,4.2791,4.288,4.322,4.329,4.329,4.329,4.329,0.0,4.329,4.3549,0.0,0.0,0.0,0.0,4.6629,4.7048,4.7309,0.0,4.7309,0.0,4.7309,4.7309,4.7309,0.0,4.7309,4.7309,4.7309,4.7309,4.7309,4.7309,4.7309,4.7309,4.7309,4.7309,4.7309,4.7309,4.7309,4.7309,4.7309,4.7309,4.7309,4.7309,0.0,4.7309,4.7309,4.7309,4.7309,4.7309,4.7309,4.7309,4.7309,4.7309,4.7309,4.7309,4.7309,4.7309,4.7309,4.7309,4.7309,4.7309,4.7309,4.7309,4.7309,4.7309,4.7309,4.7309,4.7309,4.7309,4.7309,4.7309,4.7309,4.7309,4.7309,4.7309,4.7309,4.7309,4.7309,4.7309,4.7309,4.7309,4.7309,4.7309,4.7309,4.7309,4.7309,4.7309,4.7309,4.7309,4.7309,4.7309,4.7309,4.7309,4.7309,4.7309,4.7396,4.7409,4.7409,4.7538,4.7645,4.7773,4.8007,4.8197,4.8301,4.848,4.8583,4.8583,4.8583,4.8583,4.2081,4.247,4.2661,4.316,4.329,4.329,4.329,4.329,4.329,4.329,0.0,4.329,4.329,4.3848,4.4506,4.5185,0.0,4.654,4.7219,4.7309,4.7309,4.7309,4.7309,4.7309,4.7309,4.7309,4.7309,4.7309,4.7309,4.7309,4.7309,4.7309,4.7309,4.7309,4.7309,4.7309,4.7309,4.7309,4.7309,4.7309,4.7309,4.7309,4.7309,4.7309,4.7309,4.7309,4.7309,4.7309,4.7309,4.7309,4.7309,4.7309,4.7309,4.7309,4.7309,4.7309,4.7309,4.7309,4.7309,4.7309,4.7309,4.7309,4.7309,4.7309,4.7309,4.7309,4.7309,4.7309,4.7309,4.7309,4.7309,4.7309,4.7309,4.7309,4.7309,4.7309,4.7309,4.7309,4.7309,4.7309,4.7309,4.7309,4.7309,4.7309,4.7309,4.7309,4.7309,4.7309,4.7309,4.7309,4.7309,4.7309,4.7309,4.7309,4.7309,4.7309,4.7309,4.7309,4.7452,4.7559,4.7602,4.7816,4.7986,4.8049,4.8218,4.8322,4.8343,4.85,4.8583,4.8583,4.8583,4.8583,4.2351,4.278,4.316,4.326,4.329,4.329,4.329,4.329,0.0,0.0,4.329,4.329,4.329,4.3848,4.4506,4.5185,4.5852,4.654,4.7219,4.7309,4.7309,0.0,4.7309,4.7309,4.7309,4.7309,0.0,0.0,4.7309,4.7309,4.7309,4.7309,4.7309,4.7309,4.7309,4.7309,4.7309,4.7309,4.7309,4.7309,4.7309,4.7309,4.7309,4.7309,4.7309,4.7309,4.7309,0.0,4.7309,4.7309,4.7309,4.7309,4.7309,4.7309,4.7309,4.7309,4.7309,4.7309,4.7309,4.7309,4.7309,4.7309,4.7309,4.7309,4.7309,4.7309,4.7309,4.7309,4.7309,4.7309,4.7309,4.7309,4.7309,4.7309,4.7309,4.7309,4.7309,4.7309,4.7309,4.7309,4.7309,4.7309,4.7309,4.7309,4.7309,4.7309,4.7309,4.7309,4.7309,4.7309,4.7309,4.7309,4.7309,4.7309,4.7309,4.7309,4.7309,4.7309,4.7331,4.7439,4.7581,4.7645,4.7858,4.8239,4.8301,4.8355,4.8542,4.8563,4.8583,4.8583,4.8583,4.8583,4.2761,4.307,4.329,4.329,4.329,4.329,4.329,0.0,0.0,0.0,4.329,4.3409,4.3758,4.4377,0.0,4.5702,4.636,4.6929,4.7249,4.7309,0.0,4.7309,4.7309,4.7309,0.0,4.7309,4.7309,4.7309,4.7309,4.7309,4.7309,4.7309,4.7309,4.7309,4.7309,4.7309,4.7309,4.7638,4.7818,4.7818,4.8147,4.8349,4.8349,4.8349,4.8349,4.8349,4.8349,4.8349,4.8349,4.8349,4.8349,4.8349,4.8349,4.8349,4.8349,4.8349,4.8349,4.8349,4.8349,4.8349,4.8349,4.8349,4.7848,4.7309,4.7309,4.7309,4.7309,4.7309,4.7309,4.7309,4.7309,4.7309,4.7309,4.7309,4.7309,4.7309,4.7309,4.7309,4.7309,4.7309,4.7309,4.7309,4.7309,4.7309,4.7309,4.7309,4.7309,4.7309,4.7309,4.7309,4.7309,4.7309,4.7309,4.7309,4.7309,4.7309,4.7352,4.746,4.7611,4.7752,4.7964,4.807,4.8239,4.8438,4.8469,4.848,4.8583,4.8583,4.8583,4.8583,4.8583,4.8583,4.316,4.329,4.329,4.329,4.329,4.329,4.329,4.329,0.0,0.0,4.3409,4.3698,4.4207,0.0,4.5693,0.0,4.6839,4.7309,4.7309,4.7309,4.7309,0.0,4.7309,0.0,4.7309,4.7309,0.0,4.7489,4.7638,4.7608,4.7309,4.7429,4.7519,4.7519,4.7638,4.7728,4.7728,4.8259,4.8528,4.8528,4.9037,4.9277,4.9277,4.9277,4.9277,4.9277,4.9277,4.9277,4.9277,4.9277,4.9277,4.9277,4.9277,4.9277,4.9277,4.9277,4.9277,4.9277,4.9277,4.9277,4.9277,4.9277,4.8588,4.7728,4.7728,4.7638,4.7519,4.7519,4.7429,4.7309,4.7309,4.7309,4.7309,4.7309,4.7429,4.7489,4.7339,4.7429,4.7489,4.7339,4.7309,4.7309,4.7309,4.7309,4.7309,4.7309,4.7309,4.7309,4.7309,4.7309,4.7331,4.7374,4.7331,4.7309,4.7309,4.7309,4.7396,4.7581,4.7794,4.8028,4.8301,4.8438,4.8542,4.8583,4.8583,4.8583,4.8583,4.8583,4.8583,4.8583,4.8583,4.8583,4.326,4.329,4.329,4.329,4.329,4.329,4.329,0.0,0.0,4.329,4.3788,4.4237,4.4296,4.5343,4.6241,0.0,0.0,4.7309,4.7309,4.7309,4.7309,4.7309,0.0,0.0,4.7309,4.7309,4.7549,4.8147,4.8768,4.8588,4.7369,4.7878,4.8229,4.8229,4.8798,4.9097,4.9097,4.9157,4.9187,4.9187,4.9247,4.9277,4.9277,4.9277,4.9277,4.9277,4.9277,4.9277,0.0,4.9277,4.9277,4.9277,4.9277,4.9277,4.9277,4.9277,4.9277,4.9277,4.9277,4.9277,4.9277,4.9277,4.9239,4.9097,4.9097,4.8678,4.8229,4.8229,4.7758,4.7309,4.7309,4.7309,4.7309,4.7309,4.7758,4.8027,4.7429,4.7788,4.8027,4.7429,4.7309,4.7309,4.7309,4.7309,4.7309,4.7309,4.7309,4.7309,4.7309,4.7309,4.7374,4.7538,4.7417,4.7309,4.7309,4.7309,4.7396,4.7581,4.7624,4.7837,4.8301,4.8322,4.8396,4.8583,4.8583,4.8583,4.8583,4.8583,4.8583,4.8583,4.8583,4.8583,4.329,4.329,4.329,4.329,4.329,4.329,4.329,0.0,4.3409,4.3818,4.4117,4.4536,4.5343,4.5942,4.642,4.6839,4.713,0.0,4.7309,4.7309,4.7459,4.7848,4.7549,0.0,0.0,0.0,4.8199,4.8858,4.9157,4.9067,4.8528,4.8768,4.8887,4.8887,4.9157,4.9277,4.9277,4.9643,4.9853,4.9853,5.0242,5.0451,5.0451,5.0451,5.0451,5.0451,5.0451,5.0451,0.0,5.0451,5.0451,5.0451,5.0451,5.0451,5.0451,5.0451,5.0451,5.0451,5.0451,5.0451,5.0451,5.0451,5.0451,5.0301,4.9516,4.9097,4.8887,4.8887,4.8708,4.8498,4.8498,4.8498,4.8498,4.8498,4.8708,4.8828,4.8558,4.8708,4.8828,4.8558,4.8498,4.8498,4.8498,4.8498,4.8498,4.8498,4.8498,4.8498,4.8498,4.8169,4.7965,4.8183,4.7757,4.7568,4.7688,4.7709,4.7816,4.8007,4.8028,4.8175,4.8489,4.8459,4.85,4.8583,4.8583,4.8583,4.8583,4.8583,4.8583,4.8583,4.8583,4.8583,4.329,4.329,4.329,4.329,4.329,4.3349,0.0,0.0,4.3788,4.4446,4.4745,4.5164,4.6121,4.645,4.6749,4.7219,4.7309,4.7309,4.7309,4.7309,4.7549,0.0,0.0,4.8027,0.0,4.9015,4.9045,4.9523,4.9756,4.9875,4.9875,4.9875,4.9786,4.9576,4.9756,4.9875,4.9875,5.0278,5.0518,5.0518,5.0966,5.1206,5.1206,5.1206,5.1206,5.1206,5.1206,5.1206,0.0,5.1206,5.1206,5.1206,5.1206,5.1206,5.1206,5.1206,5.1206,5.1206,5.1206,5.1206,5.1206,5.1206,5.1206,5.1026,5.0122,4.9726,4.9576,4.9576,4.9426,4.9277,4.9277,4.9277,4.9277,4.9277,4.9426,4.9516,4.9337,4.9426,4.9516,4.9307,4.9277,4.9277,4.9277,4.9277,4.9277,4.9277,4.9277,4.9277,4.9277,4.8887,4.8699,4.8986,4.8585,4.8248,4.8016,4.8189,4.8396,4.8577,4.876,4.8988,4.9199,4.922,4.922,4.922,4.922,4.922,4.922,4.922,4.922,4.922,4.922,4.922,4.329,4.329,4.329,4.329,4.329,4.3469,0.0,4.4296,4.4496,4.5155,4.5822,4.63,4.63,4.6839,4.7309,4.7309,4.7309,4.7309,4.7309,4.7309,0.0,0.0,0.0,4.8558,4.9217,4.983,5.0166,5.0196,5.0817,0.0,5.1176,5.1176,5.0877,5.0196,5.0847,5.1176,5.1176,5.1176,5.1176,5.1176,5.1206,5.1206,5.1206,5.1206,5.1206,5.1206,5.1206,5.1206,0.0,5.1206,5.1206,5.1206,5.1206,5.1206,5.1206,5.1206,5.1206,5.1206,5.1206,5.1206,5.1206,5.1206,5.1206,5.1206,5.1176,5.0727,5.0196,5.0196,4.9763,4.9277,4.9277,4.9277,4.9277,4.9277,4.9763,5.0039,4.9426,4.9763,5.0009,4.9426,4.9277,4.9277,4.9277,4.9277,4.9277,4.9277,4.9277,4.9277,4.9277,4.9277,4.9456,4.9954,4.9998,4.9452,4.8107,4.8614,4.9065,4.928,4.9891,5.0397,5.0667,5.0667,5.0667,5.0667,5.0667,5.0667,5.0667,5.0667,5.0667,5.0667,5.0667,5.0667,4.329,4.329,4.329,4.329,4.3618,4.4027,4.4237,4.4646,4.5185,4.5852,4.6151,4.645,4.6899,4.716,4.7309,4.7309,4.7309,4.7309,0.0,0.0,0.0,4.8887,4.9733,5.0212,0.0,0.0,5.0877,5.0877,5.1086,5.1206,5.1206,5.1206,5.1086,5.0877,5.1086,5.1206,5.1206,5.1206,5.1206,5.1206,5.1206,5.1206,5.1206,5.1206,5.1206,5.1206,5.1206,5.1206,5.1206,5.1206,5.1206,5.1206,5.1206,5.1206,5.1206,5.1206,5.1206,5.1206,5.1206,5.1206,5.1206,5.1206,5.1206,5.1206,5.1206,5.1056,5.0877,5.0877,5.0727,5.0601,5.0601,5.0601,5.0601,5.0601,5.0727,5.0817,5.0631,5.0727,5.0817,5.0631,5.0601,5.0601,5.0601,5.0601,5.0601,5.0601,5.0601,5.0601,5.0601,5.0372,5.0329,5.0674,5.0396,5.0092,4.9868,5.0042,5.0187,5.0251,5.0466,5.0632,5.0697,5.0697,5.0697,5.0697,5.0697,5.0697,5.0697,5.0697,5.0697,5.0697,5.0697,5.0697,0.0,4.329,4.3349,4.3609,4.3997,0.0,4.4925,4.5373,4.5873,4.654,4.6659,4.6779,4.7219,4.7309,4.7309,4.7309,4.7309,0.0,0.0,0.0,0.0,4.9523,0.0,0.0,0.0,5.0936,5.1206,5.1206,5.1206,5.1206,5.1206,5.1206,5.1206,5.1206,5.1206,5.1206,5.1206,5.1206,5.1206,5.1206,5.1206,5.1206,5.1206,5.1206,5.1206,5.1206,5.1206,5.1206,0.0,5.1206,5.1206,5.1206,5.1206,5.1206,5.1206,5.1206,5.1206,5.1206,5.1206,5.1206,5.1206,5.1206,5.1206,5.1206,5.1206,5.1206,5.1206,5.1206,5.1206,5.1206,5.1206,5.1206,5.1206,5.1206,5.1206,5.1206,5.1206,5.1206,5.1206,5.1206,5.1206,5.1206,5.1206,5.1206,5.1206,5.1206,5.1206,5.1206,5.1206,5.1079,5.1061,5.1342,5.1194,5.1141,5.1445,5.1221,5.1067,5.1067,5.1313,5.1436,5.1436,5.1436,5.1436,5.1436,5.1436,5.1436,5.1436,5.1436,5.1436,5.1436,5.1436,5.1436,0.0,4.3349,0.0,0.0,0.0,0.0,4.6031,4.633,0.0,4.7189,4.7309,4.7309,4.7309,4.7309,4.7309,4.7309,4.7309,0.0,0.0,4.7997,0.0,0.0,5.0817,0.0,5.1206,5.1206,5.1206,5.1206,5.1206,5.1206,5.1206,5.1206,5.1206,5.1206,5.1206,5.1206,5.1206,5.1206,5.1206,5.1206,5.1206,5.1206,5.1206,5.1206,5.1206,0.0,5.1206,5.1206,5.1206,5.1206,5.1206,5.1206,5.1206,5.1206,5.1206,5.1206,5.1206,5.1206,5.1206,5.1206,5.1206,5.1206,5.1206,5.1206,5.1206,5.1206,5.1206,5.1206,5.1206,5.1206,5.1206,5.1206,5.1206,5.1206,5.1206,5.1206,5.1206,5.1206,5.1206,5.1206,5.1206,5.1206,5.1206,5.1206,5.1206,5.1206,5.1206,5.1229,5.1229,5.1486,5.1741,5.1972,5.2223,5.2419,5.2676,5.2144,5.1775,5.1775,5.2359,5.2676,5.2676,5.2676,5.2676,5.2676,5.2676,5.2676,5.2676,5.2676,5.2676,5.2676,5.2676,5.2676,4.3888,0.0,4.4087,4.4267,4.5074,4.5912,0.0,4.6689,4.713,4.7279,0.0,4.7309,4.7309,4.7309,4.7309,4.7309,0.0,0.0,4.7967,0.0,0.0,5.0877,5.1086,5.1206,5.1206,5.1206,5.1206,5.1206,5.1206,5.1206,5.1206,5.1206,5.1206,5.1206,5.1206,5.1206,5.1206,5.1206,5.1206,5.1206,5.1206,5.1206,5.1206,5.1206,5.1206,5.1206,5.1206,5.1206,5.1206,5.1206,5.1206,5.1206,5.1206,5.1206,5.1206,5.1206,5.1206,5.1206,5.1206,5.1206,5.1206,5.1206,5.1206,5.1206,5.1206,5.1206,5.1206,5.1206,5.1206,5.1206,5.1206,5.1206,5.1206,5.1206,5.1206,5.1206,5.1206,5.1206,5.1206,5.1206,5.1206,5.1206,5.1206,5.1206,5.1206,5.1206,5.1206,5.1276,5.1456,5.1741,5.1994,5.2193,5.2473,5.2631,5.2676,5.2575,5.246,5.246,5.2614,5.2676,5.2676,5.2676,5.2676,5.2676,5.2676,5.2676,5.2676,5.2676,5.2676,5.2676,5.2676,5.2676,4.4097,4.4296,4.4446,4.5044,4.5762,0.0,0.0,0.0,0.0,0.0,0.0,4.7309,4.7309,4.7309,0.0,0.0,4.7309,0.0,0.0,0.0,5.0458,5.1116,5.1206,5.1206,0.0,5.1206,5.1206,5.1206,5.1206,5.1206,5.1206,5.1206,5.1206,5.1206,5.1206,5.1206,5.1206,5.1206,5.1206,5.1206,5.1206,5.1206,5.1206,5.1206,5.1206,5.1206,5.1206,5.1355,5.1678,5.1678,5.1858,5.2127,5.2127,5.2127,5.2127,5.2127,5.2127,5.2127,5.2127,5.2127,5.2127,5.2127,5.2127,5.2127,5.2127,5.2127,5.2007,5.1355,5.1206,5.1206,5.1206,5.1206,5.1206,5.1206,5.1206,5.1206,5.1206,5.1206,5.1253,5.1369,5.1363,5.1439,5.1556,5.1556,5.1556,5.1556,5.1556,5.1625,5.1764,5.1994,5.22,5.2284,5.2541,5.2676,5.2676,5.2676,5.2676,5.2676,5.2676,5.2676,5.2676,5.2676,5.2676,5.2676,5.2676,5.2676,5.2676,5.2676,5.2676,5.2676,5.2676,5.2676,4.4226,4.4536,4.4865,4.6031,4.639,0.0,0.0,0.0,0.0,0.0,0.0,0.0,0.0,4.7309,0.0,0.0,0.0,0.0,4.9277,4.9972,5.0578,5.1116,5.1206,0.0,5.1206,5.1206,5.1206,5.1206,5.1206,5.1206,5.1206,5.1206,5.1236,5.1355,5.1355,5.1385,5.1475,5.1295,5.1206,5.1206,5.1295,5.1355,5.1379,5.1445,5.1528,5.1528,0.0,0.0,5.2336,5.2336,5.2665,5.3198,5.3198,5.3198,5.3198,5.3198,5.3198,5.3198,5.3198,5.3198,5.3198,5.3198,5.3198,5.3198,5.3198,5.3198,5.2959,5.1828,5.1528,5.1528,5.1528,5.1528,5.1528,5.1528,5.1528,5.1528,5.1528,5.1528,5.1599,5.1827,5.1927,5.1967,5.2108,5.2154,5.2123,5.2002,5.2002,5.2025,5.2017,5.217,5.2329,5.2352,5.2563,5.2676,5.2676,5.2676,5.2676,5.2676,5.2676,5.2676,5.2676,5.2676,5.2676,5.2676,5.2676,5.2676,5.2676,5.2676,5.2676,5.2676,5.2676,5.2676,4.4975,4.5574,4.6031,4.6241,4.6719,0.0,0.0,0.0,0.0,0.0,0.0,0.0,0.0,4.7309,4.7309,0.0,0.0,4.9247,0.0,0.0,5.1086,5.1176,0.0,5.1206,5.1206,5.1206,5.1206,5.1206,5.1206,5.1206,5.1206,5.1206,5.1445,5.2037,5.2067,5.2306,5.2899,5.1768,5.1206,5.1206,5.1798,5.2067,5.2067,5.2636,5.2899,5.2899,0.0,5.2959,5.3049,5.3049,5.3109,5.3198,5.3198,5.3198,5.3198,5.3198,5.3198,5.3198,5.3198,5.3198,5.3198,5.3198,5.3198,5.3198,5.3198,5.3198,5.3169,5.2959,5.2899,5.2899,5.2899,5.2899,5.2899,5.2899,5.2899,5.2899,5.2899,5.2899,5.2972,5.3242,5.329,5.3181,5.2896,5.2852,5.2639,5.2093,5.2002,5.204,5.2215,5.2284,5.2374,5.2608,5.2676,5.2676,5.2676,5.2676,5.2676,5.2676,5.2676,5.2676,5.2676,5.2676,5.2676,5.2676,5.2676,5.2676,5.2676,5.2676,5.2676,5.2676,5.2676,5.2676,4.5574,4.6061,4.639,4.6749,0.0,0.0,0.0,0.0,0.0,0.0,0.0,0.0,0.0,0.0,4.7429,4.7788,0.0,4.9516,5.0129,5.0787,5.1206,0.0,0.0,5.1206,5.1206,5.1206,5.1206,5.1206,5.1206,5.1355,5.1738,5.1738,5.2067,5.2725,5.2725,5.2899,5.3198,5.2576,5.2276,5.2276,5.2576,5.2725,5.2725,5.3079,5.3198,5.3198,0.0,5.3408,5.3743,5.3743,5.3952,5.4306,5.4306,5.4306,5.4306,5.4306,5.4306,5.4306,5.4306,5.4306,5.4306,5.4306,5.4306,5.4306,5.4306,5.4306,5.4306,5.4306,5.3767,5.3198,5.3198,5.3198,5.3198,5.3198,5.3198,5.3223,5.3398,5.3423,5.3543,5.3951,5.4023,5.4003,5.3934,5.3919,5.3828,5.3522,5.3461,5.3507,5.3569,5.3592,5.3638,5.3783,5.3445,5.3229,5.3229,5.2891,5.2676,5.2676,5.2676,5.2676,5.2676,5.2676,5.2676,5.2676,5.2676,5.2676,5.2676,5.2676,5.2676,5.2676,5.2676,5.2676,4.6031,4.642,4.6659,4.7189,0.0,0.0,0.0,0.0,0.0,0.0,0.0,0.0,0.0,4.7429,0.0,4.8596,4.9187,4.9733,5.0338,5.0877,5.1206,5.1206,5.1206,5.1206,5.1206,5.1206,5.1206,5.1206,5.1355,5.1678,5.2187,5.2336,5.2725,5.3408,5.3414,5.3528,5.3677,5.3677,5.3528,5.3198,5.3378,5.3414,5.3443,5.3618,5.3677,5.3677,5.3677,5.3952,5.4431,5.4431,5.473,5.5179,5.5179,5.5179,5.5179,5.5179,5.5179,5.5179,5.5179,5.5179,5.5179,5.5179,5.5179,5.5179,5.5179,5.5179,5.5179,5.5179,5.4486,5.3677,5.3677,5.3677,5.3677,5.3677,5.3727,5.3824,5.4025,5.4122,5.4316,5.4796,5.4891,5.4877,5.4929,5.4922,5.4891,5.4737,5.4706,5.4706,5.4706,5.4706,5.4706,5.4706,5.4245,5.3937,5.3937,5.3445,5.3168,5.3168,5.286,5.2676,5.2676,5.2676,5.2676,5.2676,5.2676,5.2676,5.2676,5.2676,5.2676,5.2676,5.2676,5.2676,4.6271,4.6749,4.7249,4.7309,4.7309,0.0,4.7309,4.7309,0.0,4.7309,0.0,0.0,0.0,4.7818,4.8626,4.986,5.0076,5.0368,5.1026,0.0,5.1206,5.1206,5.1206,5.1206,5.1206,5.1206,5.1206,5.1206,5.1798,5.2157,5.2187,5.2809,5.3443,5.4132,5.4132,5.4431,5.5029,5.5059,5.4431,5.3228,5.3832,5.4132,5.4162,5.476,5.5059,5.5059,5.5059,5.5059,5.5119,5.5119,5.5149,5.5179,5.5179,5.5179,5.5179,5.5179,5.5179,5.5179,5.5179,5.5179,5.5179,5.5179,5.5179,5.5179,5.5179,5.5179,5.5179,5.5179,5.5119,5.5059,5.5059,5.5059,5.5059,5.5059,5.523,5.543,5.543,5.5654,5.5901,5.6195,5.6244,5.6102,5.5722,5.5622,5.5407,5.4799,5.4706,5.4706,5.4706,5.4706,5.4706,5.4706,5.4676,5.4645,5.4645,5.4583,5.4553,5.4553,5.3383,5.2676,5.2676,5.2676,5.2676,5.2676,5.2676,5.2676,5.2676,5.2676,5.2676,5.2676,5.2676,5.2676,4.6809,4.713,4.7309,4.7309,4.7309,0.0,0.0,4.7309,4.7309,4.7309,4.7638,0.0,0.0,0.0,4.9217,5.0069,5.0196,5.0435,5.1116,5.1206,5.1206,5.1206,5.1206,5.1206,5.1206,5.1206,5.1355,5.1798,5.2067,5.2576,5.3414,5.3683,5.4132,5.479,5.482,5.494,5.5179,5.5179,5.4965,5.4456,5.47,5.482,5.482,5.5089,5.5179,5.5179,5.5179,5.5179,5.5179,5.5179,5.5179,5.5179,5.5179,5.5179,5.5179,5.5179,5.5179,5.5179,5.5179,5.5179,5.5179,5.5179,5.5179,5.5179,5.5179,5.5179,5.5179,5.5179,5.5179,5.5179,5.5179,5.5179,5.5229,5.5406,5.5531,5.5681,5.6028,5.6176,5.6323,5.6592,5.664,5.6596,5.6392,5.6385,5.6293,5.6023,5.6016,5.6016,5.6016,5.6016,5.6016,5.6016,5.5592,5.5137,5.4737,5.4706,5.4706,5.4706,5.4214,5.3937,5.3937,5.3937,5.3937,5.3937,5.3937,5.3753,5.3322,5.3322,5.3106,5.2676,5.2676,5.2676,4.7189,4.7309,4.7309,0.0,0.0,0.0,4.7578,4.7608,4.7608,4.7608,4.8169,0.0,0.0,0.0,0.0,0.0,5.0518,5.0697,5.1146,5.1206,5.1206,5.1206,5.1206,5.1206,5.1206,5.1385,5.1708,5.2157,5.2606,5.3234,5.4162,5.4401,5.473,5.5179,5.5179,5.5179,5.5179,5.5179,5.5179,5.5179,5.5179,5.5179,5.5179,5.5179,5.5179,5.5179,5.5179,5.5179,5.5179,5.5179,5.5179,5.5179,5.5179,5.5179,5.5179,5.5179,5.5179,5.5179,5.5179,5.5179,5.5179,5.5179,5.5179,5.5179,5.5179,5.5179,5.5204,5.5305,5.533,5.533,5.5431,5.5381,5.5381,5.5656,5.578,5.5954,5.6323,5.647,5.6592,5.6761,5.681,5.681,5.681,5.681,5.681,5.681,5.681,5.681,5.681,5.681,5.681,5.681,5.6354,5.5838,5.5407,5.5376,5.5376,5.5376,5.5376,5.5168,5.4737,5.4706,5.4706,5.4706,5.4706,5.4491,5.4029,5.4029,5.3783,5.3322,5.3322,5.3322,4.7309,4.7309,4.7309,0.0,0.0,0.0,4.8169,4.8319,4.8319,4.8319,0.0,4.9486,5.0099,0.0,0.0,5.1086,5.1206,5.1206,5.1206,5.1206,5.1206,5.1206,5.1206,5.1206,5.1206,5.1828,5.2217,5.2217,5.3443,5.4221,5.4221,5.485,5.5179,5.5179,5.5179,5.5179,5.5179,5.5179,5.5179,5.5179,5.5179,5.5179,5.5179,5.5179,5.5179,5.5179,5.5179,5.5179,5.5179,5.5179,5.5179,5.5179,5.5179,5.5179,5.5179,5.5179,5.5179,5.5179,5.5179,5.5179,5.5179,5.5179,5.5179,5.5179,5.5179,5.5179,5.5255,5.5531,5.5606,5.5656,5.5929,5.5805,5.5681,5.5954,5.6201,5.6397,5.6397,5.6616,5.681,5.681,5.681,5.681,5.681,5.681,5.681,5.681,5.681,5.681,5.681,5.681,5.681,5.681,5.681,5.681,5.681,5.681,5.681,5.681,5.681,5.617,5.4799,5.4737,5.4737,5.4737,5.4737,5.4737,5.4706,5.4706,5.4706,5.4706,5.4706,5.4706,4.7309,4.7309,0.0,4.7309,0.0,0.0,0.0,4.8319,0.0,0.0,4.98,5.0129,5.0787,0.0,0.0,5.1176,5.1206,5.1206,5.1206,5.1206,5.1206,5.1206,5.1206,5.1385,5.1858,5.2097,5.2606,5.3533,5.3982,5.4401,5.488,5.5089,5.5179,5.5179,5.5179,5.5179,5.5179,5.5179,5.5179,5.5179,5.5179,5.5179,5.5179,5.5179,5.5179,5.5179,5.5179,5.5179,5.5179,5.5179,5.5179,5.5179,5.5179,5.5179,5.5179,5.5179,5.5179,5.5179,5.5179,5.5179,5.5179,5.5179,5.5179,5.5259,5.5406,5.5481,5.5531,5.5805,5.588,5.5954,5.6201,5.6225,5.6176,5.6274,5.6348,5.6445,5.664,5.6737,5.681,5.681,5.681,5.681,5.681,5.681,5.681,5.681,5.681,5.681,5.681,5.681,5.681,5.681,5.681,5.681,5.681,5.681,5.681,5.681,5.681,5.6601,5.62,5.62,5.62,5.62,5.62,5.5899,5.5407,5.5407,5.5137,5.4706,5.4706,5.5047,4.7309,4.7309,0.0,4.7638,4.7997,4.8416,4.8955,0.0,0.0,0.0,0.0,5.0727,5.1116,5.1206,0.0,5.1206,5.1206,5.1206,5.1206,5.1206,5.1206,5.1206,5.1415,5.1768,5.2157,5.2695,5.3324,5.4162,5.4461,5.476,5.5179,5.5179,5.5179,5.5179,5.5179,5.5179,5.5179,5.5179,5.5179,5.5179,5.5179,5.5179,5.5179,5.5179,5.5179,5.5179,5.5179,5.5179,5.5179,5.5179,5.5179,5.5179,5.5179,5.5179,5.5179,5.5179,5.5179,5.5179,5.5179,5.5179,5.5179,5.5179,5.5384,5.5674,5.5922,5.6179,5.6466,5.6843,5.6943,5.6957,5.6954,5.6966,5.6905,5.6629,5.6567,5.6592,5.6761,5.681,5.681,5.681,5.681,5.681,5.681,5.681,5.681,5.681,5.681,5.681,5.681,5.681,5.681,5.681,5.681,5.681,5.681,5.681,5.6978,5.733,5.7353,5.7511,5.791,5.7187,5.6978,5.7353,5.7353,5.7316,5.7273,5.7273,5.703,5.6652,5.6652,5.7006,4.7309,4.7309,0.0,4.8117,4.8409,0.0,5.0009,5.0285,5.0458,5.1056,0.0,5.1206,5.1206,5.1206,5.1206,5.1206,5.1206,5.1206,5.1265,5.1295,5.1295,5.1355,5.1917,5.2306,5.2366,5.3473,5.4251,5.4311,5.485,5.5179,5.5179,5.5179,5.5179,5.5179,5.5179,5.5179,5.5179,5.5179,5.5179,5.5179,5.5179,5.5179,5.5179,5.5179,5.5179,5.5179,5.5179,5.5179,5.5179,5.5179,5.5239,5.5269,5.5269,5.5299,5.5359,5.5359,5.5359,5.5359,5.5359,5.5359,5.5384,5.5409,5.5829,5.6385,5.6692,5.7191,5.7803,5.8283,5.8435,5.8363,5.7999,5.7894,5.774,5.7124,5.6902,5.681,5.681,5.681,5.681,5.681,5.681,5.681,5.681,5.681,5.681,5.681,5.681,5.681,5.681,5.681,5.681,5.681,5.681,5.6834,5.693,5.693,5.733,5.828,5.8349,5.8705,5.9543,5.7948,5.7472,5.8326,5.8349,5.8751,5.9587,5.9609,5.9631,5.9631,5.9653,5.9805,4.7309,4.7309,0.0,0.0,4.9045,5.0009,5.0817,5.0996,5.1026,5.1176,5.1206,5.1206,5.1206,5.1206,5.1206,5.1206,5.1206,5.1385,5.1917,5.1977,5.2187,5.2695,5.2899,5.3174,5.3713,5.4042,5.4431,5.494,5.5119,5.5179,5.5179,5.5179,5.5179,5.5179,5.5179,5.5179,5.5179,5.5179,5.5179,5.5179,5.5179,5.5179,5.5179,5.5179,5.5179,5.5179,5.5179,5.5179,5.5179,5.5179,5.5534,5.5983,5.5983,5.6256,5.6675,5.6675,5.6675,5.6675,5.6675,5.6675,5.6727,5.699,5.7187,5.7411,5.7867,5.8116,5.8314,5.8612,5.8718,5.8681,5.8608,5.8572,5.8541,5.8387,5.7555,5.681,5.681,5.681,5.681,5.681,5.681,5.681,5.681,5.681,5.681,5.681,5.681,5.681,5.681,5.681,5.681,5.681,5.681,5.7091,5.784,5.7887,5.8303,5.9244,5.9311,5.9399,5.9587,5.9189,5.9078,5.9278,5.9311,5.9389,5.9587,5.9751,5.9838,5.986,5.9978,6.0468,4.7309,0.0,0.0,4.8985,0.0,5.0787,5.1116,5.1445,5.1678,5.1678,5.1678,5.1678,5.1678,5.1947,5.2157,5.2157,5.2157,5.2276,5.2606,5.2665,5.2785,5.3169,5.3473,5.3803,5.4192,5.4491,5.482,5.5149,5.5179,5.5179,5.5179,5.5179,5.5179,5.5179,5.5179,5.5179,5.5179,5.5179,5.5179,5.5179,5.5179,5.5384,5.5683,5.5329,5.5179,5.5179,5.5179,5.5359,5.5683,5.5683,5.6072,5.6641,5.6641,5.6821,5.7094,5.7094,5.7094,5.712,5.7281,5.7359,5.7385,5.7669,5.8014,5.8334,5.8746,5.9088,5.9415,5.9671,5.9747,5.9593,5.8972,5.8818,5.8633,5.7986,5.7555,5.7278,5.7278,5.7056,5.681,5.681,5.681,5.681,5.681,5.681,5.681,5.681,5.681,5.681,5.681,5.681,5.681,5.681,5.7187,5.7653,5.8165,5.8614,5.9256,6.0194,6.0258,6.0525,6.1069,6.109,6.0841,6.0258,6.0365,6.064,6.109,6.1283,6.1373,6.1406,6.1474,6.185,4.7309,0.0,4.8745,4.992,5.0697,0.0,5.1206,5.1738,5.2187,5.2187,5.2276,5.2366,5.2366,5.2839,5.3198,5.3198,5.3198,5.3258,5.3378,5.3354,5.3438,5.3528,5.4012,5.4371,5.4371,5.488,5.5179,5.5179,5.5179,5.5179,5.5179,5.5179,5.5179,5.5179,5.5179,5.5179,5.5179,5.5179,5.5179,5.5179,5.5324,5.5743,5.6342,5.5777,5.5508,5.5508,5.5508,5.5837,5.6372,5.6372,5.6731,5.7274,5.7274,5.7334,5.7453,5.7506,5.7502,5.7558,5.7902,5.8006,5.8058,5.8342,5.8784,5.9262,5.9399,5.9869,6.0324,6.0434,6.0455,6.0178,5.9095,5.8818,5.851,5.7401,5.7463,5.7771,5.7648,5.7093,5.6601,5.6601,5.6601,5.6631,5.6779,5.681,5.681,5.681,5.681,5.681,5.681,5.681,5.6858,5.6995,5.7723,5.8349,5.8705,5.9455,6.0301,6.1276,6.1337,6.1777,6.2693,6.2629,6.2085,6.1171,6.1454,6.1997,6.2731,6.2825,6.2852,6.2852,6.2753,6.2778,4.7309,0.0,4.9337,0.0,5.0697,5.1206,0.0,0.0,5.2187,0.0,5.2665,5.3079,5.3079,5.3139,5.3198,5.3198,5.3198,5.3408,5.3982,5.4072,5.4281,5.485,5.4999,5.5059,5.5059,5.5149,5.5179,5.5179,5.5179,5.5179,5.5179,5.5179,5.5179,5.5179,5.5179,5.5179,5.5179,5.5179,5.5179,5.5209,5.5803,5.6402,5.6974,5.6885,5.6855,5.6855,5.6855,5.6885,5.6974,5.6974,5.7363,5.7965,5.7965,5.8321,5.8857,5.9098,5.9178,5.9232,5.9554,5.969,5.9713,6.0002,6.0137,6.0158,5.9835,5.9788,5.9783,5.9224,5.9064,5.9033,5.8849,5.8818,5.8756,5.8572,5.8171,5.7648,5.7063,5.6354,5.5862,5.5862,5.5862,5.6046,5.6693,5.681,5.681,5.681,5.681,5.681,5.681,5.681,5.7091,5.7933,5.8119,5.8921,6.0733,6.0982,6.1548,6.2659,6.2736,6.2794,6.2962,6.2294,6.1862,6.1677,6.2415,6.2832,6.2962,6.2501,6.232,6.2304,6.1782,6.1528,4.8229,4.8858,4.9546,0.0,5.0996,5.1206,5.1206,5.2007,5.2755,5.2755,5.3588,5.4216,5.3832,5.4072,5.4336,5.4336,5.4336,5.4401,5.473,5.476,5.488,5.5149,5.5179,5.5179,5.5179,5.5179,5.5179,5.5179,5.5179,5.5179,5.5179,5.5179,5.5179,5.5179,5.5179,5.5179,5.5179,5.5593,5.5953,5.6256,5.6555,5.7034,5.7663,5.7663,5.7453,5.7094,5.7094,5.7304,5.7663,5.7663,5.8082,5.868,5.8841,5.9045,5.9369,5.9693,5.9773,5.9827,6.0118,5.998,5.9697,5.9982,5.9809,5.9497,5.9291,5.9249,5.9187,5.8879,5.8818,5.8726,5.8325,5.8233,5.814,5.7771,5.7432,5.7155,5.6847,5.6539,5.62,5.5776,5.5407,5.5253,5.5561,5.5622,5.5745,5.6139,5.6644,5.7121,5.7527,5.8018,5.8523,5.8953,5.9565,6.031,6.1209,6.1903,6.2247,6.2313,6.2351,6.2183,6.1884,6.1542,6.1407,6.1501,6.1769,6.1884,6.1884,6.1743,6.1715,6.168,6.1426,6.1289,0.0,0.0,4.9606,5.0877,5.1206,5.1206,0.0,0.0,5.3198,5.3198,5.4276,5.5029,5.4551,5.485,5.5179,5.5179,5.5179,5.5179,5.5179,5.5179,5.5179,5.5179,5.5179,5.5179,5.5179,5.5179,5.5179,5.5179,5.5179,5.5179,5.5179,5.5179,5.5179,5.5179,5.5179,5.5269,5.5474,5.6102,5.6761,5.7363,5.7363,5.7723,5.8354,5.8354,5.8082,5.7603,5.7603,5.7902,5.8354,5.8434,5.8731,5.9234,5.9503,5.9519,5.9395,5.9713,5.9727,5.9627,5.9914,5.968,5.9277,5.9481,5.9218,5.8787,5.8602,5.8541,5.851,5.8325,5.8294,5.8171,5.7678,5.7555,5.7401,5.6909,5.681,5.6748,5.657,5.6385,5.6108,5.5561,5.4891,5.4491,5.4676,5.4862,5.5202,5.5721,5.6558,5.7325,5.7897,5.8621,5.9253,5.9707,6.0366,6.0986,6.1501,6.2125,6.2274,6.1695,6.166,6.1494,6.1073,6.0919,6.0853,6.1013,6.0681,6.066,6.1091,6.1045,6.1013,6.1013,6.0806,6.0737,0.0,4.9277,0.0,5.0877,5.1206,5.1206,0.0,0.0,5.3198,5.3198,5.4276,5.5179,5.5149,5.5179,5.5179,5.5179,5.5179,5.5179,5.5179,5.5179,5.5179,5.5179,5.5179,5.5179,5.5179,5.5179,5.5179,5.5179,5.5179,5.5179,5.5179,5.5179,5.5179,5.5179,5.5179,5.5504,5.6132,5.6761,5.7393,5.8055,5.8055,5.8384,5.9069,5.9069,5.9039,5.9009,5.9009,5.9009,5.9066,5.9308,5.9446,5.9503,5.9827,5.9538,5.8988,5.93,5.9032,5.8532,5.8785,5.8854,5.8824,5.8849,5.8849,5.8695,5.8048,5.7832,5.7709,5.7063,5.6902,5.6902,5.6847,5.6871,5.684,5.681,5.681,5.6601,5.5923,5.5253,5.4799,5.4768,5.4214,5.3937,5.4583,5.5405,5.5929,5.596,5.6731,5.7291,5.7323,5.7557,5.8341,6.0003,5.9717,6.0131,6.1984,6.1513,6.1176,6.1322,6.1322,6.1288,6.1306,6.0616,6.0254,6.0254,5.9513,5.9806,6.1271,6.0599,6.0254,6.022,5.9461,5.9099,0.0,0.0,0.0,5.0877,5.1206,5.1206,5.1206,5.2247,5.3198,5.3198,5.4276,5.5179,5.5179,5.5179,5.5179,5.5179,5.5179,5.5179,5.5179,5.5179,5.5179,5.5179,5.5179,5.5179,5.5179,5.5179,5.5179,5.5179,5.5179,5.5179,5.5179,5.5179,5.5179,5.5179,5.5623,5.6346,5.7423,5.7633,5.8082,5.874,5.874,5.865,5.8444,5.8444,5.8311,5.808,5.808,5.856,5.9339,5.9183,5.9108,5.91,5.9018,5.8786,5.8598,5.8904,5.8852,5.8693,5.8793,5.851,5.8171,5.8171,5.7863,5.7463,5.7217,5.7155,5.7093,5.6871,5.681,5.681,5.681,5.681,5.6662,5.62,5.6108,5.5899,5.5199,5.486,5.4583,5.4153,5.3506,5.331,5.4121,5.4626,5.5207,5.6061,5.718,5.8065,5.8345,5.9072,5.9843,6.0452,6.0457,6.0684,6.1359,6.1264,6.1028,6.0634,6.0599,6.0358,5.984,5.9564,5.9426,5.9426,5.915,5.9271,5.9823,5.9547,5.9426,5.9426,5.9133,5.8995,4.8947,0.0,0.0,0.0,5.1206,5.1206,5.1206,5.2247,5.3198,5.3198,5.4276,5.5179,5.5179,5.487,5.4718,5.5128,5.5179,5.5053,5.4667,5.4951,5.5053,5.4641,5.4951,5.5179,5.5179,5.5179,5.5179,5.5179,5.5179,5.5179,5.5179,5.5179,5.5179,5.5179,5.5863,5.6611,5.7453,5.7636,5.7992,5.8441,5.8441,5.8201,5.7782,5.7862,5.7753,5.7488,5.7695,5.8261,5.8968,5.8802,5.8723,5.8719,5.8593,5.8388,5.8229,5.8404,5.8325,5.814,5.814,5.7832,5.7463,5.7463,5.7155,5.681,5.681,5.681,5.681,5.681,5.681,5.6724,5.6508,5.6262,5.5961,5.5468,5.5376,5.5262,5.4876,5.4568,5.4306,5.4185,5.3601,5.3434,5.438,5.489,5.5503,5.6457,5.762,5.8485,5.8767,5.9559,6.0152,6.0426,6.0383,6.0456,6.0696,6.0614,6.0323,5.984,5.9806,5.9564,5.903,5.8995,5.8995,5.8995,5.8995,5.8995,5.8995,5.8995,5.8995,5.8995,5.8995,5.8995,0.0,0.0,0.0,0.0,5.1206,5.1206,5.1206,5.2217,5.3169,5.3198,5.4246,5.5179,5.5179,5.4226,5.3782,5.4976,5.5103,5.4692,5.3518,5.4355,5.4667,5.3492,5.4406,5.5154,5.5154,5.5179,5.5179,5.5179,5.5179,5.5179,5.5179,5.5179,5.5209,5.5209,5.5863,5.6222,5.6222,5.6821,5.7094,5.7094,5.712,5.712,5.709,5.7355,5.7484,5.748,5.807,5.8146,5.7891,5.8227,5.8354,5.8435,5.8656,5.8325,5.7771,5.7771,5.734,5.681,5.681,5.681,5.681,5.681,5.681,5.681,5.681,5.6755,5.6755,5.6755,5.6755,5.657,5.5862,5.5191,5.4706,5.4676,5.4676,5.4738,5.4904,5.4322,5.3993,5.4835,5.4515,5.4401,5.5462,5.6367,5.6996,5.7222,5.7957,5.8525,5.8508,5.8666,5.9063,5.9818,5.934,5.9323,6.0082,5.9461,5.8995,5.8995,5.8995,5.8995,5.8995,5.8995,5.8995,5.8995,5.8961,5.8961,5.8961,5.8995,5.8995,5.8961,5.8926,5.8926,4.9733,0.0,0.0,0.0,0.0,0.0,5.1206,5.1858,5.2606,5.3109,5.3862,5.461,5.5089,5.4226,5.3518,5.3834,5.3203,5.2566,5.2244,5.2459,5.2539,5.2189,5.3203,5.3912,5.3912,5.4692,5.5179,0.0,5.5179,5.5179,5.5179,5.5179,5.5418,5.5923,5.6102,5.6402,5.6851,5.7004,5.7094,5.7094,5.7307,5.717,5.677,5.697,5.6925,5.6724,5.6873,5.7021,5.715,5.7715,5.798,5.7918,5.75,5.7217,5.7087,5.7087,5.6939,5.681,5.681,5.681,5.681,5.681,5.681,5.681,5.681,5.6416,5.6016,5.6016,5.5653,5.5229,5.5014,5.4829,5.4583,5.4091,5.4243,5.4366,5.3937,5.4249,5.4804,5.5325,5.5409,5.5683,5.6619,5.7095,5.7505,5.8081,5.8562,5.884,5.8718,5.8858,5.903,5.9237,5.9116,5.9099,5.9306,5.915,5.8995,5.8995,5.8995,5.8995,5.8995,5.8995,5.8995,5.8995,5.8495,5.8202,5.8219,5.872,5.872,5.8185,5.7667,5.7426,0.0,0.0,0.0,0.0,0.0,0.0,5.1206,5.1738,5.2306,5.2695,5.3533,5.4341,5.47,5.3633,5.2671,5.2671,5.1292,5.0406,5.0879,5.1374,5.1511,5.1017,5.2404,5.3413,5.3413,5.4483,5.5179,5.5179,5.5179,5.5179,5.5179,5.5179,5.5384,5.5773,5.5803,5.5953,5.6286,5.6415,5.6466,5.6466,5.6752,5.6667,5.6355,5.6575,5.6585,5.6421,5.6519,5.6664,5.684,5.7217,5.7371,5.734,5.6939,5.681,5.681,5.681,5.681,5.681,5.681,5.681,5.681,5.681,5.681,5.681,5.681,5.6293,5.5684,5.5684,5.5037,5.4276,5.4276,5.4091,5.3867,5.3841,5.4094,5.4439,5.479,5.5462,5.6001,5.5915,5.6178,5.6773,5.7686,5.7941,5.8209,5.8632,5.8875,5.8961,5.8892,5.8944,5.8995,5.8995,5.8995,5.8995,5.8995,5.8995,5.8995,5.8995,5.8995,5.8857,5.8547,5.8547,5.8392,5.8081,5.7667,5.746,5.746,5.7874,5.7874,5.7426,5.7012,5.6805,0.0,0.0,0.0,0.0,0.0,0.0,5.1035,5.1458,5.1906,5.1845,5.2772,5.3664,5.3813,5.2476,5.1427,5.1483,4.9644,4.8524,4.9561,5.0629,5.0962,4.9986,5.1864,5.3256,5.3387,5.4483,5.5179,5.5179,5.5179,5.5179,5.5179,5.5179,5.5179,5.5179,5.5179,5.5204,5.5229,5.5481,5.5606,5.5656,5.5929,5.6053,5.6053,5.6323,5.6445,5.647,5.6689,5.681,5.681,5.681,5.681,5.681,5.681,5.681,5.681,5.681,5.681,5.681,5.681,5.681,5.681,5.681,5.681,5.681,5.681,5.6293,5.5684,5.5592,5.4699,5.3691,5.3691,5.3281,5.3047,5.3772,5.4211,5.489,5.6426,5.7133,5.7282,5.6633,5.6996,5.7686,5.8666,5.8806,5.8858,5.8978,5.8995,5.8995,5.8995,5.8995,5.8995,5.8995,5.8995,5.8995,5.8995,5.8995,5.8961,5.8892,5.8857,5.8564,5.7805,5.7771,5.746,5.6805,5.6702,5.6633,5.6529,5.6633,5.6667,5.6667,5.6598,5.6529,0.0,0.0,0.0,0.0,0.0,0.0,5.0124,5.0019,5.0032,4.9702,4.981,5.0295,5.1294,5.0457,4.9747,5.0184,4.9103,4.826,4.8521,4.8726,4.9131,4.9816,5.1154,5.2377,5.3308,5.4483,5.5179,5.5179,5.5179,5.5179,5.5179,5.5179,5.5179,5.5179,5.5179,5.5305,5.5506,5.5581,5.5706,5.5929,5.6201,5.6323,5.6323,5.6592,5.6713,5.6713,5.6785,5.681,5.681,5.681,5.681,5.681,5.681,5.681,5.681,5.681,5.681,5.681,5.681,5.681,5.681,5.681,5.681,5.681,5.681,5.6293,5.5592,5.5045,5.4306,5.3691,5.3691,5.3823,5.3891,5.3586,5.4496,5.5515,5.5868,5.6619,5.7372,5.7686,5.8262,5.8702,5.8927,5.8944,5.8961,5.8995,5.8995,5.8995,5.8995,5.8995,5.8995,5.8995,5.8995,5.8995,5.8995,5.8995,5.8754,5.8133,5.8099,5.7771,5.7047,5.7012,5.6943,5.6805,5.6184,5.5547,5.4943,5.5547,5.5823,5.5823,5.5219,5.4943,0.0,0.0,0.0,5.1206,0.0,0.0,0.0,4.9194,4.8731,4.8539,4.8775,4.9169,4.9788,4.9223,4.8735,4.9006,4.8108,4.7364,4.7364,4.8327,4.9274,4.9817,5.1483,5.2751,5.3335,5.4483,5.5179,5.5179,5.5179,5.5179,5.5179,5.5179,5.5179,5.5179,5.5179,5.533,5.5606,5.5731,5.5929,5.6201,5.647,5.6592,5.6616,5.6737,5.681,5.681,5.681,5.681,5.681,5.681,5.681,5.681,5.681,5.681,5.681,5.681,5.681,5.681,5.681,5.681,5.681,5.681,5.681,5.681,5.681,5.6293,5.5561,5.4891,5.4646,5.4597,5.4597,5.4916,5.5281,5.5324,5.6015,5.6692,5.679,5.7483,5.8085,5.8085,5.858,5.8995,5.8995,5.8995,5.8995,5.8995,5.8995,5.8995,5.8995,5.8702,5.8444,5.8444,5.8116,5.7909,5.7909,5.7909,5.7771,5.7357,5.7357,5.7012,5.6237,5.6219,5.6046,5.5667,5.5253,5.4858,5.4478,5.4858,5.503,5.503,5.4651,5.4478,0.0,0.0,0.0,0.0,0.0,4.9537,0.0,0.0,0.0,4.7406,4.7797,4.8213,4.8324,4.7998,4.7676,4.7676,4.7039,4.6475,4.6316,4.8201,4.9576,4.9576,5.1444,5.2801,5.301,5.4099,5.479,5.479,5.479,5.479,5.479,5.494,5.5025,5.5075,5.5195,5.5431,5.5755,5.5979,5.6201,5.6494,5.6689,5.681,5.681,5.681,5.681,5.681,5.681,5.681,5.681,5.681,5.681,5.681,5.681,5.681,5.681,5.681,5.681,5.681,5.681,5.681,5.681,5.681,5.681,5.681,5.681,5.6457,5.5966,5.5527,5.554,5.5686,5.5925,5.6125,5.6403,5.689,5.7344,5.7716,5.7763,5.8315,5.8668,5.8146,5.8444,5.8823,5.8961,5.8892,5.8788,5.8788,5.8651,5.8582,5.8582,5.8081,5.7702,5.7702,5.715,5.6805,5.6805,5.6805,5.6736,5.6598,5.6564,5.6219,5.5409,5.5375,5.5099,5.4513,5.4478,5.4478,5.4478,5.4478,5.4478,5.4478,5.4478,5.4478,0.0,0.0,0.0,0.0,5.0388,0.0,0.0,0.0,4.6295,4.5288,0.0,4.5337,4.5891,0.0,0.0,4.5909,4.6217,4.629,4.5766,4.7265,4.8409,4.8409,4.946,5.0618,5.1704,5.2793,5.3438,5.3438,5.3438,5.3438,5.3438,5.3982,5.4411,5.4658,5.5255,5.5805,5.6299,5.6348,5.6494,5.6761,5.6785,5.681,5.681,5.681,5.681,5.681,5.681,5.681,5.681,5.681,5.681,5.681,5.681,5.681,5.681,5.681,5.681,5.681,5.681,5.681,5.681,5.681,5.681,5.681,5.681,5.7005,5.741,5.7904,5.7141,5.6379,5.7427,5.7142,5.6461,5.5999,5.7001,5.7897,5.7372,5.7759,5.8146,5.7964,5.7996,5.8254,5.8892,5.8461,5.8012,5.8012,5.746,5.7047,5.7047,5.6978,5.6909,5.6909,5.684,5.6805,5.6805,5.6805,5.6495,5.5789,5.5754,5.5409,5.4667,5.4616,5.4582,5.4478,5.4478,5.4478,5.4478,5.4478,5.4478,5.4478,5.4478,5.4478,0.0,0.0,0.0,0.0,0.0,0.0,4.7331,0.0,4.5261,0.0,0.0,0.0,0.0,0.0,0.0,0.0,4.5269,4.5375,4.5113,4.5708,4.665,4.8029,4.924,5.037,5.1501,5.2581,5.3198,5.3198,5.3198,5.3198,5.3198,5.362,5.4072,5.4586,5.5005,5.5578,5.6397,5.6397,5.6543,5.681,5.681,5.681,5.681,5.681,5.681,5.681,5.681,5.681,5.681,5.681,5.681,5.6779,5.6324,5.6416,5.681,5.681,5.681,5.681,5.681,5.681,5.6724,5.6293,5.6662,5.7149,5.6745,5.7197,5.7829,5.7761,5.7674,5.7639,5.7795,5.776,5.7714,5.773,5.7991,5.7999,5.7247,5.7562,5.7741,5.6885,5.7036,5.7357,5.7667,5.746,5.7253,5.7253,5.7012,5.6805,5.6805,5.6391,5.6099,5.6099,5.5736,5.546,5.546,5.546,5.5322,5.4961,5.4961,5.4823,5.4513,5.4478,5.4478,5.4478,5.4478,5.4478,5.4478,5.4478,5.4478,5.4478,5.4478,5.4478,5.1439,0.0,0.0,0.0,0.0,0.0,0.0,0.0,0.0,0.0,0.0,0.0,0.0,0.0,0.0,0.0,0.0,4.4172,4.4042,4.412,4.4966,4.7001,4.8291,4.955,5.0929,5.1778,5.2345,5.2636,5.2636,5.2684,5.2756,5.3134,5.3634,5.4207,5.4552,5.5195,5.6188,5.6188,5.6407,5.681,5.681,5.681,5.681,5.681,5.681,5.681,5.657,5.6508,5.6477,5.6293,5.6231,5.617,5.5622,5.5745,5.6231,5.6231,5.6231,5.6231,5.6231,5.6327,5.6329,5.5804,5.6287,5.7027,5.6549,5.7019,5.774,5.763,5.792,5.8309,5.8369,5.8396,5.843,5.8579,5.8376,5.791,5.6893,5.7158,5.724,5.603,5.6179,5.6426,5.6219,5.6357,5.646,5.646,5.6288,5.6184,5.6184,5.5651,5.5306,5.5306,5.4823,5.4478,5.4478,5.4478,5.4478,5.4478,5.4478,5.4478,5.4478,5.4478,5.4478,5.4478,5.4478,5.4478,5.4478,5.4478,5.4478,5.4478,5.4478,5.4478,0.0,0.0,0.0,4.9736,0.0,0.0,0.0,0.0,4.4695,0.0,0.0,0.0,0.0,0.0,0.0,0.0,0.0,0.0,0.0,4.2735,4.3493,4.467,4.5822,4.7335,4.9449,4.9722,5.0159,5.1195,5.1265,5.1383,5.1632,5.2296,5.2839,5.333,5.3964,5.4779,5.5715,5.5715,5.6084,5.681,5.681,5.681,5.681,5.681,5.681,5.6779,5.6046,5.5745,5.5684,5.5014,5.4768,5.4768,5.4737,5.4768,5.4768,5.4768,5.4768,5.4768,5.4768,5.5039,5.5453,5.5422,5.5717,5.6131,5.6131,5.6455,5.7098,5.8322,5.8071,5.7838,5.9654,5.9142,5.7947,5.7218,5.7501,5.7534,5.6217,5.6405,5.6582,5.5773,5.5635,5.5409,5.4685,5.5168,5.5651,5.5651,5.503,5.4547,5.4547,5.4547,5.4547,5.4547,5.4513,5.4478,5.4478,5.4478,5.4478,5.4478,5.4478,5.4478,5.4478,5.4478,5.4478,5.4478,5.4478,5.4478,5.4478,5.4478,5.4478,5.4478,5.4478,5.4478,0.0,0.0,5.1659,4.8829,0.0,0.0,0.0,0.0,0.0,0.0,0.0,0.0,0.0,0.0,0.0,0.0,0.0,0.0,0.0,4.2892,4.3127,4.3519,4.4886,4.6368,4.7797,4.8935,5.0052,5.1135,5.1206,5.1323,5.1572,5.1976,5.2541,5.3284,5.3668,5.4268,5.5014,5.5045,5.5168,5.5407,5.5407,5.5407,5.5407,5.5407,5.5407,5.5407,5.5137,5.5045,5.5014,5.4799,5.4706,5.4676,5.4214,5.4236,5.4518,5.4638,5.4916,5.5208,5.5505,5.5731,5.5803,5.5354,5.5822,5.6481,5.6036,5.6802,5.7712,5.736,5.7833,5.8439,5.8275,5.8162,5.8022,5.7672,5.7449,5.7021,5.5924,5.5865,5.5789,5.503,5.4858,5.4789,5.4547,5.4685,5.4858,5.4858,5.4651,5.4478,5.4478,5.4478,5.4478,5.4478,5.4478,5.4478,5.4478,5.4478,5.4478,5.4478,5.4478,5.4478,5.4478,5.4478,5.4478,5.4478,5.4478,5.4478,5.4478,5.4478,5.4478,5.4478,5.4478,5.4478,5.3533,5.2909,0.0,4.9216,4.8264,0.0,4.5715,0.0,0.0,0.0,0.0,0.0,0.0,0.0,0.0,0.0,0.0,0.0,0.0,4.2396,4.2524,4.288,4.3903,4.5287,4.6939,4.8076,4.9403,5.1082,5.1299,5.1463,5.1741,5.1972,5.2406,5.3063,5.3253,5.366,5.4337,5.4337,5.446,5.4706,5.4706,5.4706,5.4706,5.4706,5.4706,5.4706,5.446,5.4337,5.4337,5.4091,5.4114,5.4212,5.3748,5.3885,5.4272,5.427,5.4538,5.4988,5.5276,5.5496,5.5586,5.5131,5.5591,5.622,5.5792,5.6405,5.7304,5.7493,5.7955,5.84,5.8619,5.8359,5.7928,5.7584,5.6969,5.6252,5.5414,5.5203,5.5065,5.4582,5.4478,5.4478,5.4478,5.4478,5.4478,5.4478,5.4478,5.4478,5.4478,5.4478,5.4478,5.4478,5.4478,5.4478,5.4478,5.4478,5.4478,5.4478,5.4478,5.4478,5.4478,5.4478,5.4616,5.4892,5.4616,5.4616,5.4892,5.4616,5.4478,5.4478,5.4478,5.4478]}]]